<?xml version="1.0" encoding="UTF-8" standalone="no" ?>
<gpx xmlns="http://www.topografix.com/GPX/1/1" xmlns:xsi="http://www.w3.org/2001/XMLSchema-instance" xsi:schemaLocation="http://www.topografix.com/GPX/1/1 http://www.topografix.com/GPX/1/1/gpx.xsd" version="1.1" creator="VisuGPX - https://www.visugpx.com">
  <metadata>
    <name>Mont Margériaz par le Golet de l'Agneau (Bauges)</name>
  </metadata>
  <trk>
    <name><![CDATA[25-OCT-20 22:57:42]]></name>
    <trkseg>
      <trkpt lat="45.61912" lon="6.02151">
        <ele>1022.02</ele>
        <time>2020-10-25T07:38:35Z</time>
      </trkpt>
      <trkpt lat="45.61911" lon="6.02152">
        <ele>1022.5</ele>
        <time>2020-10-25T07:38:50Z</time>
      </trkpt>
      <trkpt lat="45.61911" lon="6.02153">
        <ele>1022.5</ele>
        <time>2020-10-25T07:39:08Z</time>
      </trkpt>
      <trkpt lat="45.61911" lon="6.02153">
        <ele>1022.5</ele>
        <time>2020-10-25T07:39:29Z</time>
      </trkpt>
      <trkpt lat="45.6191" lon="6.02154">
        <ele>1022.5</ele>
        <time>2020-10-25T07:39:31Z</time>
      </trkpt>
      <trkpt lat="45.61903" lon="6.02157">
        <ele>1022.5</ele>
        <time>2020-10-25T07:39:41Z</time>
      </trkpt>
      <trkpt lat="45.61903" lon="6.02158">
        <ele>1022.5</ele>
        <time>2020-10-25T07:39:47Z</time>
      </trkpt>
      <trkpt lat="45.61901" lon="6.02159">
        <ele>1022.5</ele>
        <time>2020-10-25T07:40:01Z</time>
      </trkpt>
      <trkpt lat="45.61902" lon="6.0216">
        <ele>1022.5</ele>
        <time>2020-10-25T07:40:18Z</time>
      </trkpt>
      <trkpt lat="45.619" lon="6.0216">
        <ele>1022.5</ele>
        <time>2020-10-25T07:40:30Z</time>
      </trkpt>
      <trkpt lat="45.619" lon="6.0216">
        <ele>1022.5</ele>
        <time>2020-10-25T07:40:54Z</time>
      </trkpt>
      <trkpt lat="45.619" lon="6.02161">
        <ele>1022.5</ele>
        <time>2020-10-25T07:41:13Z</time>
      </trkpt>
      <trkpt lat="45.61898" lon="6.02162">
        <ele>1022.5</ele>
        <time>2020-10-25T07:41:15Z</time>
      </trkpt>
      <trkpt lat="45.61894" lon="6.02167">
        <ele>1022.5</ele>
        <time>2020-10-25T07:41:20Z</time>
      </trkpt>
      <trkpt lat="45.61892" lon="6.02169">
        <ele>1022.98</ele>
        <time>2020-10-25T07:41:22Z</time>
      </trkpt>
      <trkpt lat="45.61887" lon="6.02175">
        <ele>1023.46</ele>
        <time>2020-10-25T07:41:28Z</time>
      </trkpt>
      <trkpt lat="45.61886" lon="6.0218">
        <ele>1023.94</ele>
        <time>2020-10-25T07:41:33Z</time>
      </trkpt>
      <trkpt lat="45.61885" lon="6.02184">
        <ele>1023.94</ele>
        <time>2020-10-25T07:41:36Z</time>
      </trkpt>
      <trkpt lat="45.6189" lon="6.02191">
        <ele>1024.9</ele>
        <time>2020-10-25T07:41:43Z</time>
      </trkpt>
      <trkpt lat="45.61892" lon="6.02193">
        <ele>1024.9</ele>
        <time>2020-10-25T07:41:45Z</time>
      </trkpt>
      <trkpt lat="45.61896" lon="6.02194">
        <ele>1025.86</ele>
        <time>2020-10-25T07:41:50Z</time>
      </trkpt>
      <trkpt lat="45.61902" lon="6.02191">
        <ele>1026.34</ele>
        <time>2020-10-25T07:41:56Z</time>
      </trkpt>
      <trkpt lat="45.61904" lon="6.02189">
        <ele>1026.34</ele>
        <time>2020-10-25T07:41:58Z</time>
      </trkpt>
      <trkpt lat="45.61907" lon="6.02187">
        <ele>1027.31</ele>
        <time>2020-10-25T07:42:01Z</time>
      </trkpt>
      <trkpt lat="45.61909" lon="6.02186">
        <ele>1027.31</ele>
        <time>2020-10-25T07:42:03Z</time>
      </trkpt>
      <trkpt lat="45.61911" lon="6.02185">
        <ele>1027.79</ele>
        <time>2020-10-25T07:42:05Z</time>
      </trkpt>
      <trkpt lat="45.61917" lon="6.02181">
        <ele>1028.27</ele>
        <time>2020-10-25T07:42:11Z</time>
      </trkpt>
      <trkpt lat="45.61921" lon="6.02179">
        <ele>1028.75</ele>
        <time>2020-10-25T07:42:14Z</time>
      </trkpt>
      <trkpt lat="45.61922" lon="6.02178">
        <ele>1028.75</ele>
        <time>2020-10-25T07:42:16Z</time>
      </trkpt>
      <trkpt lat="45.61927" lon="6.02176">
        <ele>1029.71</ele>
        <time>2020-10-25T07:42:21Z</time>
      </trkpt>
      <trkpt lat="45.61938" lon="6.02169">
        <ele>1031.15</ele>
        <time>2020-10-25T07:42:32Z</time>
      </trkpt>
      <trkpt lat="45.61944" lon="6.02168">
        <ele>1031.63</ele>
        <time>2020-10-25T07:42:38Z</time>
      </trkpt>
      <trkpt lat="45.61959" lon="6.02168">
        <ele>1033.07</ele>
        <time>2020-10-25T07:42:51Z</time>
      </trkpt>
      <trkpt lat="45.61962" lon="6.02168">
        <ele>1033.55</ele>
        <time>2020-10-25T07:42:54Z</time>
      </trkpt>
      <trkpt lat="45.61971" lon="6.02171">
        <ele>1035</ele>
        <time>2020-10-25T07:43:02Z</time>
      </trkpt>
      <trkpt lat="45.61974" lon="6.02172">
        <ele>1035</ele>
        <time>2020-10-25T07:43:04Z</time>
      </trkpt>
      <trkpt lat="45.61984" lon="6.02177">
        <ele>1036.44</ele>
        <time>2020-10-25T07:43:12Z</time>
      </trkpt>
      <trkpt lat="45.61986" lon="6.02178">
        <ele>1036.44</ele>
        <time>2020-10-25T07:43:14Z</time>
      </trkpt>
      <trkpt lat="45.61999" lon="6.02182">
        <ele>1037.88</ele>
        <time>2020-10-25T07:43:26Z</time>
      </trkpt>
      <trkpt lat="45.62004" lon="6.02183">
        <ele>1038.84</ele>
        <time>2020-10-25T07:43:31Z</time>
      </trkpt>
      <trkpt lat="45.62016" lon="6.02181">
        <ele>1039.8</ele>
        <time>2020-10-25T07:43:39Z</time>
      </trkpt>
      <trkpt lat="45.62033" lon="6.02182">
        <ele>1041.25</ele>
        <time>2020-10-25T07:43:51Z</time>
      </trkpt>
      <trkpt lat="45.62048" lon="6.0219">
        <ele>1042.21</ele>
        <time>2020-10-25T07:44:03Z</time>
      </trkpt>
      <trkpt lat="45.6205" lon="6.02192">
        <ele>1042.69</ele>
        <time>2020-10-25T07:44:06Z</time>
      </trkpt>
      <trkpt lat="45.62055" lon="6.02198">
        <ele>1042.69</ele>
        <time>2020-10-25T07:44:13Z</time>
      </trkpt>
      <trkpt lat="45.6206" lon="6.02202">
        <ele>1043.65</ele>
        <time>2020-10-25T07:44:19Z</time>
      </trkpt>
      <trkpt lat="45.62063" lon="6.02206">
        <ele>1043.65</ele>
        <time>2020-10-25T07:44:24Z</time>
      </trkpt>
      <trkpt lat="45.62064" lon="6.02208">
        <ele>1044.13</ele>
        <time>2020-10-25T07:44:26Z</time>
      </trkpt>
      <trkpt lat="45.62065" lon="6.0221">
        <ele>1044.13</ele>
        <time>2020-10-25T07:44:28Z</time>
      </trkpt>
      <trkpt lat="45.62068" lon="6.02217">
        <ele>1045.09</ele>
        <time>2020-10-25T07:44:34Z</time>
      </trkpt>
      <trkpt lat="45.62068" lon="6.02221">
        <ele>1045.57</ele>
        <time>2020-10-25T07:44:38Z</time>
      </trkpt>
      <trkpt lat="45.62082" lon="6.0224">
        <ele>1047.01</ele>
        <time>2020-10-25T07:44:52Z</time>
      </trkpt>
      <trkpt lat="45.62086" lon="6.02246">
        <ele>1047.49</ele>
        <time>2020-10-25T07:44:57Z</time>
      </trkpt>
      <trkpt lat="45.62093" lon="6.02262">
        <ele>1048.45</ele>
        <time>2020-10-25T07:45:08Z</time>
      </trkpt>
      <trkpt lat="45.62097" lon="6.02267">
        <ele>1048.94</ele>
        <time>2020-10-25T07:45:12Z</time>
      </trkpt>
      <trkpt lat="45.62106" lon="6.02275">
        <ele>1049.9</ele>
        <time>2020-10-25T07:45:21Z</time>
      </trkpt>
      <trkpt lat="45.62113" lon="6.02275">
        <ele>1050.38</ele>
        <time>2020-10-25T07:45:27Z</time>
      </trkpt>
      <trkpt lat="45.62117" lon="6.02275">
        <ele>1050.86</ele>
        <time>2020-10-25T07:45:30Z</time>
      </trkpt>
      <trkpt lat="45.62126" lon="6.02276">
        <ele>1051.82</ele>
        <time>2020-10-25T07:45:39Z</time>
      </trkpt>
      <trkpt lat="45.62129" lon="6.02277">
        <ele>1052.3</ele>
        <time>2020-10-25T07:45:42Z</time>
      </trkpt>
      <trkpt lat="45.62133" lon="6.0228">
        <ele>1052.3</ele>
        <time>2020-10-25T07:45:47Z</time>
      </trkpt>
      <trkpt lat="45.62136" lon="6.02284">
        <ele>1052.78</ele>
        <time>2020-10-25T07:45:52Z</time>
      </trkpt>
      <trkpt lat="45.62138" lon="6.02287">
        <ele>1052.78</ele>
        <time>2020-10-25T07:45:55Z</time>
      </trkpt>
      <trkpt lat="45.6214" lon="6.0229">
        <ele>1053.74</ele>
        <time>2020-10-25T07:45:58Z</time>
      </trkpt>
      <trkpt lat="45.6214" lon="6.02299">
        <ele>1054.7</ele>
        <time>2020-10-25T07:46:05Z</time>
      </trkpt>
      <trkpt lat="45.62145" lon="6.02316">
        <ele>1056.15</ele>
        <time>2020-10-25T07:46:16Z</time>
      </trkpt>
      <trkpt lat="45.62145" lon="6.02323">
        <ele>1057.11</ele>
        <time>2020-10-25T07:46:20Z</time>
      </trkpt>
      <trkpt lat="45.62145" lon="6.02328">
        <ele>1057.59</ele>
        <time>2020-10-25T07:46:24Z</time>
      </trkpt>
      <trkpt lat="45.62143" lon="6.02335">
        <ele>1058.07</ele>
        <time>2020-10-25T07:46:28Z</time>
      </trkpt>
      <trkpt lat="45.62142" lon="6.02338">
        <ele>1058.07</ele>
        <time>2020-10-25T07:46:30Z</time>
      </trkpt>
      <trkpt lat="45.6214" lon="6.02345">
        <ele>1058.55</ele>
        <time>2020-10-25T07:46:34Z</time>
      </trkpt>
      <trkpt lat="45.62138" lon="6.0236">
        <ele>1059.99</ele>
        <time>2020-10-25T07:46:45Z</time>
      </trkpt>
      <trkpt lat="45.62135" lon="6.02367">
        <ele>1060.47</ele>
        <time>2020-10-25T07:46:56Z</time>
      </trkpt>
      <trkpt lat="45.62134" lon="6.02368">
        <ele>1060.47</ele>
        <time>2020-10-25T07:47:04Z</time>
      </trkpt>
      <trkpt lat="45.62134" lon="6.0238">
        <ele>1061.43</ele>
        <time>2020-10-25T07:47:11Z</time>
      </trkpt>
      <trkpt lat="45.62135" lon="6.02384">
        <ele>1062.39</ele>
        <time>2020-10-25T07:47:13Z</time>
      </trkpt>
      <trkpt lat="45.62134" lon="6.02389">
        <ele>1062.87</ele>
        <time>2020-10-25T07:47:16Z</time>
      </trkpt>
      <trkpt lat="45.62134" lon="6.02395">
        <ele>1063.36</ele>
        <time>2020-10-25T07:47:21Z</time>
      </trkpt>
      <trkpt lat="45.62133" lon="6.02397">
        <ele>1063.36</ele>
        <time>2020-10-25T07:47:28Z</time>
      </trkpt>
      <trkpt lat="45.62135" lon="6.02401">
        <ele>1063.84</ele>
        <time>2020-10-25T07:47:41Z</time>
      </trkpt>
      <trkpt lat="45.62142" lon="6.02408">
        <ele>1064.8</ele>
        <time>2020-10-25T07:47:51Z</time>
      </trkpt>
      <trkpt lat="45.62142" lon="6.02408">
        <ele>1065.28</ele>
        <time>2020-10-25T07:47:52Z</time>
      </trkpt>
      <trkpt lat="45.62146" lon="6.02407">
        <ele>1065.76</ele>
        <time>2020-10-25T07:47:56Z</time>
      </trkpt>
      <trkpt lat="45.62154" lon="6.02404">
        <ele>1067.2</ele>
        <time>2020-10-25T07:48:08Z</time>
      </trkpt>
      <trkpt lat="45.62154" lon="6.02405">
        <ele>1067.2</ele>
        <time>2020-10-25T07:48:11Z</time>
      </trkpt>
      <trkpt lat="45.62157" lon="6.02404">
        <ele>1067.2</ele>
        <time>2020-10-25T07:48:14Z</time>
      </trkpt>
      <trkpt lat="45.62158" lon="6.02401">
        <ele>1067.68</ele>
        <time>2020-10-25T07:48:16Z</time>
      </trkpt>
      <trkpt lat="45.62169" lon="6.02398">
        <ele>1070.08</ele>
        <time>2020-10-25T07:48:26Z</time>
      </trkpt>
      <trkpt lat="45.62178" lon="6.02397">
        <ele>1071.53</ele>
        <time>2020-10-25T07:48:35Z</time>
      </trkpt>
      <trkpt lat="45.62187" lon="6.02402">
        <ele>1073.45</ele>
        <time>2020-10-25T07:48:48Z</time>
      </trkpt>
      <trkpt lat="45.62194" lon="6.02402">
        <ele>1074.41</ele>
        <time>2020-10-25T07:48:56Z</time>
      </trkpt>
      <trkpt lat="45.622" lon="6.02403">
        <ele>1074.41</ele>
        <time>2020-10-25T07:49:00Z</time>
      </trkpt>
      <trkpt lat="45.62206" lon="6.02404">
        <ele>1075.37</ele>
        <time>2020-10-25T07:49:06Z</time>
      </trkpt>
      <trkpt lat="45.62211" lon="6.02405">
        <ele>1076.33</ele>
        <time>2020-10-25T07:49:10Z</time>
      </trkpt>
      <trkpt lat="45.62221" lon="6.02406">
        <ele>1076.81</ele>
        <time>2020-10-25T07:49:23Z</time>
      </trkpt>
      <trkpt lat="45.62226" lon="6.0241">
        <ele>1077.29</ele>
        <time>2020-10-25T07:49:40Z</time>
      </trkpt>
      <trkpt lat="45.62234" lon="6.02417">
        <ele>1078.26</ele>
        <time>2020-10-25T07:49:50Z</time>
      </trkpt>
      <trkpt lat="45.6224" lon="6.02421">
        <ele>1079.7</ele>
        <time>2020-10-25T07:49:57Z</time>
      </trkpt>
      <trkpt lat="45.62249" lon="6.02427">
        <ele>1080.66</ele>
        <time>2020-10-25T07:50:05Z</time>
      </trkpt>
      <trkpt lat="45.62258" lon="6.0243">
        <ele>1081.62</ele>
        <time>2020-10-25T07:50:12Z</time>
      </trkpt>
      <trkpt lat="45.62265" lon="6.02432">
        <ele>1082.1</ele>
        <time>2020-10-25T07:50:15Z</time>
      </trkpt>
      <trkpt lat="45.62275" lon="6.02439">
        <ele>1083.54</ele>
        <time>2020-10-25T07:50:26Z</time>
      </trkpt>
      <trkpt lat="45.62276" lon="6.0244">
        <ele>1084.02</ele>
        <time>2020-10-25T07:50:28Z</time>
      </trkpt>
      <trkpt lat="45.62285" lon="6.02444">
        <ele>1084.99</ele>
        <time>2020-10-25T07:50:36Z</time>
      </trkpt>
      <trkpt lat="45.62296" lon="6.02444">
        <ele>1085.47</ele>
        <time>2020-10-25T07:50:43Z</time>
      </trkpt>
      <trkpt lat="45.62302" lon="6.02443">
        <ele>1085.47</ele>
        <time>2020-10-25T07:50:47Z</time>
      </trkpt>
      <trkpt lat="45.62306" lon="6.02442">
        <ele>1085.95</ele>
        <time>2020-10-25T07:50:50Z</time>
      </trkpt>
      <trkpt lat="45.6231" lon="6.02441">
        <ele>1085.95</ele>
        <time>2020-10-25T07:50:54Z</time>
      </trkpt>
      <trkpt lat="45.6232" lon="6.02433">
        <ele>1087.87</ele>
        <time>2020-10-25T07:51:04Z</time>
      </trkpt>
      <trkpt lat="45.62328" lon="6.0243">
        <ele>1089.31</ele>
        <time>2020-10-25T07:51:12Z</time>
      </trkpt>
      <trkpt lat="45.62339" lon="6.02425">
        <ele>1091.71</ele>
        <time>2020-10-25T07:51:25Z</time>
      </trkpt>
      <trkpt lat="45.62349" lon="6.02417">
        <ele>1094.12</ele>
        <time>2020-10-25T07:51:36Z</time>
      </trkpt>
      <trkpt lat="45.6235" lon="6.02414">
        <ele>1094.12</ele>
        <time>2020-10-25T07:51:38Z</time>
      </trkpt>
      <trkpt lat="45.62358" lon="6.02402">
        <ele>1094.12</ele>
        <time>2020-10-25T07:51:48Z</time>
      </trkpt>
      <trkpt lat="45.62363" lon="6.0239">
        <ele>1094.12</ele>
        <time>2020-10-25T07:51:58Z</time>
      </trkpt>
      <trkpt lat="45.6237" lon="6.02372">
        <ele>1096.04</ele>
        <time>2020-10-25T07:52:10Z</time>
      </trkpt>
      <trkpt lat="45.62375" lon="6.02359">
        <ele>1097.48</ele>
        <time>2020-10-25T07:52:21Z</time>
      </trkpt>
      <trkpt lat="45.62382" lon="6.02348">
        <ele>1099.89</ele>
        <time>2020-10-25T07:52:35Z</time>
      </trkpt>
      <trkpt lat="45.62383" lon="6.02335">
        <ele>1102.29</ele>
        <time>2020-10-25T07:52:48Z</time>
      </trkpt>
      <trkpt lat="45.62385" lon="6.02329">
        <ele>1104.21</ele>
        <time>2020-10-25T07:53:00Z</time>
      </trkpt>
      <trkpt lat="45.62387" lon="6.02323">
        <ele>1107.1</ele>
        <time>2020-10-25T07:53:11Z</time>
      </trkpt>
      <trkpt lat="45.62393" lon="6.02325">
        <ele>1109.02</ele>
        <time>2020-10-25T07:53:22Z</time>
      </trkpt>
      <trkpt lat="45.62396" lon="6.0233">
        <ele>1110.94</ele>
        <time>2020-10-25T07:53:33Z</time>
      </trkpt>
      <trkpt lat="45.62404" lon="6.0233">
        <ele>1113.82</ele>
        <time>2020-10-25T07:53:46Z</time>
      </trkpt>
      <trkpt lat="45.62413" lon="6.02337">
        <ele>1115.75</ele>
        <time>2020-10-25T07:53:58Z</time>
      </trkpt>
      <trkpt lat="45.62419" lon="6.0234">
        <ele>1117.19</ele>
        <time>2020-10-25T07:54:07Z</time>
      </trkpt>
      <trkpt lat="45.62431" lon="6.02344">
        <ele>1120.07</ele>
        <time>2020-10-25T07:54:18Z</time>
      </trkpt>
      <trkpt lat="45.62434" lon="6.02347">
        <ele>1120.07</ele>
        <time>2020-10-25T07:54:22Z</time>
      </trkpt>
      <trkpt lat="45.62443" lon="6.02348">
        <ele>1120.55</ele>
        <time>2020-10-25T07:54:34Z</time>
      </trkpt>
      <trkpt lat="45.62452" lon="6.02347">
        <ele>1122</ele>
        <time>2020-10-25T07:54:44Z</time>
      </trkpt>
      <trkpt lat="45.62456" lon="6.02346">
        <ele>1122</ele>
        <time>2020-10-25T07:54:46Z</time>
      </trkpt>
      <trkpt lat="45.62467" lon="6.02344">
        <ele>1122.96</ele>
        <time>2020-10-25T07:54:55Z</time>
      </trkpt>
      <trkpt lat="45.62471" lon="6.0234">
        <ele>1124.4</ele>
        <time>2020-10-25T07:55:00Z</time>
      </trkpt>
      <trkpt lat="45.6248" lon="6.0233">
        <ele>1125.84</ele>
        <time>2020-10-25T07:55:10Z</time>
      </trkpt>
      <trkpt lat="45.62485" lon="6.0232">
        <ele>1127.28</ele>
        <time>2020-10-25T07:55:19Z</time>
      </trkpt>
      <trkpt lat="45.62491" lon="6.02311">
        <ele>1129.21</ele>
        <time>2020-10-25T07:55:30Z</time>
      </trkpt>
      <trkpt lat="45.62496" lon="6.02301">
        <ele>1130.17</ele>
        <time>2020-10-25T07:55:39Z</time>
      </trkpt>
      <trkpt lat="45.62499" lon="6.02295">
        <ele>1131.13</ele>
        <time>2020-10-25T07:55:46Z</time>
      </trkpt>
      <trkpt lat="45.62502" lon="6.02279">
        <ele>1132.57</ele>
        <time>2020-10-25T07:55:56Z</time>
      </trkpt>
      <trkpt lat="45.62504" lon="6.02276">
        <ele>1133.05</ele>
        <time>2020-10-25T07:56:00Z</time>
      </trkpt>
      <trkpt lat="45.6251" lon="6.02264">
        <ele>1132.57</ele>
        <time>2020-10-25T07:56:07Z</time>
      </trkpt>
      <trkpt lat="45.62515" lon="6.02253">
        <ele>1132.57</ele>
        <time>2020-10-25T07:56:14Z</time>
      </trkpt>
      <trkpt lat="45.62524" lon="6.02243">
        <ele>1134.97</ele>
        <time>2020-10-25T07:56:27Z</time>
      </trkpt>
      <trkpt lat="45.62531" lon="6.02232">
        <ele>1136.9</ele>
        <time>2020-10-25T07:56:37Z</time>
      </trkpt>
      <trkpt lat="45.6254" lon="6.02229">
        <ele>1139.3</ele>
        <time>2020-10-25T07:56:49Z</time>
      </trkpt>
      <trkpt lat="45.62547" lon="6.02226">
        <ele>1141.22</ele>
        <time>2020-10-25T07:57:01Z</time>
      </trkpt>
      <trkpt lat="45.62549" lon="6.02225">
        <ele>1141.7</ele>
        <time>2020-10-25T07:57:06Z</time>
      </trkpt>
      <trkpt lat="45.62559" lon="6.02223">
        <ele>1143.14</ele>
        <time>2020-10-25T07:57:16Z</time>
      </trkpt>
      <trkpt lat="45.62569" lon="6.02218">
        <ele>1144.11</ele>
        <time>2020-10-25T07:57:27Z</time>
      </trkpt>
      <trkpt lat="45.62574" lon="6.02214">
        <ele>1145.07</ele>
        <time>2020-10-25T07:57:35Z</time>
      </trkpt>
      <trkpt lat="45.62581" lon="6.0221">
        <ele>1146.51</ele>
        <time>2020-10-25T07:57:45Z</time>
      </trkpt>
      <trkpt lat="45.62583" lon="6.02208">
        <ele>1146.51</ele>
        <time>2020-10-25T07:57:48Z</time>
      </trkpt>
      <trkpt lat="45.62594" lon="6.02204">
        <ele>1147.95</ele>
        <time>2020-10-25T07:57:59Z</time>
      </trkpt>
      <trkpt lat="45.626" lon="6.022">
        <ele>1148.43</ele>
        <time>2020-10-25T07:58:05Z</time>
      </trkpt>
      <trkpt lat="45.62614" lon="6.02193">
        <ele>1149.39</ele>
        <time>2020-10-25T07:58:18Z</time>
      </trkpt>
      <trkpt lat="45.62623" lon="6.02191">
        <ele>1150.35</ele>
        <time>2020-10-25T07:58:31Z</time>
      </trkpt>
      <trkpt lat="45.62637" lon="6.02191">
        <ele>1150.84</ele>
        <time>2020-10-25T07:58:43Z</time>
      </trkpt>
      <trkpt lat="45.62647" lon="6.02191">
        <ele>1152.76</ele>
        <time>2020-10-25T07:58:53Z</time>
      </trkpt>
      <trkpt lat="45.62665" lon="6.02187">
        <ele>1154.68</ele>
        <time>2020-10-25T07:59:06Z</time>
      </trkpt>
      <trkpt lat="45.62677" lon="6.02185">
        <ele>1156.12</ele>
        <time>2020-10-25T07:59:19Z</time>
      </trkpt>
      <trkpt lat="45.6268" lon="6.02184">
        <ele>1156.6</ele>
        <time>2020-10-25T07:59:25Z</time>
      </trkpt>
      <trkpt lat="45.62686" lon="6.02178">
        <ele>1157.08</ele>
        <time>2020-10-25T07:59:32Z</time>
      </trkpt>
      <trkpt lat="45.62696" lon="6.02176">
        <ele>1157.56</ele>
        <time>2020-10-25T07:59:42Z</time>
      </trkpt>
      <trkpt lat="45.62701" lon="6.0218">
        <ele>1158.05</ele>
        <time>2020-10-25T07:59:57Z</time>
      </trkpt>
      <trkpt lat="45.62703" lon="6.02181">
        <ele>1157.56</ele>
        <time>2020-10-25T08:00:21Z</time>
      </trkpt>
      <trkpt lat="45.62707" lon="6.02183">
        <ele>1158.53</ele>
        <time>2020-10-25T08:00:36Z</time>
      </trkpt>
      <trkpt lat="45.6271" lon="6.02183">
        <ele>1158.53</ele>
        <time>2020-10-25T08:00:38Z</time>
      </trkpt>
      <trkpt lat="45.62726" lon="6.0219">
        <ele>1159.49</ele>
        <time>2020-10-25T08:00:51Z</time>
      </trkpt>
      <trkpt lat="45.62726" lon="6.02191">
        <ele>1159.97</ele>
        <time>2020-10-25T08:00:52Z</time>
      </trkpt>
      <trkpt lat="45.62729" lon="6.02193">
        <ele>1159.97</ele>
        <time>2020-10-25T08:00:54Z</time>
      </trkpt>
      <trkpt lat="45.62741" lon="6.02201">
        <ele>1160.93</ele>
        <time>2020-10-25T08:01:06Z</time>
      </trkpt>
      <trkpt lat="45.62747" lon="6.02207">
        <ele>1161.41</ele>
        <time>2020-10-25T08:01:13Z</time>
      </trkpt>
      <trkpt lat="45.62759" lon="6.02215">
        <ele>1161.89</ele>
        <time>2020-10-25T08:01:24Z</time>
      </trkpt>
      <trkpt lat="45.62768" lon="6.02231">
        <ele>1162.85</ele>
        <time>2020-10-25T08:01:35Z</time>
      </trkpt>
      <trkpt lat="45.62774" lon="6.02246">
        <ele>1163.33</ele>
        <time>2020-10-25T08:01:46Z</time>
      </trkpt>
      <trkpt lat="45.62778" lon="6.02259">
        <ele>1163.81</ele>
        <time>2020-10-25T08:01:56Z</time>
      </trkpt>
      <trkpt lat="45.62779" lon="6.02275">
        <ele>1165.74</ele>
        <time>2020-10-25T08:02:10Z</time>
      </trkpt>
      <trkpt lat="45.6278" lon="6.0228">
        <ele>1166.22</ele>
        <time>2020-10-25T08:02:19Z</time>
      </trkpt>
      <trkpt lat="45.6278" lon="6.02285">
        <ele>1167.18</ele>
        <time>2020-10-25T08:02:25Z</time>
      </trkpt>
      <trkpt lat="45.62777" lon="6.02292">
        <ele>1168.62</ele>
        <time>2020-10-25T08:02:34Z</time>
      </trkpt>
      <trkpt lat="45.62777" lon="6.02293">
        <ele>1169.1</ele>
        <time>2020-10-25T08:02:35Z</time>
      </trkpt>
      <trkpt lat="45.6278" lon="6.02304">
        <ele>1170.06</ele>
        <time>2020-10-25T08:02:44Z</time>
      </trkpt>
      <trkpt lat="45.62785" lon="6.02313">
        <ele>1171.5</ele>
        <time>2020-10-25T08:02:53Z</time>
      </trkpt>
      <trkpt lat="45.62789" lon="6.02318">
        <ele>1171.98</ele>
        <time>2020-10-25T08:03:00Z</time>
      </trkpt>
      <trkpt lat="45.62794" lon="6.02326">
        <ele>1172.47</ele>
        <time>2020-10-25T08:03:07Z</time>
      </trkpt>
      <trkpt lat="45.628" lon="6.02337">
        <ele>1172.95</ele>
        <time>2020-10-25T08:03:13Z</time>
      </trkpt>
      <trkpt lat="45.62808" lon="6.02349">
        <ele>1174.87</ele>
        <time>2020-10-25T08:03:26Z</time>
      </trkpt>
      <trkpt lat="45.62816" lon="6.02361">
        <ele>1176.31</ele>
        <time>2020-10-25T08:03:38Z</time>
      </trkpt>
      <trkpt lat="45.62819" lon="6.02374">
        <ele>1178.23</ele>
        <time>2020-10-25T08:03:50Z</time>
      </trkpt>
      <trkpt lat="45.62822" lon="6.02382">
        <ele>1179.19</ele>
        <time>2020-10-25T08:04:00Z</time>
      </trkpt>
      <trkpt lat="45.62825" lon="6.0239">
        <ele>1179.67</ele>
        <time>2020-10-25T08:04:11Z</time>
      </trkpt>
      <trkpt lat="45.62836" lon="6.02404">
        <ele>1180.64</ele>
        <time>2020-10-25T08:04:25Z</time>
      </trkpt>
      <trkpt lat="45.62841" lon="6.02406">
        <ele>1183.04</ele>
        <time>2020-10-25T08:04:37Z</time>
      </trkpt>
      <trkpt lat="45.62852" lon="6.02418">
        <ele>1185.44</ele>
        <time>2020-10-25T08:04:51Z</time>
      </trkpt>
      <trkpt lat="45.62866" lon="6.0243">
        <ele>1186.88</ele>
        <time>2020-10-25T08:04:59Z</time>
      </trkpt>
      <trkpt lat="45.62872" lon="6.02439">
        <ele>1188.81</ele>
        <time>2020-10-25T08:05:11Z</time>
      </trkpt>
      <trkpt lat="45.62885" lon="6.02443">
        <ele>1190.73</ele>
        <time>2020-10-25T08:05:23Z</time>
      </trkpt>
      <trkpt lat="45.62886" lon="6.02442">
        <ele>1190.73</ele>
        <time>2020-10-25T08:05:41Z</time>
      </trkpt>
      <trkpt lat="45.62884" lon="6.02444">
        <ele>1189.77</ele>
        <time>2020-10-25T08:05:56Z</time>
      </trkpt>
      <trkpt lat="45.62882" lon="6.02443">
        <ele>1190.73</ele>
        <time>2020-10-25T08:06:15Z</time>
      </trkpt>
      <trkpt lat="45.62883" lon="6.02442">
        <ele>1191.69</ele>
        <time>2020-10-25T08:06:25Z</time>
      </trkpt>
      <trkpt lat="45.62882" lon="6.02441">
        <ele>1191.69</ele>
        <time>2020-10-25T08:06:48Z</time>
      </trkpt>
      <trkpt lat="45.62883" lon="6.02441">
        <ele>1191.69</ele>
        <time>2020-10-25T08:07:13Z</time>
      </trkpt>
      <trkpt lat="45.62883" lon="6.02441">
        <ele>1192.17</ele>
        <time>2020-10-25T08:07:14Z</time>
      </trkpt>
      <trkpt lat="45.62891" lon="6.02447">
        <ele>1193.13</ele>
        <time>2020-10-25T08:07:25Z</time>
      </trkpt>
      <trkpt lat="45.629" lon="6.02454">
        <ele>1194.09</ele>
        <time>2020-10-25T08:07:37Z</time>
      </trkpt>
      <trkpt lat="45.62912" lon="6.02455">
        <ele>1196.02</ele>
        <time>2020-10-25T08:07:49Z</time>
      </trkpt>
      <trkpt lat="45.62921" lon="6.02456">
        <ele>1198.42</ele>
        <time>2020-10-25T08:08:01Z</time>
      </trkpt>
      <trkpt lat="45.62927" lon="6.02454">
        <ele>1200.34</ele>
        <time>2020-10-25T08:08:12Z</time>
      </trkpt>
      <trkpt lat="45.62933" lon="6.02464">
        <ele>1200.34</ele>
        <time>2020-10-25T08:08:23Z</time>
      </trkpt>
      <trkpt lat="45.62949" lon="6.02477">
        <ele>1200.82</ele>
        <time>2020-10-25T08:08:35Z</time>
      </trkpt>
      <trkpt lat="45.62961" lon="6.02485">
        <ele>1201.3</ele>
        <time>2020-10-25T08:08:46Z</time>
      </trkpt>
      <trkpt lat="45.62962" lon="6.02486">
        <ele>1201.79</ele>
        <time>2020-10-25T08:08:50Z</time>
      </trkpt>
      <trkpt lat="45.62972" lon="6.02489">
        <ele>1202.75</ele>
        <time>2020-10-25T08:09:00Z</time>
      </trkpt>
      <trkpt lat="45.62984" lon="6.02485">
        <ele>1205.63</ele>
        <time>2020-10-25T08:09:13Z</time>
      </trkpt>
      <trkpt lat="45.62992" lon="6.02482">
        <ele>1206.59</ele>
        <time>2020-10-25T08:09:24Z</time>
      </trkpt>
      <trkpt lat="45.63" lon="6.02481">
        <ele>1206.59</ele>
        <time>2020-10-25T08:09:30Z</time>
      </trkpt>
      <trkpt lat="45.63016" lon="6.02468">
        <ele>1207.55</ele>
        <time>2020-10-25T08:09:45Z</time>
      </trkpt>
      <trkpt lat="45.63016" lon="6.02466">
        <ele>1208.03</ele>
        <time>2020-10-25T08:09:47Z</time>
      </trkpt>
      <trkpt lat="45.63019" lon="6.02464">
        <ele>1208.03</ele>
        <time>2020-10-25T08:09:52Z</time>
      </trkpt>
      <trkpt lat="45.63023" lon="6.02461">
        <ele>1208.03</ele>
        <time>2020-10-25T08:09:56Z</time>
      </trkpt>
      <trkpt lat="45.63037" lon="6.02454">
        <ele>1209</ele>
        <time>2020-10-25T08:10:07Z</time>
      </trkpt>
      <trkpt lat="45.63046" lon="6.02446">
        <ele>1209.48</ele>
        <time>2020-10-25T08:10:19Z</time>
      </trkpt>
      <trkpt lat="45.63057" lon="6.02446">
        <ele>1210.92</ele>
        <time>2020-10-25T08:10:32Z</time>
      </trkpt>
      <trkpt lat="45.63062" lon="6.02447">
        <ele>1210.92</ele>
        <time>2020-10-25T08:10:36Z</time>
      </trkpt>
      <trkpt lat="45.63065" lon="6.02448">
        <ele>1211.4</ele>
        <time>2020-10-25T08:10:38Z</time>
      </trkpt>
      <trkpt lat="45.63076" lon="6.02445">
        <ele>1212.36</ele>
        <time>2020-10-25T08:10:50Z</time>
      </trkpt>
      <trkpt lat="45.63083" lon="6.02447">
        <ele>1214.28</ele>
        <time>2020-10-25T08:11:01Z</time>
      </trkpt>
      <trkpt lat="45.6309" lon="6.02444">
        <ele>1213.8</ele>
        <time>2020-10-25T08:11:08Z</time>
      </trkpt>
      <trkpt lat="45.63099" lon="6.02436">
        <ele>1212.36</ele>
        <time>2020-10-25T08:11:18Z</time>
      </trkpt>
      <trkpt lat="45.63109" lon="6.0242">
        <ele>1212.36</ele>
        <time>2020-10-25T08:11:29Z</time>
      </trkpt>
      <trkpt lat="45.6312" lon="6.02406">
        <ele>1211.88</ele>
        <time>2020-10-25T08:11:41Z</time>
      </trkpt>
      <trkpt lat="45.63123" lon="6.02405">
        <ele>1211.88</ele>
        <time>2020-10-25T08:11:43Z</time>
      </trkpt>
      <trkpt lat="45.63132" lon="6.02403">
        <ele>1211.88</ele>
        <time>2020-10-25T08:11:50Z</time>
      </trkpt>
      <trkpt lat="45.63149" lon="6.02413">
        <ele>1211.4</ele>
        <time>2020-10-25T08:12:04Z</time>
      </trkpt>
      <trkpt lat="45.6315" lon="6.02417">
        <ele>1211.88</ele>
        <time>2020-10-25T08:12:07Z</time>
      </trkpt>
      <trkpt lat="45.63152" lon="6.02419">
        <ele>1211.88</ele>
        <time>2020-10-25T08:12:09Z</time>
      </trkpt>
      <trkpt lat="45.63165" lon="6.02438">
        <ele>1211.88</ele>
        <time>2020-10-25T08:12:22Z</time>
      </trkpt>
      <trkpt lat="45.63167" lon="6.02443">
        <ele>1211.88</ele>
        <time>2020-10-25T08:12:24Z</time>
      </trkpt>
      <trkpt lat="45.63174" lon="6.02461">
        <ele>1212.84</ele>
        <time>2020-10-25T08:12:37Z</time>
      </trkpt>
      <trkpt lat="45.63181" lon="6.02467">
        <ele>1212.84</ele>
        <time>2020-10-25T08:12:49Z</time>
      </trkpt>
      <trkpt lat="45.6319" lon="6.02471">
        <ele>1213.32</ele>
        <time>2020-10-25T08:13:00Z</time>
      </trkpt>
      <trkpt lat="45.63201" lon="6.02488">
        <ele>1213.32</ele>
        <time>2020-10-25T08:13:15Z</time>
      </trkpt>
      <trkpt lat="45.63213" lon="6.02492">
        <ele>1213.32</ele>
        <time>2020-10-25T08:13:22Z</time>
      </trkpt>
      <trkpt lat="45.63223" lon="6.02485">
        <ele>1214.76</ele>
        <time>2020-10-25T08:13:31Z</time>
      </trkpt>
      <trkpt lat="45.63228" lon="6.02478">
        <ele>1214.76</ele>
        <time>2020-10-25T08:13:35Z</time>
      </trkpt>
      <trkpt lat="45.63229" lon="6.02473">
        <ele>1214.76</ele>
        <time>2020-10-25T08:13:38Z</time>
      </trkpt>
      <trkpt lat="45.63236" lon="6.02463">
        <ele>1215.24</ele>
        <time>2020-10-25T08:13:48Z</time>
      </trkpt>
      <trkpt lat="45.63238" lon="6.02456">
        <ele>1215.72</ele>
        <time>2020-10-25T08:13:54Z</time>
      </trkpt>
      <trkpt lat="45.63247" lon="6.0244">
        <ele>1215.72</ele>
        <time>2020-10-25T08:14:08Z</time>
      </trkpt>
      <trkpt lat="45.6325" lon="6.02432">
        <ele>1216.21</ele>
        <time>2020-10-25T08:14:14Z</time>
      </trkpt>
      <trkpt lat="45.6326" lon="6.02417">
        <ele>1216.69</ele>
        <time>2020-10-25T08:14:27Z</time>
      </trkpt>
      <trkpt lat="45.63264" lon="6.02414">
        <ele>1216.69</ele>
        <time>2020-10-25T08:14:31Z</time>
      </trkpt>
      <trkpt lat="45.63271" lon="6.02409">
        <ele>1216.69</ele>
        <time>2020-10-25T08:14:35Z</time>
      </trkpt>
      <trkpt lat="45.63284" lon="6.02406">
        <ele>1218.13</ele>
        <time>2020-10-25T08:14:45Z</time>
      </trkpt>
      <trkpt lat="45.63287" lon="6.02398">
        <ele>1218.13</ele>
        <time>2020-10-25T08:14:56Z</time>
      </trkpt>
      <trkpt lat="45.63296" lon="6.02395">
        <ele>1219.57</ele>
        <time>2020-10-25T08:15:08Z</time>
      </trkpt>
      <trkpt lat="45.63305" lon="6.02392">
        <ele>1219.57</ele>
        <time>2020-10-25T08:15:18Z</time>
      </trkpt>
      <trkpt lat="45.63307" lon="6.0239">
        <ele>1219.57</ele>
        <time>2020-10-25T08:15:20Z</time>
      </trkpt>
      <trkpt lat="45.63313" lon="6.02384">
        <ele>1219.57</ele>
        <time>2020-10-25T08:15:24Z</time>
      </trkpt>
      <trkpt lat="45.63319" lon="6.02377">
        <ele>1219.57</ele>
        <time>2020-10-25T08:15:29Z</time>
      </trkpt>
      <trkpt lat="45.63321" lon="6.02373">
        <ele>1220.05</ele>
        <time>2020-10-25T08:15:32Z</time>
      </trkpt>
      <trkpt lat="45.63322" lon="6.02369">
        <ele>1220.05</ele>
        <time>2020-10-25T08:15:36Z</time>
      </trkpt>
      <trkpt lat="45.63328" lon="6.02348">
        <ele>1220.05</ele>
        <time>2020-10-25T08:15:48Z</time>
      </trkpt>
      <trkpt lat="45.6333" lon="6.02345">
        <ele>1220.05</ele>
        <time>2020-10-25T08:15:50Z</time>
      </trkpt>
      <trkpt lat="45.63335" lon="6.02341">
        <ele>1220.53</ele>
        <time>2020-10-25T08:15:55Z</time>
      </trkpt>
      <trkpt lat="45.6334" lon="6.02339">
        <ele>1220.53</ele>
        <time>2020-10-25T08:15:59Z</time>
      </trkpt>
      <trkpt lat="45.63342" lon="6.02339">
        <ele>1220.53</ele>
        <time>2020-10-25T08:16:02Z</time>
      </trkpt>
      <trkpt lat="45.63347" lon="6.0233">
        <ele>1221.49</ele>
        <time>2020-10-25T08:16:12Z</time>
      </trkpt>
      <trkpt lat="45.6336" lon="6.02317">
        <ele>1222.45</ele>
        <time>2020-10-25T08:16:22Z</time>
      </trkpt>
      <trkpt lat="45.63366" lon="6.02305">
        <ele>1222.93</ele>
        <time>2020-10-25T08:16:32Z</time>
      </trkpt>
      <trkpt lat="45.63369" lon="6.02302">
        <ele>1222.93</ele>
        <time>2020-10-25T08:16:37Z</time>
      </trkpt>
      <trkpt lat="45.63374" lon="6.02296">
        <ele>1223.42</ele>
        <time>2020-10-25T08:16:43Z</time>
      </trkpt>
      <trkpt lat="45.63382" lon="6.02287">
        <ele>1223.9</ele>
        <time>2020-10-25T08:16:52Z</time>
      </trkpt>
      <trkpt lat="45.63391" lon="6.0227">
        <ele>1224.86</ele>
        <time>2020-10-25T08:17:02Z</time>
      </trkpt>
      <trkpt lat="45.63399" lon="6.02257">
        <ele>1225.82</ele>
        <time>2020-10-25T08:17:11Z</time>
      </trkpt>
      <trkpt lat="45.63402" lon="6.02253">
        <ele>1225.82</ele>
        <time>2020-10-25T08:17:14Z</time>
      </trkpt>
      <trkpt lat="45.63407" lon="6.02251">
        <ele>1225.82</ele>
        <time>2020-10-25T08:17:18Z</time>
      </trkpt>
      <trkpt lat="45.6341" lon="6.02251">
        <ele>1225.82</ele>
        <time>2020-10-25T08:17:20Z</time>
      </trkpt>
      <trkpt lat="45.63414" lon="6.02251">
        <ele>1225.82</ele>
        <time>2020-10-25T08:17:23Z</time>
      </trkpt>
      <trkpt lat="45.6342" lon="6.02249">
        <ele>1226.3</ele>
        <time>2020-10-25T08:17:28Z</time>
      </trkpt>
      <trkpt lat="45.63425" lon="6.02247">
        <ele>1227.74</ele>
        <time>2020-10-25T08:17:38Z</time>
      </trkpt>
      <trkpt lat="45.63432" lon="6.02242">
        <ele>1228.22</ele>
        <time>2020-10-25T08:17:46Z</time>
      </trkpt>
      <trkpt lat="45.6344" lon="6.0224">
        <ele>1229.66</ele>
        <time>2020-10-25T08:17:54Z</time>
      </trkpt>
      <trkpt lat="45.63449" lon="6.02242">
        <ele>1230.62</ele>
        <time>2020-10-25T08:18:01Z</time>
      </trkpt>
      <trkpt lat="45.63455" lon="6.02243">
        <ele>1232.07</ele>
        <time>2020-10-25T08:18:12Z</time>
      </trkpt>
      <trkpt lat="45.63467" lon="6.0224">
        <ele>1233.51</ele>
        <time>2020-10-25T08:18:23Z</time>
      </trkpt>
      <trkpt lat="45.63474" lon="6.02242">
        <ele>1234.47</ele>
        <time>2020-10-25T08:18:29Z</time>
      </trkpt>
      <trkpt lat="45.63477" lon="6.02242">
        <ele>1234.95</ele>
        <time>2020-10-25T08:18:32Z</time>
      </trkpt>
      <trkpt lat="45.63486" lon="6.02244">
        <ele>1236.39</ele>
        <time>2020-10-25T08:18:43Z</time>
      </trkpt>
      <trkpt lat="45.63491" lon="6.02244">
        <ele>1236.87</ele>
        <time>2020-10-25T08:18:46Z</time>
      </trkpt>
      <trkpt lat="45.63496" lon="6.02241">
        <ele>1237.35</ele>
        <time>2020-10-25T08:18:49Z</time>
      </trkpt>
      <trkpt lat="45.63501" lon="6.0224">
        <ele>1237.83</ele>
        <time>2020-10-25T08:18:53Z</time>
      </trkpt>
      <trkpt lat="45.63508" lon="6.02237">
        <ele>1238.32</ele>
        <time>2020-10-25T08:18:59Z</time>
      </trkpt>
      <trkpt lat="45.63516" lon="6.02229">
        <ele>1239.76</ele>
        <time>2020-10-25T08:19:11Z</time>
      </trkpt>
      <trkpt lat="45.63519" lon="6.02224">
        <ele>1240.24</ele>
        <time>2020-10-25T08:19:15Z</time>
      </trkpt>
      <trkpt lat="45.63524" lon="6.02204">
        <ele>1241.68</ele>
        <time>2020-10-25T08:19:27Z</time>
      </trkpt>
      <trkpt lat="45.63529" lon="6.02188">
        <ele>1242.16</ele>
        <time>2020-10-25T08:19:39Z</time>
      </trkpt>
      <trkpt lat="45.63535" lon="6.02176">
        <ele>1242.64</ele>
        <time>2020-10-25T08:19:49Z</time>
      </trkpt>
      <trkpt lat="45.63543" lon="6.02165">
        <ele>1242.64</ele>
        <time>2020-10-25T08:19:59Z</time>
      </trkpt>
      <trkpt lat="45.63551" lon="6.02168">
        <ele>1243.6</ele>
        <time>2020-10-25T08:20:09Z</time>
      </trkpt>
      <trkpt lat="45.63555" lon="6.02171">
        <ele>1244.08</ele>
        <time>2020-10-25T08:20:12Z</time>
      </trkpt>
      <trkpt lat="45.6356" lon="6.02175">
        <ele>1244.56</ele>
        <time>2020-10-25T08:20:16Z</time>
      </trkpt>
      <trkpt lat="45.6357" lon="6.02173">
        <ele>1246.01</ele>
        <time>2020-10-25T08:20:28Z</time>
      </trkpt>
      <trkpt lat="45.63576" lon="6.02163">
        <ele>1246.97</ele>
        <time>2020-10-25T08:20:35Z</time>
      </trkpt>
      <trkpt lat="45.63577" lon="6.02159">
        <ele>1246.97</ele>
        <time>2020-10-25T08:20:37Z</time>
      </trkpt>
      <trkpt lat="45.63578" lon="6.02145">
        <ele>1247.93</ele>
        <time>2020-10-25T08:20:46Z</time>
      </trkpt>
      <trkpt lat="45.63583" lon="6.02127">
        <ele>1248.89</ele>
        <time>2020-10-25T08:20:58Z</time>
      </trkpt>
      <trkpt lat="45.63589" lon="6.02109">
        <ele>1249.37</ele>
        <time>2020-10-25T08:21:09Z</time>
      </trkpt>
      <trkpt lat="45.6359" lon="6.02107">
        <ele>1249.37</ele>
        <time>2020-10-25T08:21:10Z</time>
      </trkpt>
      <trkpt lat="45.63596" lon="6.02095">
        <ele>1250.33</ele>
        <time>2020-10-25T08:21:20Z</time>
      </trkpt>
      <trkpt lat="45.63598" lon="6.02093">
        <ele>1249.85</ele>
        <time>2020-10-25T08:21:22Z</time>
      </trkpt>
      <trkpt lat="45.63607" lon="6.02095">
        <ele>1250.81</ele>
        <time>2020-10-25T08:21:32Z</time>
      </trkpt>
      <trkpt lat="45.63608" lon="6.02096">
        <ele>1251.29</ele>
        <time>2020-10-25T08:21:34Z</time>
      </trkpt>
      <trkpt lat="45.63615" lon="6.02103">
        <ele>1251.77</ele>
        <time>2020-10-25T08:21:41Z</time>
      </trkpt>
      <trkpt lat="45.63618" lon="6.02108">
        <ele>1252.25</ele>
        <time>2020-10-25T08:21:45Z</time>
      </trkpt>
      <trkpt lat="45.6362" lon="6.02113">
        <ele>1252.74</ele>
        <time>2020-10-25T08:21:48Z</time>
      </trkpt>
      <trkpt lat="45.63624" lon="6.02117">
        <ele>1253.7</ele>
        <time>2020-10-25T08:21:52Z</time>
      </trkpt>
      <trkpt lat="45.63626" lon="6.02118">
        <ele>1254.18</ele>
        <time>2020-10-25T08:21:55Z</time>
      </trkpt>
      <trkpt lat="45.63633" lon="6.0212">
        <ele>1255.62</ele>
        <time>2020-10-25T08:22:03Z</time>
      </trkpt>
      <trkpt lat="45.63635" lon="6.02121">
        <ele>1255.14</ele>
        <time>2020-10-25T08:22:06Z</time>
      </trkpt>
      <trkpt lat="45.63637" lon="6.02121">
        <ele>1255.14</ele>
        <time>2020-10-25T08:22:08Z</time>
      </trkpt>
      <trkpt lat="45.63644" lon="6.02127">
        <ele>1254.66</ele>
        <time>2020-10-25T08:22:16Z</time>
      </trkpt>
      <trkpt lat="45.63653" lon="6.0213">
        <ele>1254.66</ele>
        <time>2020-10-25T08:22:23Z</time>
      </trkpt>
      <trkpt lat="45.63655" lon="6.02132">
        <ele>1254.66</ele>
        <time>2020-10-25T08:22:25Z</time>
      </trkpt>
      <trkpt lat="45.63669" lon="6.02137">
        <ele>1255.14</ele>
        <time>2020-10-25T08:22:37Z</time>
      </trkpt>
      <trkpt lat="45.63674" lon="6.02138">
        <ele>1255.62</ele>
        <time>2020-10-25T08:22:41Z</time>
      </trkpt>
      <trkpt lat="45.63677" lon="6.0214">
        <ele>1255.14</ele>
        <time>2020-10-25T08:22:44Z</time>
      </trkpt>
      <trkpt lat="45.63686" lon="6.02138">
        <ele>1256.1</ele>
        <time>2020-10-25T08:22:51Z</time>
      </trkpt>
      <trkpt lat="45.6369" lon="6.02136">
        <ele>1256.58</ele>
        <time>2020-10-25T08:22:54Z</time>
      </trkpt>
      <trkpt lat="45.63699" lon="6.02136">
        <ele>1256.58</ele>
        <time>2020-10-25T08:23:00Z</time>
      </trkpt>
      <trkpt lat="45.63709" lon="6.02134">
        <ele>1258.02</ele>
        <time>2020-10-25T08:23:08Z</time>
      </trkpt>
      <trkpt lat="45.63716" lon="6.02135">
        <ele>1258.5</ele>
        <time>2020-10-25T08:23:12Z</time>
      </trkpt>
      <trkpt lat="45.6372" lon="6.02139">
        <ele>1258.5</ele>
        <time>2020-10-25T08:23:16Z</time>
      </trkpt>
      <trkpt lat="45.63723" lon="6.02138">
        <ele>1258.5</ele>
        <time>2020-10-25T08:23:19Z</time>
      </trkpt>
      <trkpt lat="45.63735" lon="6.02137">
        <ele>1258.5</ele>
        <time>2020-10-25T08:23:29Z</time>
      </trkpt>
      <trkpt lat="45.63738" lon="6.02141">
        <ele>1258.98</ele>
        <time>2020-10-25T08:23:34Z</time>
      </trkpt>
      <trkpt lat="45.6375" lon="6.02154">
        <ele>1259.94</ele>
        <time>2020-10-25T08:23:48Z</time>
      </trkpt>
      <trkpt lat="45.63753" lon="6.02155">
        <ele>1260.43</ele>
        <time>2020-10-25T08:23:50Z</time>
      </trkpt>
      <trkpt lat="45.63767" lon="6.02151">
        <ele>1261.39</ele>
        <time>2020-10-25T08:24:02Z</time>
      </trkpt>
      <trkpt lat="45.63779" lon="6.02145">
        <ele>1262.35</ele>
        <time>2020-10-25T08:24:12Z</time>
      </trkpt>
      <trkpt lat="45.63787" lon="6.02151">
        <ele>1262.35</ele>
        <time>2020-10-25T08:24:19Z</time>
      </trkpt>
      <trkpt lat="45.63801" lon="6.02168">
        <ele>1263.31</ele>
        <time>2020-10-25T08:24:32Z</time>
      </trkpt>
      <trkpt lat="45.63805" lon="6.02177">
        <ele>1264.27</ele>
        <time>2020-10-25T08:24:43Z</time>
      </trkpt>
      <trkpt lat="45.63805" lon="6.02179">
        <ele>1264.27</ele>
        <time>2020-10-25T08:25:03Z</time>
      </trkpt>
      <trkpt lat="45.63806" lon="6.0218">
        <ele>1264.75</ele>
        <time>2020-10-25T08:25:19Z</time>
      </trkpt>
      <trkpt lat="45.63805" lon="6.0218">
        <ele>1264.75</ele>
        <time>2020-10-25T08:25:42Z</time>
      </trkpt>
      <trkpt lat="45.63804" lon="6.02181">
        <ele>1265.23</ele>
        <time>2020-10-25T08:25:50Z</time>
      </trkpt>
      <trkpt lat="45.63798" lon="6.02192">
        <ele>1267.16</ele>
        <time>2020-10-25T08:26:01Z</time>
      </trkpt>
      <trkpt lat="45.63796" lon="6.02209">
        <ele>1269.56</ele>
        <time>2020-10-25T08:26:13Z</time>
      </trkpt>
      <trkpt lat="45.63797" lon="6.02211">
        <ele>1270.52</ele>
        <time>2020-10-25T08:26:15Z</time>
      </trkpt>
      <trkpt lat="45.63802" lon="6.02225">
        <ele>1272.92</ele>
        <time>2020-10-25T08:26:27Z</time>
      </trkpt>
      <trkpt lat="45.63807" lon="6.02235">
        <ele>1275.33</ele>
        <time>2020-10-25T08:26:38Z</time>
      </trkpt>
      <trkpt lat="45.63812" lon="6.02245">
        <ele>1277.73</ele>
        <time>2020-10-25T08:26:49Z</time>
      </trkpt>
      <trkpt lat="45.63817" lon="6.02254">
        <ele>1280.13</ele>
        <time>2020-10-25T08:26:59Z</time>
      </trkpt>
      <trkpt lat="45.63824" lon="6.02264">
        <ele>1283.02</ele>
        <time>2020-10-25T08:27:11Z</time>
      </trkpt>
      <trkpt lat="45.63826" lon="6.02268">
        <ele>1283.02</ele>
        <time>2020-10-25T08:27:14Z</time>
      </trkpt>
      <trkpt lat="45.63829" lon="6.0227">
        <ele>1283.98</ele>
        <time>2020-10-25T08:27:18Z</time>
      </trkpt>
      <trkpt lat="45.63833" lon="6.02274">
        <ele>1284.46</ele>
        <time>2020-10-25T08:27:22Z</time>
      </trkpt>
      <trkpt lat="45.63834" lon="6.02279">
        <ele>1285.42</ele>
        <time>2020-10-25T08:27:27Z</time>
      </trkpt>
      <trkpt lat="45.63834" lon="6.02282">
        <ele>1285.9</ele>
        <time>2020-10-25T08:27:30Z</time>
      </trkpt>
      <trkpt lat="45.63837" lon="6.02292">
        <ele>1287.34</ele>
        <time>2020-10-25T08:27:41Z</time>
      </trkpt>
      <trkpt lat="45.63836" lon="6.02298">
        <ele>1289.27</ele>
        <time>2020-10-25T08:27:52Z</time>
      </trkpt>
      <trkpt lat="45.63837" lon="6.02303">
        <ele>1289.75</ele>
        <time>2020-10-25T08:28:05Z</time>
      </trkpt>
      <trkpt lat="45.63843" lon="6.02309">
        <ele>1292.15</ele>
        <time>2020-10-25T08:28:16Z</time>
      </trkpt>
      <trkpt lat="45.63844" lon="6.0231">
        <ele>1294.07</ele>
        <time>2020-10-25T08:28:28Z</time>
      </trkpt>
      <trkpt lat="45.63843" lon="6.02311">
        <ele>1296.48</ele>
        <time>2020-10-25T08:28:40Z</time>
      </trkpt>
      <trkpt lat="45.63843" lon="6.02312">
        <ele>1298.88</ele>
        <time>2020-10-25T08:28:54Z</time>
      </trkpt>
      <trkpt lat="45.63841" lon="6.02312">
        <ele>1299.84</ele>
        <time>2020-10-25T08:29:16Z</time>
      </trkpt>
      <trkpt lat="45.63841" lon="6.02312">
        <ele>1300.32</ele>
        <time>2020-10-25T08:29:23Z</time>
      </trkpt>
      <trkpt lat="45.6384" lon="6.02313">
        <ele>1303.2</ele>
        <time>2020-10-25T08:29:34Z</time>
      </trkpt>
      <trkpt lat="45.63839" lon="6.02314">
        <ele>1304.17</ele>
        <time>2020-10-25T08:29:39Z</time>
      </trkpt>
      <trkpt lat="45.63832" lon="6.02319">
        <ele>1306.09</ele>
        <time>2020-10-25T08:29:50Z</time>
      </trkpt>
      <trkpt lat="45.63826" lon="6.0232">
        <ele>1308.49</ele>
        <time>2020-10-25T08:30:03Z</time>
      </trkpt>
      <trkpt lat="45.63812" lon="6.02323">
        <ele>1310.9</ele>
        <time>2020-10-25T08:30:16Z</time>
      </trkpt>
      <trkpt lat="45.63796" lon="6.0233">
        <ele>1312.82</ele>
        <time>2020-10-25T08:30:26Z</time>
      </trkpt>
      <trkpt lat="45.63789" lon="6.02338">
        <ele>1315.22</ele>
        <time>2020-10-25T08:30:38Z</time>
      </trkpt>
      <trkpt lat="45.63785" lon="6.02342">
        <ele>1317.62</ele>
        <time>2020-10-25T08:30:51Z</time>
      </trkpt>
      <trkpt lat="45.63783" lon="6.02344">
        <ele>1319.55</ele>
        <time>2020-10-25T08:31:02Z</time>
      </trkpt>
      <trkpt lat="45.63778" lon="6.02346">
        <ele>1321.47</ele>
        <time>2020-10-25T08:31:13Z</time>
      </trkpt>
      <trkpt lat="45.63772" lon="6.02347">
        <ele>1323.87</ele>
        <time>2020-10-25T08:31:27Z</time>
      </trkpt>
      <trkpt lat="45.63772" lon="6.02355">
        <ele>1326.28</ele>
        <time>2020-10-25T08:31:43Z</time>
      </trkpt>
      <trkpt lat="45.63772" lon="6.02363">
        <ele>1328.68</ele>
        <time>2020-10-25T08:31:55Z</time>
      </trkpt>
      <trkpt lat="45.63768" lon="6.02376">
        <ele>1332.04</ele>
        <time>2020-10-25T08:32:10Z</time>
      </trkpt>
      <trkpt lat="45.63761" lon="6.02381">
        <ele>1333.97</ele>
        <time>2020-10-25T08:32:21Z</time>
      </trkpt>
      <trkpt lat="45.63764" lon="6.02387">
        <ele>1336.85</ele>
        <time>2020-10-25T08:32:33Z</time>
      </trkpt>
      <trkpt lat="45.63765" lon="6.02394">
        <ele>1338.77</ele>
        <time>2020-10-25T08:32:42Z</time>
      </trkpt>
      <trkpt lat="45.63766" lon="6.02406">
        <ele>1341.66</ele>
        <time>2020-10-25T08:32:57Z</time>
      </trkpt>
      <trkpt lat="45.6376" lon="6.02419">
        <ele>1344.54</ele>
        <time>2020-10-25T08:33:10Z</time>
      </trkpt>
      <trkpt lat="45.6376" lon="6.0242">
        <ele>1345.5</ele>
        <time>2020-10-25T08:33:13Z</time>
      </trkpt>
      <trkpt lat="45.63753" lon="6.02429">
        <ele>1347.43</ele>
        <time>2020-10-25T08:33:25Z</time>
      </trkpt>
      <trkpt lat="45.63752" lon="6.02431">
        <ele>1347.91</ele>
        <time>2020-10-25T08:33:28Z</time>
      </trkpt>
      <trkpt lat="45.63748" lon="6.02441">
        <ele>1349.35</ele>
        <time>2020-10-25T08:33:39Z</time>
      </trkpt>
      <trkpt lat="45.63743" lon="6.0245">
        <ele>1351.27</ele>
        <time>2020-10-25T08:33:49Z</time>
      </trkpt>
      <trkpt lat="45.63741" lon="6.02454">
        <ele>1351.75</ele>
        <time>2020-10-25T08:33:53Z</time>
      </trkpt>
      <trkpt lat="45.63737" lon="6.02456">
        <ele>1352.23</ele>
        <time>2020-10-25T08:33:57Z</time>
      </trkpt>
      <trkpt lat="45.63732" lon="6.02466">
        <ele>1353.67</ele>
        <time>2020-10-25T08:34:07Z</time>
      </trkpt>
      <trkpt lat="45.63734" lon="6.02468">
        <ele>1353.67</ele>
        <time>2020-10-25T08:34:23Z</time>
      </trkpt>
      <trkpt lat="45.63734" lon="6.0247">
        <ele>1354.15</ele>
        <time>2020-10-25T08:34:36Z</time>
      </trkpt>
      <trkpt lat="45.63733" lon="6.0247">
        <ele>1353.67</ele>
        <time>2020-10-25T08:34:52Z</time>
      </trkpt>
      <trkpt lat="45.63732" lon="6.02472">
        <ele>1352.23</ele>
        <time>2020-10-25T08:35:04Z</time>
      </trkpt>
      <trkpt lat="45.63732" lon="6.02471">
        <ele>1352.71</ele>
        <time>2020-10-25T08:35:24Z</time>
      </trkpt>
      <trkpt lat="45.63731" lon="6.02472">
        <ele>1353.19</ele>
        <time>2020-10-25T08:35:56Z</time>
      </trkpt>
      <trkpt lat="45.63731" lon="6.02472">
        <ele>1353.67</ele>
        <time>2020-10-25T08:36:03Z</time>
      </trkpt>
      <trkpt lat="45.63728" lon="6.02472">
        <ele>1354.15</ele>
        <time>2020-10-25T08:36:13Z</time>
      </trkpt>
      <trkpt lat="45.63727" lon="6.02472">
        <ele>1354.63</ele>
        <time>2020-10-25T08:36:24Z</time>
      </trkpt>
      <trkpt lat="45.63722" lon="6.02479">
        <ele>1355.12</ele>
        <time>2020-10-25T08:36:34Z</time>
      </trkpt>
      <trkpt lat="45.63721" lon="6.0248">
        <ele>1355.6</ele>
        <time>2020-10-25T08:36:35Z</time>
      </trkpt>
      <trkpt lat="45.63717" lon="6.02487">
        <ele>1356.08</ele>
        <time>2020-10-25T08:36:42Z</time>
      </trkpt>
      <trkpt lat="45.6371" lon="6.02502">
        <ele>1358</ele>
        <time>2020-10-25T08:36:53Z</time>
      </trkpt>
      <trkpt lat="45.63709" lon="6.02506">
        <ele>1358.96</ele>
        <time>2020-10-25T08:36:57Z</time>
      </trkpt>
      <trkpt lat="45.63708" lon="6.0251">
        <ele>1358.96</ele>
        <time>2020-10-25T08:36:59Z</time>
      </trkpt>
      <trkpt lat="45.63704" lon="6.02525">
        <ele>1360.4</ele>
        <time>2020-10-25T08:37:09Z</time>
      </trkpt>
      <trkpt lat="45.637" lon="6.02533">
        <ele>1360.4</ele>
        <time>2020-10-25T08:37:14Z</time>
      </trkpt>
      <trkpt lat="45.63698" lon="6.02536">
        <ele>1360.88</ele>
        <time>2020-10-25T08:37:16Z</time>
      </trkpt>
      <trkpt lat="45.63697" lon="6.02539">
        <ele>1360.88</ele>
        <time>2020-10-25T08:37:18Z</time>
      </trkpt>
      <trkpt lat="45.63699" lon="6.02563">
        <ele>1361.36</ele>
        <time>2020-10-25T08:37:33Z</time>
      </trkpt>
      <trkpt lat="45.63702" lon="6.02576">
        <ele>1360.88</ele>
        <time>2020-10-25T08:37:42Z</time>
      </trkpt>
      <trkpt lat="45.63705" lon="6.02581">
        <ele>1360.88</ele>
        <time>2020-10-25T08:37:47Z</time>
      </trkpt>
      <trkpt lat="45.63707" lon="6.02583">
        <ele>1360.88</ele>
        <time>2020-10-25T08:37:53Z</time>
      </trkpt>
      <trkpt lat="45.6371" lon="6.02583">
        <ele>1360.4</ele>
        <time>2020-10-25T08:37:56Z</time>
      </trkpt>
      <trkpt lat="45.63712" lon="6.02584">
        <ele>1360.4</ele>
        <time>2020-10-25T08:37:58Z</time>
      </trkpt>
      <trkpt lat="45.63719" lon="6.02585">
        <ele>1360.4</ele>
        <time>2020-10-25T08:38:06Z</time>
      </trkpt>
      <trkpt lat="45.63728" lon="6.02587">
        <ele>1359.92</ele>
        <time>2020-10-25T08:38:16Z</time>
      </trkpt>
      <trkpt lat="45.63738" lon="6.02589">
        <ele>1359.92</ele>
        <time>2020-10-25T08:38:28Z</time>
      </trkpt>
      <trkpt lat="45.63739" lon="6.0259">
        <ele>1359.92</ele>
        <time>2020-10-25T08:38:31Z</time>
      </trkpt>
      <trkpt lat="45.63743" lon="6.02593">
        <ele>1360.4</ele>
        <time>2020-10-25T08:38:34Z</time>
      </trkpt>
      <trkpt lat="45.63746" lon="6.02594">
        <ele>1360.4</ele>
        <time>2020-10-25T08:38:38Z</time>
      </trkpt>
      <trkpt lat="45.63753" lon="6.02599">
        <ele>1360.4</ele>
        <time>2020-10-25T08:38:45Z</time>
      </trkpt>
      <trkpt lat="45.63761" lon="6.02601">
        <ele>1360.4</ele>
        <time>2020-10-25T08:38:52Z</time>
      </trkpt>
      <trkpt lat="45.63765" lon="6.02602">
        <ele>1359.92</ele>
        <time>2020-10-25T08:38:56Z</time>
      </trkpt>
      <trkpt lat="45.63772" lon="6.0261">
        <ele>1360.4</ele>
        <time>2020-10-25T08:39:05Z</time>
      </trkpt>
      <trkpt lat="45.63776" lon="6.02612">
        <ele>1359.92</ele>
        <time>2020-10-25T08:39:09Z</time>
      </trkpt>
      <trkpt lat="45.63781" lon="6.02612">
        <ele>1359.92</ele>
        <time>2020-10-25T08:39:27Z</time>
      </trkpt>
      <trkpt lat="45.63781" lon="6.02613">
        <ele>1360.88</ele>
        <time>2020-10-25T08:39:53Z</time>
      </trkpt>
      <trkpt lat="45.63781" lon="6.02613">
        <ele>1360.4</ele>
        <time>2020-10-25T08:40:06Z</time>
      </trkpt>
      <trkpt lat="45.63775" lon="6.02609">
        <ele>1360.88</ele>
        <time>2020-10-25T08:40:15Z</time>
      </trkpt>
      <trkpt lat="45.63768" lon="6.02603">
        <ele>1361.36</ele>
        <time>2020-10-25T08:40:24Z</time>
      </trkpt>
      <trkpt lat="45.63762" lon="6.026">
        <ele>1361.36</ele>
        <time>2020-10-25T08:40:31Z</time>
      </trkpt>
      <trkpt lat="45.63753" lon="6.02596">
        <ele>1361.36</ele>
        <time>2020-10-25T08:40:41Z</time>
      </trkpt>
      <trkpt lat="45.6374" lon="6.02592">
        <ele>1360.88</ele>
        <time>2020-10-25T08:40:54Z</time>
      </trkpt>
      <trkpt lat="45.63736" lon="6.02589">
        <ele>1360.88</ele>
        <time>2020-10-25T08:40:59Z</time>
      </trkpt>
      <trkpt lat="45.63722" lon="6.02591">
        <ele>1361.84</ele>
        <time>2020-10-25T08:41:11Z</time>
      </trkpt>
      <trkpt lat="45.63718" lon="6.02591">
        <ele>1361.84</ele>
        <time>2020-10-25T08:41:16Z</time>
      </trkpt>
      <trkpt lat="45.63702" lon="6.02587">
        <ele>1361.84</ele>
        <time>2020-10-25T08:41:29Z</time>
      </trkpt>
      <trkpt lat="45.63697" lon="6.02587">
        <ele>1362.33</ele>
        <time>2020-10-25T08:41:35Z</time>
      </trkpt>
      <trkpt lat="45.63688" lon="6.02589">
        <ele>1364.25</ele>
        <time>2020-10-25T08:41:45Z</time>
      </trkpt>
      <trkpt lat="45.63685" lon="6.02594">
        <ele>1364.73</ele>
        <time>2020-10-25T08:41:51Z</time>
      </trkpt>
      <trkpt lat="45.63682" lon="6.02595">
        <ele>1364.73</ele>
        <time>2020-10-25T08:41:54Z</time>
      </trkpt>
      <trkpt lat="45.63677" lon="6.02597">
        <ele>1365.21</ele>
        <time>2020-10-25T08:41:59Z</time>
      </trkpt>
      <trkpt lat="45.63668" lon="6.02596">
        <ele>1366.65</ele>
        <time>2020-10-25T08:42:08Z</time>
      </trkpt>
      <trkpt lat="45.63667" lon="6.02598">
        <ele>1366.17</ele>
        <time>2020-10-25T08:42:10Z</time>
      </trkpt>
      <trkpt lat="45.63663" lon="6.02605">
        <ele>1366.17</ele>
        <time>2020-10-25T08:42:15Z</time>
      </trkpt>
      <trkpt lat="45.63661" lon="6.02609">
        <ele>1366.65</ele>
        <time>2020-10-25T08:42:19Z</time>
      </trkpt>
      <trkpt lat="45.63657" lon="6.02621">
        <ele>1367.13</ele>
        <time>2020-10-25T08:42:28Z</time>
      </trkpt>
      <trkpt lat="45.63656" lon="6.02623">
        <ele>1367.13</ele>
        <time>2020-10-25T08:42:30Z</time>
      </trkpt>
      <trkpt lat="45.63651" lon="6.02634">
        <ele>1368.09</ele>
        <time>2020-10-25T08:42:40Z</time>
      </trkpt>
      <trkpt lat="45.63648" lon="6.02641">
        <ele>1369.05</ele>
        <time>2020-10-25T08:42:48Z</time>
      </trkpt>
      <trkpt lat="45.63643" lon="6.02649">
        <ele>1370.02</ele>
        <time>2020-10-25T08:42:58Z</time>
      </trkpt>
      <trkpt lat="45.63641" lon="6.02662">
        <ele>1370.98</ele>
        <time>2020-10-25T08:43:10Z</time>
      </trkpt>
      <trkpt lat="45.63637" lon="6.02675">
        <ele>1372.9</ele>
        <time>2020-10-25T08:43:21Z</time>
      </trkpt>
      <trkpt lat="45.63636" lon="6.02694">
        <ele>1375.78</ele>
        <time>2020-10-25T08:43:36Z</time>
      </trkpt>
      <trkpt lat="45.63635" lon="6.02696">
        <ele>1376.75</ele>
        <time>2020-10-25T08:43:46Z</time>
      </trkpt>
      <trkpt lat="45.63634" lon="6.02696">
        <ele>1375.3</ele>
        <time>2020-10-25T08:44:04Z</time>
      </trkpt>
      <trkpt lat="45.63634" lon="6.02695">
        <ele>1375.78</ele>
        <time>2020-10-25T08:44:32Z</time>
      </trkpt>
      <trkpt lat="45.63634" lon="6.02694">
        <ele>1375.78</ele>
        <time>2020-10-25T08:45:06Z</time>
      </trkpt>
      <trkpt lat="45.63635" lon="6.02694">
        <ele>1375.78</ele>
        <time>2020-10-25T08:45:41Z</time>
      </trkpt>
      <trkpt lat="45.63634" lon="6.02694">
        <ele>1375.78</ele>
        <time>2020-10-25T08:46:10Z</time>
      </trkpt>
      <trkpt lat="45.63635" lon="6.02695">
        <ele>1375.78</ele>
        <time>2020-10-25T08:46:39Z</time>
      </trkpt>
      <trkpt lat="45.63635" lon="6.02695">
        <ele>1377.23</ele>
        <time>2020-10-25T08:47:01Z</time>
      </trkpt>
      <trkpt lat="45.63634" lon="6.02697">
        <ele>1378.19</ele>
        <time>2020-10-25T08:47:22Z</time>
      </trkpt>
      <trkpt lat="45.63634" lon="6.02702">
        <ele>1381.07</ele>
        <time>2020-10-25T08:47:40Z</time>
      </trkpt>
      <trkpt lat="45.63635" lon="6.02704">
        <ele>1380.59</ele>
        <time>2020-10-25T08:48:07Z</time>
      </trkpt>
      <trkpt lat="45.63633" lon="6.02712">
        <ele>1380.59</ele>
        <time>2020-10-25T08:48:36Z</time>
      </trkpt>
      <trkpt lat="45.63633" lon="6.02713">
        <ele>1381.55</ele>
        <time>2020-10-25T08:48:56Z</time>
      </trkpt>
      <trkpt lat="45.63632" lon="6.02716">
        <ele>1383.47</ele>
        <time>2020-10-25T08:49:17Z</time>
      </trkpt>
      <trkpt lat="45.63622" lon="6.02722">
        <ele>1385.88</ele>
        <time>2020-10-25T08:49:33Z</time>
      </trkpt>
      <trkpt lat="45.63619" lon="6.0273">
        <ele>1387.8</ele>
        <time>2020-10-25T08:49:48Z</time>
      </trkpt>
      <trkpt lat="45.6362" lon="6.02741">
        <ele>1390.68</ele>
        <time>2020-10-25T08:50:04Z</time>
      </trkpt>
      <trkpt lat="45.63624" lon="6.02746">
        <ele>1393.57</ele>
        <time>2020-10-25T08:50:19Z</time>
      </trkpt>
      <trkpt lat="45.63626" lon="6.02751">
        <ele>1395.97</ele>
        <time>2020-10-25T08:50:31Z</time>
      </trkpt>
      <trkpt lat="45.63625" lon="6.02757">
        <ele>1398.37</ele>
        <time>2020-10-25T08:50:44Z</time>
      </trkpt>
      <trkpt lat="45.63627" lon="6.02766">
        <ele>1400.78</ele>
        <time>2020-10-25T08:50:57Z</time>
      </trkpt>
      <trkpt lat="45.63628" lon="6.02771">
        <ele>1402.7</ele>
        <time>2020-10-25T08:51:08Z</time>
      </trkpt>
      <trkpt lat="45.63632" lon="6.02782">
        <ele>1405.58</ele>
        <time>2020-10-25T08:51:21Z</time>
      </trkpt>
      <trkpt lat="45.63633" lon="6.02792">
        <ele>1408.47</ele>
        <time>2020-10-25T08:51:37Z</time>
      </trkpt>
      <trkpt lat="45.6363" lon="6.02799">
        <ele>1410.87</ele>
        <time>2020-10-25T08:51:52Z</time>
      </trkpt>
      <trkpt lat="45.63627" lon="6.02803">
        <ele>1413.76</ele>
        <time>2020-10-25T08:52:06Z</time>
      </trkpt>
      <trkpt lat="45.63621" lon="6.02812">
        <ele>1415.2</ele>
        <time>2020-10-25T08:52:14Z</time>
      </trkpt>
      <trkpt lat="45.63612" lon="6.02817">
        <ele>1417.6</ele>
        <time>2020-10-25T08:52:27Z</time>
      </trkpt>
      <trkpt lat="45.63606" lon="6.0282">
        <ele>1420.49</ele>
        <time>2020-10-25T08:52:40Z</time>
      </trkpt>
      <trkpt lat="45.63602" lon="6.02827">
        <ele>1422.89</ele>
        <time>2020-10-25T08:52:54Z</time>
      </trkpt>
      <trkpt lat="45.636" lon="6.0283">
        <ele>1424.81</ele>
        <time>2020-10-25T08:53:08Z</time>
      </trkpt>
      <trkpt lat="45.63601" lon="6.02833">
        <ele>1427.21</ele>
        <time>2020-10-25T08:53:22Z</time>
      </trkpt>
      <trkpt lat="45.63597" lon="6.02836">
        <ele>1429.14</ele>
        <time>2020-10-25T08:53:37Z</time>
      </trkpt>
      <trkpt lat="45.63591" lon="6.0284">
        <ele>1432.02</ele>
        <time>2020-10-25T08:53:49Z</time>
      </trkpt>
      <trkpt lat="45.63588" lon="6.02846">
        <ele>1433.94</ele>
        <time>2020-10-25T08:54:03Z</time>
      </trkpt>
      <trkpt lat="45.63582" lon="6.02855">
        <ele>1436.83</ele>
        <time>2020-10-25T08:54:17Z</time>
      </trkpt>
      <trkpt lat="45.63583" lon="6.02856">
        <ele>1439.71</ele>
        <time>2020-10-25T08:54:31Z</time>
      </trkpt>
      <trkpt lat="45.63585" lon="6.02859">
        <ele>1442.11</ele>
        <time>2020-10-25T08:54:44Z</time>
      </trkpt>
      <trkpt lat="45.63584" lon="6.02866">
        <ele>1444.04</ele>
        <time>2020-10-25T08:54:58Z</time>
      </trkpt>
      <trkpt lat="45.63579" lon="6.02874">
        <ele>1446.92</ele>
        <time>2020-10-25T08:55:12Z</time>
      </trkpt>
      <trkpt lat="45.63575" lon="6.02878">
        <ele>1448.84</ele>
        <time>2020-10-25T08:55:26Z</time>
      </trkpt>
      <trkpt lat="45.63569" lon="6.02883">
        <ele>1452.21</ele>
        <time>2020-10-25T08:55:41Z</time>
      </trkpt>
      <trkpt lat="45.63561" lon="6.02886">
        <ele>1454.13</ele>
        <time>2020-10-25T08:55:54Z</time>
      </trkpt>
      <trkpt lat="45.63557" lon="6.02889">
        <ele>1456.53</ele>
        <time>2020-10-25T08:56:08Z</time>
      </trkpt>
      <trkpt lat="45.63555" lon="6.0289">
        <ele>1458.94</ele>
        <time>2020-10-25T08:56:20Z</time>
      </trkpt>
      <trkpt lat="45.63557" lon="6.02893">
        <ele>1460.38</ele>
        <time>2020-10-25T08:56:33Z</time>
      </trkpt>
      <trkpt lat="45.63558" lon="6.02897">
        <ele>1463.26</ele>
        <time>2020-10-25T08:56:46Z</time>
      </trkpt>
      <trkpt lat="45.63564" lon="6.02909">
        <ele>1466.15</ele>
        <time>2020-10-25T08:57:00Z</time>
      </trkpt>
      <trkpt lat="45.63566" lon="6.02915">
        <ele>1468.55</ele>
        <time>2020-10-25T08:57:15Z</time>
      </trkpt>
      <trkpt lat="45.63571" lon="6.02924">
        <ele>1470.95</ele>
        <time>2020-10-25T08:57:27Z</time>
      </trkpt>
      <trkpt lat="45.6357" lon="6.02932">
        <ele>1472.88</ele>
        <time>2020-10-25T08:57:40Z</time>
      </trkpt>
      <trkpt lat="45.63567" lon="6.02937">
        <ele>1475.28</ele>
        <time>2020-10-25T08:57:52Z</time>
      </trkpt>
      <trkpt lat="45.63563" lon="6.02944">
        <ele>1477.2</ele>
        <time>2020-10-25T08:58:01Z</time>
      </trkpt>
      <trkpt lat="45.63562" lon="6.02946">
        <ele>1477.68</ele>
        <time>2020-10-25T08:58:03Z</time>
      </trkpt>
      <trkpt lat="45.63563" lon="6.02955">
        <ele>1479.61</ele>
        <time>2020-10-25T08:58:15Z</time>
      </trkpt>
      <trkpt lat="45.63563" lon="6.02959">
        <ele>1480.57</ele>
        <time>2020-10-25T08:58:25Z</time>
      </trkpt>
      <trkpt lat="45.63562" lon="6.02969">
        <ele>1482.97</ele>
        <time>2020-10-25T08:58:37Z</time>
      </trkpt>
      <trkpt lat="45.63561" lon="6.02981">
        <ele>1484.89</ele>
        <time>2020-10-25T08:58:50Z</time>
      </trkpt>
      <trkpt lat="45.63559" lon="6.02985">
        <ele>1487.3</ele>
        <time>2020-10-25T08:59:05Z</time>
      </trkpt>
      <trkpt lat="45.63557" lon="6.02989">
        <ele>1489.22</ele>
        <time>2020-10-25T08:59:17Z</time>
      </trkpt>
      <trkpt lat="45.63555" lon="6.02992">
        <ele>1491.14</ele>
        <time>2020-10-25T08:59:30Z</time>
      </trkpt>
      <trkpt lat="45.6355" lon="6.02996">
        <ele>1493.06</ele>
        <time>2020-10-25T08:59:41Z</time>
      </trkpt>
      <trkpt lat="45.63546" lon="6.02998">
        <ele>1494.51</ele>
        <time>2020-10-25T08:59:52Z</time>
      </trkpt>
      <trkpt lat="45.63547" lon="6.02999">
        <ele>1495.95</ele>
        <time>2020-10-25T09:00:03Z</time>
      </trkpt>
      <trkpt lat="45.63547" lon="6.03001">
        <ele>1497.87</ele>
        <time>2020-10-25T09:00:13Z</time>
      </trkpt>
      <trkpt lat="45.6355" lon="6.02999">
        <ele>1500.76</ele>
        <time>2020-10-25T09:00:25Z</time>
      </trkpt>
      <trkpt lat="45.63552" lon="6.03002">
        <ele>1501.72</ele>
        <time>2020-10-25T09:00:31Z</time>
      </trkpt>
      <trkpt lat="45.63554" lon="6.03007">
        <ele>1503.16</ele>
        <time>2020-10-25T09:00:43Z</time>
      </trkpt>
      <trkpt lat="45.63553" lon="6.03013">
        <ele>1505.08</ele>
        <time>2020-10-25T09:00:54Z</time>
      </trkpt>
      <trkpt lat="45.63553" lon="6.03014">
        <ele>1504.6</ele>
        <time>2020-10-25T09:00:59Z</time>
      </trkpt>
      <trkpt lat="45.63553" lon="6.0302">
        <ele>1505.56</ele>
        <time>2020-10-25T09:01:04Z</time>
      </trkpt>
      <trkpt lat="45.63549" lon="6.03023">
        <ele>1507.97</ele>
        <time>2020-10-25T09:01:14Z</time>
      </trkpt>
      <trkpt lat="45.63547" lon="6.03026">
        <ele>1509.41</ele>
        <time>2020-10-25T09:01:24Z</time>
      </trkpt>
      <trkpt lat="45.63547" lon="6.03027">
        <ele>1512.29</ele>
        <time>2020-10-25T09:01:38Z</time>
      </trkpt>
      <trkpt lat="45.63547" lon="6.03027">
        <ele>1513.73</ele>
        <time>2020-10-25T09:01:44Z</time>
      </trkpt>
      <trkpt lat="45.63546" lon="6.03033">
        <ele>1515.66</ele>
        <time>2020-10-25T09:01:55Z</time>
      </trkpt>
      <trkpt lat="45.63542" lon="6.03034">
        <ele>1517.58</ele>
        <time>2020-10-25T09:02:07Z</time>
      </trkpt>
      <trkpt lat="45.63541" lon="6.03036">
        <ele>1519.02</ele>
        <time>2020-10-25T09:02:21Z</time>
      </trkpt>
      <trkpt lat="45.6354" lon="6.03039">
        <ele>1522.39</ele>
        <time>2020-10-25T09:02:31Z</time>
      </trkpt>
      <trkpt lat="45.6354" lon="6.03045">
        <ele>1523.83</ele>
        <time>2020-10-25T09:02:42Z</time>
      </trkpt>
      <trkpt lat="45.6354" lon="6.03049">
        <ele>1525.27</ele>
        <time>2020-10-25T09:02:52Z</time>
      </trkpt>
      <trkpt lat="45.63543" lon="6.03054">
        <ele>1527.19</ele>
        <time>2020-10-25T09:03:03Z</time>
      </trkpt>
      <trkpt lat="45.63547" lon="6.03054">
        <ele>1528.63</ele>
        <time>2020-10-25T09:03:15Z</time>
      </trkpt>
      <trkpt lat="45.63551" lon="6.03059">
        <ele>1530.56</ele>
        <time>2020-10-25T09:03:27Z</time>
      </trkpt>
      <trkpt lat="45.63553" lon="6.03063">
        <ele>1532</ele>
        <time>2020-10-25T09:03:39Z</time>
      </trkpt>
      <trkpt lat="45.63557" lon="6.03067">
        <ele>1534.88</ele>
        <time>2020-10-25T09:03:56Z</time>
      </trkpt>
      <trkpt lat="45.6356" lon="6.03069">
        <ele>1537.77</ele>
        <time>2020-10-25T09:04:07Z</time>
      </trkpt>
      <trkpt lat="45.63567" lon="6.0307">
        <ele>1539.21</ele>
        <time>2020-10-25T09:04:20Z</time>
      </trkpt>
      <trkpt lat="45.63571" lon="6.03075">
        <ele>1541.61</ele>
        <time>2020-10-25T09:04:33Z</time>
      </trkpt>
      <trkpt lat="45.63574" lon="6.03075">
        <ele>1542.57</ele>
        <time>2020-10-25T09:04:41Z</time>
      </trkpt>
      <trkpt lat="45.63579" lon="6.03081">
        <ele>1544.01</ele>
        <time>2020-10-25T09:04:51Z</time>
      </trkpt>
      <trkpt lat="45.63585" lon="6.03084">
        <ele>1544.5</ele>
        <time>2020-10-25T09:05:04Z</time>
      </trkpt>
      <trkpt lat="45.63588" lon="6.03085">
        <ele>1545.46</ele>
        <time>2020-10-25T09:05:16Z</time>
      </trkpt>
      <trkpt lat="45.63593" lon="6.03089">
        <ele>1546.9</ele>
        <time>2020-10-25T09:05:27Z</time>
      </trkpt>
      <trkpt lat="45.63599" lon="6.03095">
        <ele>1549.78</ele>
        <time>2020-10-25T09:05:41Z</time>
      </trkpt>
      <trkpt lat="45.63605" lon="6.03099">
        <ele>1550.26</ele>
        <time>2020-10-25T09:05:48Z</time>
      </trkpt>
      <trkpt lat="45.63611" lon="6.03106">
        <ele>1552.19</ele>
        <time>2020-10-25T09:06:00Z</time>
      </trkpt>
      <trkpt lat="45.63615" lon="6.0311">
        <ele>1553.63</ele>
        <time>2020-10-25T09:06:11Z</time>
      </trkpt>
      <trkpt lat="45.63619" lon="6.03113">
        <ele>1555.55</ele>
        <time>2020-10-25T09:06:24Z</time>
      </trkpt>
      <trkpt lat="45.63623" lon="6.03116">
        <ele>1556.99</ele>
        <time>2020-10-25T09:06:34Z</time>
      </trkpt>
      <trkpt lat="45.63626" lon="6.03118">
        <ele>1559.4</ele>
        <time>2020-10-25T09:06:47Z</time>
      </trkpt>
      <trkpt lat="45.63628" lon="6.03126">
        <ele>1561.32</ele>
        <time>2020-10-25T09:06:57Z</time>
      </trkpt>
      <trkpt lat="45.63629" lon="6.03131">
        <ele>1561.8</ele>
        <time>2020-10-25T09:07:09Z</time>
      </trkpt>
      <trkpt lat="45.63629" lon="6.03131">
        <ele>1562.28</ele>
        <time>2020-10-25T09:07:10Z</time>
      </trkpt>
      <trkpt lat="45.63629" lon="6.03134">
        <ele>1562.76</ele>
        <time>2020-10-25T09:07:12Z</time>
      </trkpt>
      <trkpt lat="45.63628" lon="6.03142">
        <ele>1565.64</ele>
        <time>2020-10-25T09:07:24Z</time>
      </trkpt>
      <trkpt lat="45.63629" lon="6.03142">
        <ele>1566.61</ele>
        <time>2020-10-25T09:07:34Z</time>
      </trkpt>
      <trkpt lat="45.63632" lon="6.03146">
        <ele>1569.01</ele>
        <time>2020-10-25T09:07:46Z</time>
      </trkpt>
      <trkpt lat="45.63633" lon="6.03147">
        <ele>1570.93</ele>
        <time>2020-10-25T09:07:56Z</time>
      </trkpt>
      <trkpt lat="45.63637" lon="6.03146">
        <ele>1573.82</ele>
        <time>2020-10-25T09:08:08Z</time>
      </trkpt>
      <trkpt lat="45.63642" lon="6.03151">
        <ele>1576.22</ele>
        <time>2020-10-25T09:08:19Z</time>
      </trkpt>
      <trkpt lat="45.63639" lon="6.03157">
        <ele>1577.66</ele>
        <time>2020-10-25T09:08:30Z</time>
      </trkpt>
      <trkpt lat="45.63636" lon="6.03163">
        <ele>1578.62</ele>
        <time>2020-10-25T09:08:42Z</time>
      </trkpt>
      <trkpt lat="45.63634" lon="6.0317">
        <ele>1581.03</ele>
        <time>2020-10-25T09:08:57Z</time>
      </trkpt>
      <trkpt lat="45.63636" lon="6.03171">
        <ele>1583.43</ele>
        <time>2020-10-25T09:09:09Z</time>
      </trkpt>
      <trkpt lat="45.63635" lon="6.03175">
        <ele>1584.87</ele>
        <time>2020-10-25T09:09:19Z</time>
      </trkpt>
      <trkpt lat="45.63636" lon="6.03178">
        <ele>1584.39</ele>
        <time>2020-10-25T09:09:38Z</time>
      </trkpt>
      <trkpt lat="45.63637" lon="6.03176">
        <ele>1584.87</ele>
        <time>2020-10-25T09:09:47Z</time>
      </trkpt>
      <trkpt lat="45.63635" lon="6.03174">
        <ele>1584.87</ele>
        <time>2020-10-25T09:10:10Z</time>
      </trkpt>
      <trkpt lat="45.63639" lon="6.03177">
        <ele>1587.27</ele>
        <time>2020-10-25T09:10:20Z</time>
      </trkpt>
      <trkpt lat="45.6364" lon="6.03183">
        <ele>1588.72</ele>
        <time>2020-10-25T09:10:33Z</time>
      </trkpt>
      <trkpt lat="45.63641" lon="6.03189">
        <ele>1590.16</ele>
        <time>2020-10-25T09:10:41Z</time>
      </trkpt>
      <trkpt lat="45.63643" lon="6.0319">
        <ele>1593.52</ele>
        <time>2020-10-25T09:10:53Z</time>
      </trkpt>
      <trkpt lat="45.63645" lon="6.03197">
        <ele>1595.93</ele>
        <time>2020-10-25T09:11:05Z</time>
      </trkpt>
      <trkpt lat="45.63645" lon="6.03203">
        <ele>1596.89</ele>
        <time>2020-10-25T09:11:11Z</time>
      </trkpt>
      <trkpt lat="45.63648" lon="6.03207">
        <ele>1599.29</ele>
        <time>2020-10-25T09:11:22Z</time>
      </trkpt>
      <trkpt lat="45.63649" lon="6.03211">
        <ele>1602.17</ele>
        <time>2020-10-25T09:11:33Z</time>
      </trkpt>
      <trkpt lat="45.63652" lon="6.03214">
        <ele>1604.58</ele>
        <time>2020-10-25T09:11:43Z</time>
      </trkpt>
      <trkpt lat="45.63651" lon="6.03222">
        <ele>1606.02</ele>
        <time>2020-10-25T09:11:54Z</time>
      </trkpt>
      <trkpt lat="45.63653" lon="6.03223">
        <ele>1606.98</ele>
        <time>2020-10-25T09:11:59Z</time>
      </trkpt>
      <trkpt lat="45.63658" lon="6.03225">
        <ele>1609.86</ele>
        <time>2020-10-25T09:12:10Z</time>
      </trkpt>
      <trkpt lat="45.63658" lon="6.0323">
        <ele>1611.31</ele>
        <time>2020-10-25T09:12:20Z</time>
      </trkpt>
      <trkpt lat="45.63653" lon="6.03235">
        <ele>1614.19</ele>
        <time>2020-10-25T09:12:30Z</time>
      </trkpt>
      <trkpt lat="45.63653" lon="6.03235">
        <ele>1614.19</ele>
        <time>2020-10-25T09:12:31Z</time>
      </trkpt>
      <trkpt lat="45.63653" lon="6.03238">
        <ele>1615.63</ele>
        <time>2020-10-25T09:12:40Z</time>
      </trkpt>
      <trkpt lat="45.63654" lon="6.03239">
        <ele>1617.07</ele>
        <time>2020-10-25T09:12:44Z</time>
      </trkpt>
      <trkpt lat="45.63651" lon="6.03245">
        <ele>1619</ele>
        <time>2020-10-25T09:12:53Z</time>
      </trkpt>
      <trkpt lat="45.63653" lon="6.03247">
        <ele>1620.92</ele>
        <time>2020-10-25T09:13:03Z</time>
      </trkpt>
      <trkpt lat="45.63655" lon="6.0325">
        <ele>1622.36</ele>
        <time>2020-10-25T09:13:07Z</time>
      </trkpt>
      <trkpt lat="45.63654" lon="6.03255">
        <ele>1624.77</ele>
        <time>2020-10-25T09:13:17Z</time>
      </trkpt>
      <trkpt lat="45.63656" lon="6.03257">
        <ele>1625.73</ele>
        <time>2020-10-25T09:13:21Z</time>
      </trkpt>
      <trkpt lat="45.63659" lon="6.0326">
        <ele>1628.13</ele>
        <time>2020-10-25T09:13:34Z</time>
      </trkpt>
      <trkpt lat="45.63659" lon="6.0326">
        <ele>1629.09</ele>
        <time>2020-10-25T09:13:39Z</time>
      </trkpt>
      <trkpt lat="45.6366" lon="6.03261">
        <ele>1625.73</ele>
        <time>2020-10-25T09:13:47Z</time>
      </trkpt>
      <trkpt lat="45.6366" lon="6.03262">
        <ele>1624.28</ele>
        <time>2020-10-25T09:14:08Z</time>
      </trkpt>
      <trkpt lat="45.63659" lon="6.03261">
        <ele>1625.25</ele>
        <time>2020-10-25T09:14:32Z</time>
      </trkpt>
      <trkpt lat="45.63658" lon="6.03261">
        <ele>1627.17</ele>
        <time>2020-10-25T09:14:41Z</time>
      </trkpt>
      <trkpt lat="45.63659" lon="6.0326">
        <ele>1627.17</ele>
        <time>2020-10-25T09:14:53Z</time>
      </trkpt>
      <trkpt lat="45.6366" lon="6.03265">
        <ele>1629.09</ele>
        <time>2020-10-25T09:15:04Z</time>
      </trkpt>
      <trkpt lat="45.63664" lon="6.03268">
        <ele>1631.01</ele>
        <time>2020-10-25T09:15:13Z</time>
      </trkpt>
      <trkpt lat="45.63667" lon="6.03276">
        <ele>1633.42</ele>
        <time>2020-10-25T09:15:23Z</time>
      </trkpt>
      <trkpt lat="45.63666" lon="6.03279">
        <ele>1634.38</ele>
        <time>2020-10-25T09:15:32Z</time>
      </trkpt>
      <trkpt lat="45.63668" lon="6.0328">
        <ele>1636.78</ele>
        <time>2020-10-25T09:15:41Z</time>
      </trkpt>
      <trkpt lat="45.63672" lon="6.03282">
        <ele>1639.67</ele>
        <time>2020-10-25T09:15:51Z</time>
      </trkpt>
      <trkpt lat="45.63675" lon="6.03286">
        <ele>1642.55</ele>
        <time>2020-10-25T09:16:04Z</time>
      </trkpt>
      <trkpt lat="45.63673" lon="6.03296">
        <ele>1644.95</ele>
        <time>2020-10-25T09:16:16Z</time>
      </trkpt>
      <trkpt lat="45.63675" lon="6.03298">
        <ele>1645.91</ele>
        <time>2020-10-25T09:16:26Z</time>
      </trkpt>
      <trkpt lat="45.63679" lon="6.03302">
        <ele>1648.8</ele>
        <time>2020-10-25T09:16:35Z</time>
      </trkpt>
      <trkpt lat="45.63683" lon="6.03306">
        <ele>1650.72</ele>
        <time>2020-10-25T09:16:47Z</time>
      </trkpt>
      <trkpt lat="45.63683" lon="6.03312">
        <ele>1653.12</ele>
        <time>2020-10-25T09:16:59Z</time>
      </trkpt>
      <trkpt lat="45.63685" lon="6.03314">
        <ele>1655.05</ele>
        <time>2020-10-25T09:17:07Z</time>
      </trkpt>
      <trkpt lat="45.63684" lon="6.03316">
        <ele>1657.93</ele>
        <time>2020-10-25T09:17:15Z</time>
      </trkpt>
      <trkpt lat="45.63686" lon="6.03323">
        <ele>1657.45</ele>
        <time>2020-10-25T09:17:26Z</time>
      </trkpt>
      <trkpt lat="45.63691" lon="6.03328">
        <ele>1660.33</ele>
        <time>2020-10-25T09:17:36Z</time>
      </trkpt>
      <trkpt lat="45.63687" lon="6.03331">
        <ele>1663.22</ele>
        <time>2020-10-25T09:17:47Z</time>
      </trkpt>
      <trkpt lat="45.63689" lon="6.03335">
        <ele>1664.66</ele>
        <time>2020-10-25T09:17:56Z</time>
      </trkpt>
      <trkpt lat="45.63689" lon="6.0334">
        <ele>1667.54</ele>
        <time>2020-10-25T09:18:06Z</time>
      </trkpt>
      <trkpt lat="45.63689" lon="6.0334">
        <ele>1668.02</ele>
        <time>2020-10-25T09:18:07Z</time>
      </trkpt>
      <trkpt lat="45.63689" lon="6.03343">
        <ele>1668.51</ele>
        <time>2020-10-25T09:18:14Z</time>
      </trkpt>
      <trkpt lat="45.6369" lon="6.03348">
        <ele>1668.51</ele>
        <time>2020-10-25T09:18:25Z</time>
      </trkpt>
      <trkpt lat="45.63691" lon="6.03349">
        <ele>1671.87</ele>
        <time>2020-10-25T09:18:30Z</time>
      </trkpt>
      <trkpt lat="45.63693" lon="6.03349">
        <ele>1672.83</ele>
        <time>2020-10-25T09:18:34Z</time>
      </trkpt>
      <trkpt lat="45.63695" lon="6.03351">
        <ele>1674.75</ele>
        <time>2020-10-25T09:18:40Z</time>
      </trkpt>
      <trkpt lat="45.63695" lon="6.03357">
        <ele>1675.23</ele>
        <time>2020-10-25T09:18:51Z</time>
      </trkpt>
      <trkpt lat="45.63697" lon="6.03359">
        <ele>1678.6</ele>
        <time>2020-10-25T09:19:02Z</time>
      </trkpt>
      <trkpt lat="45.63697" lon="6.0336">
        <ele>1678.6</ele>
        <time>2020-10-25T09:19:03Z</time>
      </trkpt>
      <trkpt lat="45.637" lon="6.03363">
        <ele>1681.48</ele>
        <time>2020-10-25T09:19:16Z</time>
      </trkpt>
      <trkpt lat="45.63702" lon="6.03365">
        <ele>1683.89</ele>
        <time>2020-10-25T09:19:22Z</time>
      </trkpt>
      <trkpt lat="45.63701" lon="6.03365">
        <ele>1683.41</ele>
        <time>2020-10-25T09:19:27Z</time>
      </trkpt>
      <trkpt lat="45.63704" lon="6.03373">
        <ele>1685.33</ele>
        <time>2020-10-25T09:19:39Z</time>
      </trkpt>
      <trkpt lat="45.63705" lon="6.03378">
        <ele>1686.77</ele>
        <time>2020-10-25T09:19:48Z</time>
      </trkpt>
      <trkpt lat="45.63704" lon="6.0338">
        <ele>1686.29</ele>
        <time>2020-10-25T09:19:50Z</time>
      </trkpt>
      <trkpt lat="45.63704" lon="6.03383">
        <ele>1687.25</ele>
        <time>2020-10-25T09:19:54Z</time>
      </trkpt>
      <trkpt lat="45.63703" lon="6.03386">
        <ele>1687.25</ele>
        <time>2020-10-25T09:20:02Z</time>
      </trkpt>
      <trkpt lat="45.63702" lon="6.03391">
        <ele>1688.69</ele>
        <time>2020-10-25T09:20:13Z</time>
      </trkpt>
      <trkpt lat="45.63704" lon="6.0339">
        <ele>1691.58</ele>
        <time>2020-10-25T09:20:22Z</time>
      </trkpt>
      <trkpt lat="45.63704" lon="6.03393">
        <ele>1692.06</ele>
        <time>2020-10-25T09:20:34Z</time>
      </trkpt>
      <trkpt lat="45.63704" lon="6.03397">
        <ele>1692.54</ele>
        <time>2020-10-25T09:20:44Z</time>
      </trkpt>
      <trkpt lat="45.63707" lon="6.03398">
        <ele>1696.38</ele>
        <time>2020-10-25T09:20:49Z</time>
      </trkpt>
      <trkpt lat="45.63707" lon="6.03398">
        <ele>1695.9</ele>
        <time>2020-10-25T09:20:50Z</time>
      </trkpt>
      <trkpt lat="45.6371" lon="6.03402">
        <ele>1700.23</ele>
        <time>2020-10-25T09:21:02Z</time>
      </trkpt>
      <trkpt lat="45.6371" lon="6.03403">
        <ele>1700.23</ele>
        <time>2020-10-25T09:21:03Z</time>
      </trkpt>
      <trkpt lat="45.63712" lon="6.03408">
        <ele>1701.19</ele>
        <time>2020-10-25T09:21:13Z</time>
      </trkpt>
      <trkpt lat="45.63713" lon="6.0341">
        <ele>1703.11</ele>
        <time>2020-10-25T09:21:25Z</time>
      </trkpt>
      <trkpt lat="45.63714" lon="6.03414">
        <ele>1703.59</ele>
        <time>2020-10-25T09:21:36Z</time>
      </trkpt>
      <trkpt lat="45.63715" lon="6.03416">
        <ele>1705.52</ele>
        <time>2020-10-25T09:21:49Z</time>
      </trkpt>
      <trkpt lat="45.63715" lon="6.03416">
        <ele>1704.07</ele>
        <time>2020-10-25T09:21:52Z</time>
      </trkpt>
      <trkpt lat="45.63716" lon="6.03417">
        <ele>1705.52</ele>
        <time>2020-10-25T09:22:09Z</time>
      </trkpt>
      <trkpt lat="45.63716" lon="6.03421">
        <ele>1707.92</ele>
        <time>2020-10-25T09:22:21Z</time>
      </trkpt>
      <trkpt lat="45.63717" lon="6.03421">
        <ele>1707.92</ele>
        <time>2020-10-25T09:22:22Z</time>
      </trkpt>
      <trkpt lat="45.63717" lon="6.03426">
        <ele>1709.36</ele>
        <time>2020-10-25T09:22:33Z</time>
      </trkpt>
      <trkpt lat="45.63717" lon="6.03423">
        <ele>1708.88</ele>
        <time>2020-10-25T09:22:50Z</time>
      </trkpt>
      <trkpt lat="45.63717" lon="6.03424">
        <ele>1709.84</ele>
        <time>2020-10-25T09:23:14Z</time>
      </trkpt>
      <trkpt lat="45.63717" lon="6.03424">
        <ele>1709.36</ele>
        <time>2020-10-25T09:23:39Z</time>
      </trkpt>
      <trkpt lat="45.63717" lon="6.03425">
        <ele>1710.32</ele>
        <time>2020-10-25T09:23:41Z</time>
      </trkpt>
      <trkpt lat="45.63717" lon="6.03425">
        <ele>1708.88</ele>
        <time>2020-10-25T09:23:48Z</time>
      </trkpt>
      <trkpt lat="45.63717" lon="6.03426">
        <ele>1710.32</ele>
        <time>2020-10-25T09:24:12Z</time>
      </trkpt>
      <trkpt lat="45.63718" lon="6.03426">
        <ele>1707.92</ele>
        <time>2020-10-25T09:24:26Z</time>
      </trkpt>
      <trkpt lat="45.63718" lon="6.03426">
        <ele>1709.36</ele>
        <time>2020-10-25T09:24:28Z</time>
      </trkpt>
      <trkpt lat="45.63718" lon="6.03428">
        <ele>1709.36</ele>
        <time>2020-10-25T09:24:46Z</time>
      </trkpt>
      <trkpt lat="45.63719" lon="6.03426">
        <ele>1710.32</ele>
        <time>2020-10-25T09:25:05Z</time>
      </trkpt>
      <trkpt lat="45.63719" lon="6.03434">
        <ele>1710.32</ele>
        <time>2020-10-25T09:25:16Z</time>
      </trkpt>
      <trkpt lat="45.63721" lon="6.03437">
        <ele>1712.73</ele>
        <time>2020-10-25T09:25:22Z</time>
      </trkpt>
      <trkpt lat="45.63724" lon="6.0344">
        <ele>1715.13</ele>
        <time>2020-10-25T09:25:31Z</time>
      </trkpt>
      <trkpt lat="45.63725" lon="6.03443">
        <ele>1717.05</ele>
        <time>2020-10-25T09:25:41Z</time>
      </trkpt>
      <trkpt lat="45.63728" lon="6.03446">
        <ele>1718.49</ele>
        <time>2020-10-25T09:25:49Z</time>
      </trkpt>
      <trkpt lat="45.63727" lon="6.03446">
        <ele>1719.46</ele>
        <time>2020-10-25T09:25:51Z</time>
      </trkpt>
      <trkpt lat="45.63729" lon="6.03448">
        <ele>1721.38</ele>
        <time>2020-10-25T09:26:03Z</time>
      </trkpt>
      <trkpt lat="45.63729" lon="6.0345">
        <ele>1722.82</ele>
        <time>2020-10-25T09:26:06Z</time>
      </trkpt>
      <trkpt lat="45.6373" lon="6.03449">
        <ele>1723.78</ele>
        <time>2020-10-25T09:26:10Z</time>
      </trkpt>
      <trkpt lat="45.63732" lon="6.03452">
        <ele>1724.26</ele>
        <time>2020-10-25T09:26:20Z</time>
      </trkpt>
      <trkpt lat="45.63732" lon="6.03455">
        <ele>1725.22</ele>
        <time>2020-10-25T09:26:30Z</time>
      </trkpt>
      <trkpt lat="45.63729" lon="6.0346">
        <ele>1727.63</ele>
        <time>2020-10-25T09:26:41Z</time>
      </trkpt>
      <trkpt lat="45.63732" lon="6.03463">
        <ele>1728.59</ele>
        <time>2020-10-25T09:26:52Z</time>
      </trkpt>
      <trkpt lat="45.63734" lon="6.03465">
        <ele>1729.55</ele>
        <time>2020-10-25T09:26:57Z</time>
      </trkpt>
      <trkpt lat="45.63734" lon="6.03468">
        <ele>1730.99</ele>
        <time>2020-10-25T09:27:09Z</time>
      </trkpt>
      <trkpt lat="45.63735" lon="6.03469">
        <ele>1733.39</ele>
        <time>2020-10-25T09:27:22Z</time>
      </trkpt>
      <trkpt lat="45.63735" lon="6.03471">
        <ele>1732.91</ele>
        <time>2020-10-25T09:27:37Z</time>
      </trkpt>
      <trkpt lat="45.63735" lon="6.03471">
        <ele>1732.91</ele>
        <time>2020-10-25T09:27:39Z</time>
      </trkpt>
      <trkpt lat="45.63737" lon="6.03475">
        <ele>1734.84</ele>
        <time>2020-10-25T09:27:50Z</time>
      </trkpt>
      <trkpt lat="45.63737" lon="6.03477">
        <ele>1736.76</ele>
        <time>2020-10-25T09:27:59Z</time>
      </trkpt>
      <trkpt lat="45.63738" lon="6.03479">
        <ele>1738.68</ele>
        <time>2020-10-25T09:28:09Z</time>
      </trkpt>
      <trkpt lat="45.63738" lon="6.03482">
        <ele>1739.16</ele>
        <time>2020-10-25T09:28:19Z</time>
      </trkpt>
      <trkpt lat="45.6374" lon="6.03485">
        <ele>1741.08</ele>
        <time>2020-10-25T09:28:30Z</time>
      </trkpt>
      <trkpt lat="45.63741" lon="6.03488">
        <ele>1743.01</ele>
        <time>2020-10-25T09:28:40Z</time>
      </trkpt>
      <trkpt lat="45.63743" lon="6.03492">
        <ele>1745.41</ele>
        <time>2020-10-25T09:28:50Z</time>
      </trkpt>
      <trkpt lat="45.63746" lon="6.03499">
        <ele>1746.85</ele>
        <time>2020-10-25T09:29:00Z</time>
      </trkpt>
      <trkpt lat="45.63748" lon="6.03506">
        <ele>1748.29</ele>
        <time>2020-10-25T09:29:15Z</time>
      </trkpt>
      <trkpt lat="45.63752" lon="6.0351">
        <ele>1749.74</ele>
        <time>2020-10-25T09:29:27Z</time>
      </trkpt>
      <trkpt lat="45.63753" lon="6.03513">
        <ele>1750.7</ele>
        <time>2020-10-25T09:29:36Z</time>
      </trkpt>
      <trkpt lat="45.63756" lon="6.03515">
        <ele>1753.1</ele>
        <time>2020-10-25T09:29:45Z</time>
      </trkpt>
      <trkpt lat="45.63756" lon="6.03517">
        <ele>1754.54</ele>
        <time>2020-10-25T09:30:01Z</time>
      </trkpt>
      <trkpt lat="45.63756" lon="6.03518">
        <ele>1754.54</ele>
        <time>2020-10-25T09:30:14Z</time>
      </trkpt>
      <trkpt lat="45.63755" lon="6.03519">
        <ele>1754.54</ele>
        <time>2020-10-25T09:30:31Z</time>
      </trkpt>
      <trkpt lat="45.63755" lon="6.0352">
        <ele>1755.5</ele>
        <time>2020-10-25T09:30:39Z</time>
      </trkpt>
      <trkpt lat="45.63758" lon="6.03524">
        <ele>1755.99</ele>
        <time>2020-10-25T09:30:51Z</time>
      </trkpt>
      <trkpt lat="45.63757" lon="6.03527">
        <ele>1756.95</ele>
        <time>2020-10-25T09:31:03Z</time>
      </trkpt>
      <trkpt lat="45.63758" lon="6.0353">
        <ele>1757.43</ele>
        <time>2020-10-25T09:31:19Z</time>
      </trkpt>
      <trkpt lat="45.63756" lon="6.03531">
        <ele>1757.43</ele>
        <time>2020-10-25T09:31:24Z</time>
      </trkpt>
      <trkpt lat="45.63752" lon="6.03528">
        <ele>1758.87</ele>
        <time>2020-10-25T09:31:36Z</time>
      </trkpt>
      <trkpt lat="45.6375" lon="6.03532">
        <ele>1760.79</ele>
        <time>2020-10-25T09:31:48Z</time>
      </trkpt>
      <trkpt lat="45.63747" lon="6.03535">
        <ele>1762.71</ele>
        <time>2020-10-25T09:31:57Z</time>
      </trkpt>
      <trkpt lat="45.63743" lon="6.03537">
        <ele>1764.64</ele>
        <time>2020-10-25T09:32:09Z</time>
      </trkpt>
      <trkpt lat="45.6374" lon="6.0354">
        <ele>1766.08</ele>
        <time>2020-10-25T09:32:21Z</time>
      </trkpt>
      <trkpt lat="45.63737" lon="6.03539">
        <ele>1765.6</ele>
        <time>2020-10-25T09:32:43Z</time>
      </trkpt>
      <trkpt lat="45.63737" lon="6.03539">
        <ele>1765.12</ele>
        <time>2020-10-25T09:32:55Z</time>
      </trkpt>
      <trkpt lat="45.63739" lon="6.03543">
        <ele>1766.56</ele>
        <time>2020-10-25T09:33:05Z</time>
      </trkpt>
      <trkpt lat="45.63738" lon="6.03546">
        <ele>1768</ele>
        <time>2020-10-25T09:33:15Z</time>
      </trkpt>
      <trkpt lat="45.63737" lon="6.03547">
        <ele>1768.96</ele>
        <time>2020-10-25T09:33:25Z</time>
      </trkpt>
      <trkpt lat="45.63734" lon="6.03548">
        <ele>1770.89</ele>
        <time>2020-10-25T09:33:35Z</time>
      </trkpt>
      <trkpt lat="45.63735" lon="6.03551">
        <ele>1772.33</ele>
        <time>2020-10-25T09:33:45Z</time>
      </trkpt>
      <trkpt lat="45.63732" lon="6.03552">
        <ele>1772.81</ele>
        <time>2020-10-25T09:33:59Z</time>
      </trkpt>
      <trkpt lat="45.63732" lon="6.03553">
        <ele>1772.81</ele>
        <time>2020-10-25T09:34:14Z</time>
      </trkpt>
      <trkpt lat="45.63732" lon="6.03553">
        <ele>1772.81</ele>
        <time>2020-10-25T09:34:20Z</time>
      </trkpt>
      <trkpt lat="45.63734" lon="6.03555">
        <ele>1772.33</ele>
        <time>2020-10-25T09:34:26Z</time>
      </trkpt>
      <trkpt lat="45.6373" lon="6.03555">
        <ele>1771.37</ele>
        <time>2020-10-25T09:34:40Z</time>
      </trkpt>
      <trkpt lat="45.6373" lon="6.03555">
        <ele>1771.37</ele>
        <time>2020-10-25T09:34:41Z</time>
      </trkpt>
      <trkpt lat="45.63733" lon="6.03556">
        <ele>1773.29</ele>
        <time>2020-10-25T09:34:48Z</time>
      </trkpt>
      <trkpt lat="45.6373" lon="6.03555">
        <ele>1772.81</ele>
        <time>2020-10-25T09:35:03Z</time>
      </trkpt>
      <trkpt lat="45.63731" lon="6.03556">
        <ele>1774.25</ele>
        <time>2020-10-25T09:35:13Z</time>
      </trkpt>
      <trkpt lat="45.63731" lon="6.03556">
        <ele>1774.73</ele>
        <time>2020-10-25T09:35:15Z</time>
      </trkpt>
      <trkpt lat="45.63733" lon="6.03558">
        <ele>1776.17</ele>
        <time>2020-10-25T09:35:18Z</time>
      </trkpt>
      <trkpt lat="45.63734" lon="6.03559">
        <ele>1776.65</ele>
        <time>2020-10-25T09:35:20Z</time>
      </trkpt>
      <trkpt lat="45.63738" lon="6.03562">
        <ele>1779.54</ele>
        <time>2020-10-25T09:35:31Z</time>
      </trkpt>
      <trkpt lat="45.6374" lon="6.03566">
        <ele>1781.46</ele>
        <time>2020-10-25T09:35:40Z</time>
      </trkpt>
      <trkpt lat="45.6374" lon="6.0357">
        <ele>1782.9</ele>
        <time>2020-10-25T09:35:48Z</time>
      </trkpt>
      <trkpt lat="45.63736" lon="6.0357">
        <ele>1784.34</ele>
        <time>2020-10-25T09:35:57Z</time>
      </trkpt>
      <trkpt lat="45.63738" lon="6.03569">
        <ele>1784.34</ele>
        <time>2020-10-25T09:36:00Z</time>
      </trkpt>
      <trkpt lat="45.63737" lon="6.03568">
        <ele>1783.86</ele>
        <time>2020-10-25T09:36:11Z</time>
      </trkpt>
      <trkpt lat="45.63736" lon="6.03569">
        <ele>1782.9</ele>
        <time>2020-10-25T09:36:22Z</time>
      </trkpt>
      <trkpt lat="45.63735" lon="6.03569">
        <ele>1782.9</ele>
        <time>2020-10-25T09:36:44Z</time>
      </trkpt>
      <trkpt lat="45.63732" lon="6.03569">
        <ele>1783.86</ele>
        <time>2020-10-25T09:36:52Z</time>
      </trkpt>
      <trkpt lat="45.63726" lon="6.03571">
        <ele>1783.86</ele>
        <time>2020-10-25T09:37:01Z</time>
      </trkpt>
      <trkpt lat="45.63725" lon="6.03569">
        <ele>1782.9</ele>
        <time>2020-10-25T09:37:04Z</time>
      </trkpt>
      <trkpt lat="45.63725" lon="6.03571">
        <ele>1783.86</ele>
        <time>2020-10-25T09:37:11Z</time>
      </trkpt>
      <trkpt lat="45.63725" lon="6.03572">
        <ele>1785.31</ele>
        <time>2020-10-25T09:37:16Z</time>
      </trkpt>
      <trkpt lat="45.63724" lon="6.03573">
        <ele>1786.75</ele>
        <time>2020-10-25T09:37:27Z</time>
      </trkpt>
      <trkpt lat="45.63723" lon="6.03574">
        <ele>1787.23</ele>
        <time>2020-10-25T09:37:31Z</time>
      </trkpt>
      <trkpt lat="45.63724" lon="6.03581">
        <ele>1790.11</ele>
        <time>2020-10-25T09:37:44Z</time>
      </trkpt>
      <trkpt lat="45.63724" lon="6.03582">
        <ele>1792.03</ele>
        <time>2020-10-25T09:37:56Z</time>
      </trkpt>
      <trkpt lat="45.63724" lon="6.03581">
        <ele>1792.03</ele>
        <time>2020-10-25T09:38:13Z</time>
      </trkpt>
      <trkpt lat="45.63725" lon="6.03582">
        <ele>1791.55</ele>
        <time>2020-10-25T09:38:18Z</time>
      </trkpt>
      <trkpt lat="45.63728" lon="6.03585">
        <ele>1793</ele>
        <time>2020-10-25T09:38:25Z</time>
      </trkpt>
      <trkpt lat="45.6373" lon="6.03586">
        <ele>1793.96</ele>
        <time>2020-10-25T09:38:37Z</time>
      </trkpt>
      <trkpt lat="45.63724" lon="6.03581">
        <ele>1795.88</ele>
        <time>2020-10-25T09:38:49Z</time>
      </trkpt>
      <trkpt lat="45.63724" lon="6.03581">
        <ele>1796.36</ele>
        <time>2020-10-25T09:38:52Z</time>
      </trkpt>
      <trkpt lat="45.63723" lon="6.03581">
        <ele>1796.36</ele>
        <time>2020-10-25T09:38:54Z</time>
      </trkpt>
      <trkpt lat="45.63719" lon="6.03579">
        <ele>1799.73</ele>
        <time>2020-10-25T09:39:06Z</time>
      </trkpt>
      <trkpt lat="45.63723" lon="6.03583">
        <ele>1799.24</ele>
        <time>2020-10-25T09:39:23Z</time>
      </trkpt>
      <trkpt lat="45.63723" lon="6.03583">
        <ele>1800.21</ele>
        <time>2020-10-25T09:39:41Z</time>
      </trkpt>
      <trkpt lat="45.63722" lon="6.03584">
        <ele>1802.13</ele>
        <time>2020-10-25T09:40:02Z</time>
      </trkpt>
      <trkpt lat="45.63724" lon="6.03587">
        <ele>1803.57</ele>
        <time>2020-10-25T09:40:18Z</time>
      </trkpt>
      <trkpt lat="45.63725" lon="6.03591">
        <ele>1802.61</ele>
        <time>2020-10-25T09:40:36Z</time>
      </trkpt>
      <trkpt lat="45.63728" lon="6.03592">
        <ele>1803.09</ele>
        <time>2020-10-25T09:40:56Z</time>
      </trkpt>
      <trkpt lat="45.6373" lon="6.03594">
        <ele>1805.01</ele>
        <time>2020-10-25T09:41:17Z</time>
      </trkpt>
      <trkpt lat="45.63727" lon="6.03594">
        <ele>1805.01</ele>
        <time>2020-10-25T09:41:22Z</time>
      </trkpt>
      <trkpt lat="45.63726" lon="6.03609">
        <ele>1806.94</ele>
        <time>2020-10-25T09:41:41Z</time>
      </trkpt>
      <trkpt lat="45.63734" lon="6.03618">
        <ele>1806.94</ele>
        <time>2020-10-25T09:41:47Z</time>
      </trkpt>
      <trkpt lat="45.63735" lon="6.03635">
        <ele>1808.38</ele>
        <time>2020-10-25T09:41:58Z</time>
      </trkpt>
      <trkpt lat="45.63732" lon="6.03598">
        <ele>1809.34</ele>
        <time>2020-10-25T09:42:18Z</time>
      </trkpt>
      <trkpt lat="45.63731" lon="6.03597">
        <ele>1807.42</ele>
        <time>2020-10-25T09:42:22Z</time>
      </trkpt>
      <trkpt lat="45.6373" lon="6.0359">
        <ele>1804.53</ele>
        <time>2020-10-25T09:42:33Z</time>
      </trkpt>
      <trkpt lat="45.63734" lon="6.03577">
        <ele>1803.57</ele>
        <time>2020-10-25T09:42:54Z</time>
      </trkpt>
      <trkpt lat="45.63729" lon="6.0357">
        <ele>1802.13</ele>
        <time>2020-10-25T09:43:06Z</time>
      </trkpt>
      <trkpt lat="45.63726" lon="6.03539">
        <ele>1800.21</ele>
        <time>2020-10-25T09:43:25Z</time>
      </trkpt>
      <trkpt lat="45.63724" lon="6.03542">
        <ele>1800.69</ele>
        <time>2020-10-25T09:43:44Z</time>
      </trkpt>
      <trkpt lat="45.63726" lon="6.03539">
        <ele>1800.21</ele>
        <time>2020-10-25T09:43:57Z</time>
      </trkpt>
      <trkpt lat="45.6372" lon="6.03559">
        <ele>1801.65</ele>
        <time>2020-10-25T09:47:37Z</time>
      </trkpt>
      <trkpt lat="45.63718" lon="6.03561">
        <ele>1801.65</ele>
        <time>2020-10-25T09:47:39Z</time>
      </trkpt>
      <trkpt lat="45.63716" lon="6.03555">
        <ele>1803.09</ele>
        <time>2020-10-25T09:47:54Z</time>
      </trkpt>
      <trkpt lat="45.63718" lon="6.03547">
        <ele>1804.53</ele>
        <time>2020-10-25T09:48:09Z</time>
      </trkpt>
      <trkpt lat="45.63716" lon="6.03548">
        <ele>1806.45</ele>
        <time>2020-10-25T09:48:27Z</time>
      </trkpt>
      <trkpt lat="45.63712" lon="6.03549">
        <ele>1808.38</ele>
        <time>2020-10-25T09:48:47Z</time>
      </trkpt>
      <trkpt lat="45.63711" lon="6.03547">
        <ele>1808.86</ele>
        <time>2020-10-25T09:48:51Z</time>
      </trkpt>
      <trkpt lat="45.63707" lon="6.03545">
        <ele>1810.78</ele>
        <time>2020-10-25T09:49:01Z</time>
      </trkpt>
      <trkpt lat="45.63699" lon="6.03549">
        <ele>1813.66</ele>
        <time>2020-10-25T09:49:13Z</time>
      </trkpt>
      <trkpt lat="45.63698" lon="6.03551">
        <ele>1815.11</ele>
        <time>2020-10-25T09:49:26Z</time>
      </trkpt>
      <trkpt lat="45.63698" lon="6.0355">
        <ele>1815.59</ele>
        <time>2020-10-25T09:49:31Z</time>
      </trkpt>
      <trkpt lat="45.63699" lon="6.03549">
        <ele>1815.59</ele>
        <time>2020-10-25T09:49:44Z</time>
      </trkpt>
      <trkpt lat="45.63699" lon="6.0355">
        <ele>1815.59</ele>
        <time>2020-10-25T09:49:52Z</time>
      </trkpt>
      <trkpt lat="45.63698" lon="6.03545">
        <ele>1815.59</ele>
        <time>2020-10-25T09:49:58Z</time>
      </trkpt>
      <trkpt lat="45.63699" lon="6.03544">
        <ele>1816.55</ele>
        <time>2020-10-25T09:50:12Z</time>
      </trkpt>
      <trkpt lat="45.63699" lon="6.03545">
        <ele>1816.07</ele>
        <time>2020-10-25T09:50:24Z</time>
      </trkpt>
      <trkpt lat="45.63699" lon="6.03544">
        <ele>1815.59</ele>
        <time>2020-10-25T09:50:38Z</time>
      </trkpt>
      <trkpt lat="45.63699" lon="6.03543">
        <ele>1815.59</ele>
        <time>2020-10-25T09:50:44Z</time>
      </trkpt>
      <trkpt lat="45.63698" lon="6.03546">
        <ele>1815.59</ele>
        <time>2020-10-25T09:50:54Z</time>
      </trkpt>
      <trkpt lat="45.63698" lon="6.03546">
        <ele>1815.59</ele>
        <time>2020-10-25T09:50:57Z</time>
      </trkpt>
      <trkpt lat="45.63699" lon="6.03543">
        <ele>1817.03</ele>
        <time>2020-10-25T09:51:11Z</time>
      </trkpt>
      <trkpt lat="45.63698" lon="6.03541">
        <ele>1818.47</ele>
        <time>2020-10-25T09:51:15Z</time>
      </trkpt>
      <trkpt lat="45.63701" lon="6.03537">
        <ele>1818.47</ele>
        <time>2020-10-25T09:51:26Z</time>
      </trkpt>
      <trkpt lat="45.63705" lon="6.03538">
        <ele>1822.32</ele>
        <time>2020-10-25T09:51:35Z</time>
      </trkpt>
      <trkpt lat="45.63707" lon="6.03538">
        <ele>1822.8</ele>
        <time>2020-10-25T09:51:37Z</time>
      </trkpt>
      <trkpt lat="45.6371" lon="6.03535">
        <ele>1823.76</ele>
        <time>2020-10-25T09:51:48Z</time>
      </trkpt>
      <trkpt lat="45.6371" lon="6.03532">
        <ele>1825.68</ele>
        <time>2020-10-25T09:51:51Z</time>
      </trkpt>
      <trkpt lat="45.63713" lon="6.03529">
        <ele>1831.45</ele>
        <time>2020-10-25T09:52:01Z</time>
      </trkpt>
      <trkpt lat="45.63713" lon="6.03529">
        <ele>1831.45</ele>
        <time>2020-10-25T09:52:02Z</time>
      </trkpt>
      <trkpt lat="45.63713" lon="6.03531">
        <ele>1828.08</ele>
        <time>2020-10-25T09:52:09Z</time>
      </trkpt>
      <trkpt lat="45.63714" lon="6.03532">
        <ele>1830.97</ele>
        <time>2020-10-25T09:52:21Z</time>
      </trkpt>
      <trkpt lat="45.63723" lon="6.03539">
        <ele>1830.01</ele>
        <time>2020-10-25T09:52:32Z</time>
      </trkpt>
      <trkpt lat="45.63726" lon="6.0354">
        <ele>1829.53</ele>
        <time>2020-10-25T09:52:42Z</time>
      </trkpt>
      <trkpt lat="45.63729" lon="6.0354">
        <ele>1829.05</ele>
        <time>2020-10-25T09:52:53Z</time>
      </trkpt>
      <trkpt lat="45.63729" lon="6.0354">
        <ele>1828.56</ele>
        <time>2020-10-25T09:53:18Z</time>
      </trkpt>
      <trkpt lat="45.63729" lon="6.0354">
        <ele>1827.6</ele>
        <time>2020-10-25T09:53:43Z</time>
      </trkpt>
      <trkpt lat="45.63729" lon="6.0354">
        <ele>1829.05</ele>
        <time>2020-10-25T09:54:13Z</time>
      </trkpt>
      <trkpt lat="45.6373" lon="6.0354">
        <ele>1830.49</ele>
        <time>2020-10-25T09:54:30Z</time>
      </trkpt>
      <trkpt lat="45.63729" lon="6.03539">
        <ele>1830.01</ele>
        <time>2020-10-25T09:54:46Z</time>
      </trkpt>
      <trkpt lat="45.63728" lon="6.0354">
        <ele>1831.45</ele>
        <time>2020-10-25T09:54:57Z</time>
      </trkpt>
      <trkpt lat="45.63728" lon="6.0354">
        <ele>1829.05</ele>
        <time>2020-10-25T09:55:00Z</time>
      </trkpt>
      <trkpt lat="45.63722" lon="6.0354">
        <ele>1829.53</ele>
        <time>2020-10-25T09:55:08Z</time>
      </trkpt>
      <trkpt lat="45.63721" lon="6.03542">
        <ele>1830.01</ele>
        <time>2020-10-25T09:55:20Z</time>
      </trkpt>
      <trkpt lat="45.63721" lon="6.03543">
        <ele>1828.08</ele>
        <time>2020-10-25T09:55:24Z</time>
      </trkpt>
      <trkpt lat="45.6372" lon="6.03543">
        <ele>1828.56</ele>
        <time>2020-10-25T09:55:48Z</time>
      </trkpt>
      <trkpt lat="45.6372" lon="6.03543">
        <ele>1830.01</ele>
        <time>2020-10-25T09:56:06Z</time>
      </trkpt>
      <trkpt lat="45.6372" lon="6.03543">
        <ele>1829.53</ele>
        <time>2020-10-25T09:56:25Z</time>
      </trkpt>
      <trkpt lat="45.6372" lon="6.03537">
        <ele>1830.97</ele>
        <time>2020-10-25T09:56:32Z</time>
      </trkpt>
      <trkpt lat="45.63721" lon="6.03538">
        <ele>1832.41</ele>
        <time>2020-10-25T09:56:44Z</time>
      </trkpt>
      <trkpt lat="45.63721" lon="6.03538">
        <ele>1830.97</ele>
        <time>2020-10-25T09:56:47Z</time>
      </trkpt>
      <trkpt lat="45.63721" lon="6.03538">
        <ele>1830.49</ele>
        <time>2020-10-25T09:57:08Z</time>
      </trkpt>
      <trkpt lat="45.63721" lon="6.03538">
        <ele>1830.97</ele>
        <time>2020-10-25T09:57:29Z</time>
      </trkpt>
      <trkpt lat="45.63721" lon="6.03538">
        <ele>1831.45</ele>
        <time>2020-10-25T09:57:49Z</time>
      </trkpt>
      <trkpt lat="45.63722" lon="6.03539">
        <ele>1831.45</ele>
        <time>2020-10-25T09:58:14Z</time>
      </trkpt>
      <trkpt lat="45.63722" lon="6.03539">
        <ele>1829.53</ele>
        <time>2020-10-25T09:58:27Z</time>
      </trkpt>
      <trkpt lat="45.63722" lon="6.03539">
        <ele>1832.89</ele>
        <time>2020-10-25T09:58:34Z</time>
      </trkpt>
      <trkpt lat="45.63722" lon="6.03539">
        <ele>1831.45</ele>
        <time>2020-10-25T09:58:55Z</time>
      </trkpt>
      <trkpt lat="45.63722" lon="6.03539">
        <ele>1826.64</ele>
        <time>2020-10-25T09:59:08Z</time>
      </trkpt>
      <trkpt lat="45.63722" lon="6.03539">
        <ele>1834.81</ele>
        <time>2020-10-25T09:59:09Z</time>
      </trkpt>
      <trkpt lat="45.63722" lon="6.03539">
        <ele>1831.45</ele>
        <time>2020-10-25T09:59:10Z</time>
      </trkpt>
      <trkpt lat="45.63722" lon="6.03538">
        <ele>1828.56</ele>
        <time>2020-10-25T09:59:18Z</time>
      </trkpt>
      <trkpt lat="45.63722" lon="6.03538">
        <ele>1828.56</ele>
        <time>2020-10-25T09:59:32Z</time>
      </trkpt>
      <trkpt lat="45.63718" lon="6.03536">
        <ele>1829.53</ele>
        <time>2020-10-25T09:59:37Z</time>
      </trkpt>
      <trkpt lat="45.63718" lon="6.03536">
        <ele>1832.41</ele>
        <time>2020-10-25T09:59:38Z</time>
      </trkpt>
      <trkpt lat="45.63717" lon="6.03537">
        <ele>1828.56</ele>
        <time>2020-10-25T09:59:45Z</time>
      </trkpt>
      <trkpt lat="45.63717" lon="6.03537">
        <ele>1831.93</ele>
        <time>2020-10-25T09:59:49Z</time>
      </trkpt>
      <trkpt lat="45.63717" lon="6.03537">
        <ele>1831.93</ele>
        <time>2020-10-25T09:59:52Z</time>
      </trkpt>
      <trkpt lat="45.63716" lon="6.03542">
        <ele>1828.56</ele>
        <time>2020-10-25T09:59:58Z</time>
      </trkpt>
      <trkpt lat="45.63715" lon="6.03542">
        <ele>1825.2</ele>
        <time>2020-10-25T09:59:59Z</time>
      </trkpt>
      <trkpt lat="45.63715" lon="6.03542">
        <ele>1825.2</ele>
        <time>2020-10-25T10:00:00Z</time>
      </trkpt>
      <trkpt lat="45.63714" lon="6.03541">
        <ele>1826.64</ele>
        <time>2020-10-25T10:00:02Z</time>
      </trkpt>
      <trkpt lat="45.63709" lon="6.0354">
        <ele>1823.76</ele>
        <time>2020-10-25T10:00:12Z</time>
      </trkpt>
      <trkpt lat="45.63708" lon="6.03541">
        <ele>1823.28</ele>
        <time>2020-10-25T10:00:15Z</time>
      </trkpt>
      <trkpt lat="45.63703" lon="6.03542">
        <ele>1822.32</ele>
        <time>2020-10-25T10:00:26Z</time>
      </trkpt>
      <trkpt lat="45.63702" lon="6.03541">
        <ele>1820.39</ele>
        <time>2020-10-25T10:00:37Z</time>
      </trkpt>
      <trkpt lat="45.63699" lon="6.03543">
        <ele>1820.39</ele>
        <time>2020-10-25T10:00:44Z</time>
      </trkpt>
      <trkpt lat="45.63699" lon="6.03547">
        <ele>1819.43</ele>
        <time>2020-10-25T10:00:48Z</time>
      </trkpt>
      <trkpt lat="45.63698" lon="6.03549">
        <ele>1818.95</ele>
        <time>2020-10-25T10:00:59Z</time>
      </trkpt>
      <trkpt lat="45.63698" lon="6.0355">
        <ele>1817.99</ele>
        <time>2020-10-25T10:01:15Z</time>
      </trkpt>
      <trkpt lat="45.63697" lon="6.03551">
        <ele>1817.51</ele>
        <time>2020-10-25T10:01:27Z</time>
      </trkpt>
      <trkpt lat="45.63696" lon="6.03551">
        <ele>1817.51</ele>
        <time>2020-10-25T10:01:46Z</time>
      </trkpt>
      <trkpt lat="45.63696" lon="6.03551">
        <ele>1815.59</ele>
        <time>2020-10-25T10:01:59Z</time>
      </trkpt>
      <trkpt lat="45.63695" lon="6.03556">
        <ele>1814.63</ele>
        <time>2020-10-25T10:02:11Z</time>
      </trkpt>
      <trkpt lat="45.63695" lon="6.03558">
        <ele>1813.18</ele>
        <time>2020-10-25T10:02:22Z</time>
      </trkpt>
      <trkpt lat="45.63695" lon="6.03559">
        <ele>1812.7</ele>
        <time>2020-10-25T10:02:43Z</time>
      </trkpt>
      <trkpt lat="45.63696" lon="6.03561">
        <ele>1811.26</ele>
        <time>2020-10-25T10:02:54Z</time>
      </trkpt>
      <trkpt lat="45.63702" lon="6.03566">
        <ele>1812.7</ele>
        <time>2020-10-25T10:03:04Z</time>
      </trkpt>
      <trkpt lat="45.637" lon="6.03569">
        <ele>1813.66</ele>
        <time>2020-10-25T10:03:11Z</time>
      </trkpt>
      <trkpt lat="45.63696" lon="6.03575">
        <ele>1813.66</ele>
        <time>2020-10-25T10:03:18Z</time>
      </trkpt>
      <trkpt lat="45.63691" lon="6.03573">
        <ele>1813.18</ele>
        <time>2020-10-25T10:03:30Z</time>
      </trkpt>
      <trkpt lat="45.63684" lon="6.03569">
        <ele>1811.74</ele>
        <time>2020-10-25T10:03:42Z</time>
      </trkpt>
      <trkpt lat="45.63684" lon="6.03569">
        <ele>1811.74</ele>
        <time>2020-10-25T10:04:02Z</time>
      </trkpt>
      <trkpt lat="45.63684" lon="6.03568">
        <ele>1811.74</ele>
        <time>2020-10-25T10:04:13Z</time>
      </trkpt>
      <trkpt lat="45.6368" lon="6.03569">
        <ele>1811.26</ele>
        <time>2020-10-25T10:04:23Z</time>
      </trkpt>
      <trkpt lat="45.6368" lon="6.03569">
        <ele>1810.3</ele>
        <time>2020-10-25T10:04:33Z</time>
      </trkpt>
      <trkpt lat="45.6368" lon="6.0357">
        <ele>1809.82</ele>
        <time>2020-10-25T10:04:41Z</time>
      </trkpt>
      <trkpt lat="45.6368" lon="6.0357">
        <ele>1809.82</ele>
        <time>2020-10-25T10:05:06Z</time>
      </trkpt>
      <trkpt lat="45.6368" lon="6.03569">
        <ele>1809.82</ele>
        <time>2020-10-25T10:05:35Z</time>
      </trkpt>
      <trkpt lat="45.63679" lon="6.03569">
        <ele>1810.3</ele>
        <time>2020-10-25T10:06:08Z</time>
      </trkpt>
      <trkpt lat="45.6368" lon="6.03568">
        <ele>1810.3</ele>
        <time>2020-10-25T10:06:39Z</time>
      </trkpt>
      <trkpt lat="45.6368" lon="6.03568">
        <ele>1809.82</ele>
        <time>2020-10-25T10:07:05Z</time>
      </trkpt>
      <trkpt lat="45.6368" lon="6.03568">
        <ele>1810.78</ele>
        <time>2020-10-25T10:07:29Z</time>
      </trkpt>
      <trkpt lat="45.63681" lon="6.03568">
        <ele>1810.3</ele>
        <time>2020-10-25T10:08:00Z</time>
      </trkpt>
      <trkpt lat="45.6368" lon="6.03569">
        <ele>1810.78</ele>
        <time>2020-10-25T10:08:23Z</time>
      </trkpt>
      <trkpt lat="45.63681" lon="6.03569">
        <ele>1810.78</ele>
        <time>2020-10-25T10:08:51Z</time>
      </trkpt>
      <trkpt lat="45.63681" lon="6.03568">
        <ele>1810.78</ele>
        <time>2020-10-25T10:09:19Z</time>
      </trkpt>
      <trkpt lat="45.6368" lon="6.03568">
        <ele>1810.78</ele>
        <time>2020-10-25T10:09:50Z</time>
      </trkpt>
      <trkpt lat="45.63681" lon="6.03569">
        <ele>1811.26</ele>
        <time>2020-10-25T10:10:13Z</time>
      </trkpt>
      <trkpt lat="45.63681" lon="6.03568">
        <ele>1811.26</ele>
        <time>2020-10-25T10:10:48Z</time>
      </trkpt>
      <trkpt lat="45.63681" lon="6.03568">
        <ele>1811.26</ele>
        <time>2020-10-25T10:11:18Z</time>
      </trkpt>
      <trkpt lat="45.63681" lon="6.03568">
        <ele>1811.26</ele>
        <time>2020-10-25T10:11:49Z</time>
      </trkpt>
      <trkpt lat="45.6368" lon="6.03568">
        <ele>1812.7</ele>
        <time>2020-10-25T10:12:01Z</time>
      </trkpt>
      <trkpt lat="45.63677" lon="6.03569">
        <ele>1812.22</ele>
        <time>2020-10-25T10:12:10Z</time>
      </trkpt>
      <trkpt lat="45.6367" lon="6.03567">
        <ele>1810.78</ele>
        <time>2020-10-25T10:12:19Z</time>
      </trkpt>
      <trkpt lat="45.63666" lon="6.03564">
        <ele>1810.3</ele>
        <time>2020-10-25T10:12:24Z</time>
      </trkpt>
      <trkpt lat="45.63653" lon="6.03554">
        <ele>1811.26</ele>
        <time>2020-10-25T10:12:38Z</time>
      </trkpt>
      <trkpt lat="45.63641" lon="6.03542">
        <ele>1811.74</ele>
        <time>2020-10-25T10:12:51Z</time>
      </trkpt>
      <trkpt lat="45.63638" lon="6.03539">
        <ele>1811.26</ele>
        <time>2020-10-25T10:12:55Z</time>
      </trkpt>
      <trkpt lat="45.63636" lon="6.03536">
        <ele>1811.26</ele>
        <time>2020-10-25T10:12:57Z</time>
      </trkpt>
      <trkpt lat="45.63625" lon="6.03526">
        <ele>1813.18</ele>
        <time>2020-10-25T10:13:10Z</time>
      </trkpt>
      <trkpt lat="45.63622" lon="6.03523">
        <ele>1813.66</ele>
        <time>2020-10-25T10:13:14Z</time>
      </trkpt>
      <trkpt lat="45.63615" lon="6.03515">
        <ele>1815.59</ele>
        <time>2020-10-25T10:13:25Z</time>
      </trkpt>
      <trkpt lat="45.63613" lon="6.03513">
        <ele>1817.03</ele>
        <time>2020-10-25T10:13:29Z</time>
      </trkpt>
      <trkpt lat="45.63611" lon="6.03511">
        <ele>1816.55</ele>
        <time>2020-10-25T10:13:31Z</time>
      </trkpt>
      <trkpt lat="45.63608" lon="6.03507">
        <ele>1817.99</ele>
        <time>2020-10-25T10:13:35Z</time>
      </trkpt>
      <trkpt lat="45.63603" lon="6.03503">
        <ele>1819.43</ele>
        <time>2020-10-25T10:13:41Z</time>
      </trkpt>
      <trkpt lat="45.63601" lon="6.035">
        <ele>1819.91</ele>
        <time>2020-10-25T10:13:44Z</time>
      </trkpt>
      <trkpt lat="45.63599" lon="6.03498">
        <ele>1820.39</ele>
        <time>2020-10-25T10:13:47Z</time>
      </trkpt>
      <trkpt lat="45.63596" lon="6.03496">
        <ele>1820.87</ele>
        <time>2020-10-25T10:13:50Z</time>
      </trkpt>
      <trkpt lat="45.63588" lon="6.0349">
        <ele>1821.84</ele>
        <time>2020-10-25T10:14:00Z</time>
      </trkpt>
      <trkpt lat="45.63581" lon="6.03479">
        <ele>1822.32</ele>
        <time>2020-10-25T10:14:09Z</time>
      </trkpt>
      <trkpt lat="45.63568" lon="6.03469">
        <ele>1823.28</ele>
        <time>2020-10-25T10:14:20Z</time>
      </trkpt>
      <trkpt lat="45.63559" lon="6.03459">
        <ele>1823.76</ele>
        <time>2020-10-25T10:14:29Z</time>
      </trkpt>
      <trkpt lat="45.63552" lon="6.03454">
        <ele>1823.76</ele>
        <time>2020-10-25T10:14:35Z</time>
      </trkpt>
      <trkpt lat="45.63545" lon="6.03446">
        <ele>1825.2</ele>
        <time>2020-10-25T10:14:42Z</time>
      </trkpt>
      <trkpt lat="45.63541" lon="6.03445">
        <ele>1825.68</ele>
        <time>2020-10-25T10:14:45Z</time>
      </trkpt>
      <trkpt lat="45.63537" lon="6.03445">
        <ele>1827.12</ele>
        <time>2020-10-25T10:14:55Z</time>
      </trkpt>
      <trkpt lat="45.63528" lon="6.03439">
        <ele>1826.64</ele>
        <time>2020-10-25T10:15:02Z</time>
      </trkpt>
      <trkpt lat="45.63515" lon="6.03435">
        <ele>1828.08</ele>
        <time>2020-10-25T10:15:13Z</time>
      </trkpt>
      <trkpt lat="45.63509" lon="6.03432">
        <ele>1825.68</ele>
        <time>2020-10-25T10:15:18Z</time>
      </trkpt>
      <trkpt lat="45.63506" lon="6.0343">
        <ele>1827.6</ele>
        <time>2020-10-25T10:15:21Z</time>
      </trkpt>
      <trkpt lat="45.63494" lon="6.03424">
        <ele>1826.16</ele>
        <time>2020-10-25T10:15:30Z</time>
      </trkpt>
      <trkpt lat="45.63488" lon="6.0342">
        <ele>1827.12</ele>
        <time>2020-10-25T10:15:36Z</time>
      </trkpt>
      <trkpt lat="45.63485" lon="6.03419">
        <ele>1826.16</ele>
        <time>2020-10-25T10:15:38Z</time>
      </trkpt>
      <trkpt lat="45.6348" lon="6.03417">
        <ele>1826.16</ele>
        <time>2020-10-25T10:15:42Z</time>
      </trkpt>
      <trkpt lat="45.63471" lon="6.03408">
        <ele>1826.16</ele>
        <time>2020-10-25T10:15:50Z</time>
      </trkpt>
      <trkpt lat="45.63459" lon="6.034">
        <ele>1825.2</ele>
        <time>2020-10-25T10:16:00Z</time>
      </trkpt>
      <trkpt lat="45.63456" lon="6.03399">
        <ele>1825.68</ele>
        <time>2020-10-25T10:16:02Z</time>
      </trkpt>
      <trkpt lat="45.63447" lon="6.03398">
        <ele>1824.72</ele>
        <time>2020-10-25T10:16:08Z</time>
      </trkpt>
      <trkpt lat="45.63441" lon="6.03397">
        <ele>1822.32</ele>
        <time>2020-10-25T10:16:12Z</time>
      </trkpt>
      <trkpt lat="45.63432" lon="6.03396">
        <ele>1819.91</ele>
        <time>2020-10-25T10:16:18Z</time>
      </trkpt>
      <trkpt lat="45.63422" lon="6.03395">
        <ele>1819.91</ele>
        <time>2020-10-25T10:16:24Z</time>
      </trkpt>
      <trkpt lat="45.63406" lon="6.03389">
        <ele>1816.55</ele>
        <time>2020-10-25T10:16:35Z</time>
      </trkpt>
      <trkpt lat="45.63405" lon="6.03388">
        <ele>1816.55</ele>
        <time>2020-10-25T10:16:36Z</time>
      </trkpt>
      <trkpt lat="45.63403" lon="6.03388">
        <ele>1817.03</ele>
        <time>2020-10-25T10:16:37Z</time>
      </trkpt>
      <trkpt lat="45.63398" lon="6.03389">
        <ele>1817.03</ele>
        <time>2020-10-25T10:16:41Z</time>
      </trkpt>
      <trkpt lat="45.63389" lon="6.03394">
        <ele>1815.11</ele>
        <time>2020-10-25T10:16:48Z</time>
      </trkpt>
      <trkpt lat="45.63385" lon="6.03395">
        <ele>1816.55</ele>
        <time>2020-10-25T10:17:04Z</time>
      </trkpt>
      <trkpt lat="45.63385" lon="6.03395">
        <ele>1816.55</ele>
        <time>2020-10-25T10:17:05Z</time>
      </trkpt>
      <trkpt lat="45.63378" lon="6.03393">
        <ele>1815.59</ele>
        <time>2020-10-25T10:17:11Z</time>
      </trkpt>
      <trkpt lat="45.63372" lon="6.03393">
        <ele>1815.11</ele>
        <time>2020-10-25T10:17:15Z</time>
      </trkpt>
      <trkpt lat="45.63366" lon="6.03393">
        <ele>1813.66</ele>
        <time>2020-10-25T10:17:19Z</time>
      </trkpt>
      <trkpt lat="45.63363" lon="6.03394">
        <ele>1815.59</ele>
        <time>2020-10-25T10:17:22Z</time>
      </trkpt>
      <trkpt lat="45.63347" lon="6.03397">
        <ele>1811.74</ele>
        <time>2020-10-25T10:17:35Z</time>
      </trkpt>
      <trkpt lat="45.63346" lon="6.03398">
        <ele>1812.22</ele>
        <time>2020-10-25T10:17:39Z</time>
      </trkpt>
      <trkpt lat="45.63343" lon="6.03399">
        <ele>1811.74</ele>
        <time>2020-10-25T10:17:42Z</time>
      </trkpt>
      <trkpt lat="45.63331" lon="6.03405">
        <ele>1808.86</ele>
        <time>2020-10-25T10:17:52Z</time>
      </trkpt>
      <trkpt lat="45.63321" lon="6.03411">
        <ele>1805.97</ele>
        <time>2020-10-25T10:18:02Z</time>
      </trkpt>
      <trkpt lat="45.63312" lon="6.03415">
        <ele>1802.61</ele>
        <time>2020-10-25T10:18:08Z</time>
      </trkpt>
      <trkpt lat="45.6331" lon="6.03416">
        <ele>1802.13</ele>
        <time>2020-10-25T10:18:09Z</time>
      </trkpt>
      <trkpt lat="45.63304" lon="6.03414">
        <ele>1799.73</ele>
        <time>2020-10-25T10:18:14Z</time>
      </trkpt>
      <trkpt lat="45.633" lon="6.03413">
        <ele>1798.28</ele>
        <time>2020-10-25T10:18:17Z</time>
      </trkpt>
      <trkpt lat="45.63293" lon="6.03408">
        <ele>1797.8</ele>
        <time>2020-10-25T10:18:32Z</time>
      </trkpt>
      <trkpt lat="45.63293" lon="6.03408">
        <ele>1798.28</ele>
        <time>2020-10-25T10:18:48Z</time>
      </trkpt>
      <trkpt lat="45.63288" lon="6.03408">
        <ele>1796.36</ele>
        <time>2020-10-25T10:18:52Z</time>
      </trkpt>
      <trkpt lat="45.63286" lon="6.03408">
        <ele>1796.84</ele>
        <time>2020-10-25T10:18:54Z</time>
      </trkpt>
      <trkpt lat="45.63281" lon="6.03407">
        <ele>1794.92</ele>
        <time>2020-10-25T10:18:58Z</time>
      </trkpt>
      <trkpt lat="45.63273" lon="6.03405">
        <ele>1794.44</ele>
        <time>2020-10-25T10:19:03Z</time>
      </trkpt>
      <trkpt lat="45.63266" lon="6.03404">
        <ele>1793.48</ele>
        <time>2020-10-25T10:19:08Z</time>
      </trkpt>
      <trkpt lat="45.63256" lon="6.034">
        <ele>1793.96</ele>
        <time>2020-10-25T10:19:14Z</time>
      </trkpt>
      <trkpt lat="45.63249" lon="6.03398">
        <ele>1794.44</ele>
        <time>2020-10-25T10:19:19Z</time>
      </trkpt>
      <trkpt lat="45.63245" lon="6.03398">
        <ele>1794.92</ele>
        <time>2020-10-25T10:19:22Z</time>
      </trkpt>
      <trkpt lat="45.63242" lon="6.03396">
        <ele>1794.92</ele>
        <time>2020-10-25T10:19:24Z</time>
      </trkpt>
      <trkpt lat="45.63233" lon="6.03392">
        <ele>1794.44</ele>
        <time>2020-10-25T10:19:31Z</time>
      </trkpt>
      <trkpt lat="45.63215" lon="6.03387">
        <ele>1794.44</ele>
        <time>2020-10-25T10:19:43Z</time>
      </trkpt>
      <trkpt lat="45.63212" lon="6.03383">
        <ele>1793.96</ele>
        <time>2020-10-25T10:19:46Z</time>
      </trkpt>
      <trkpt lat="45.63193" lon="6.03375">
        <ele>1794.44</ele>
        <time>2020-10-25T10:19:59Z</time>
      </trkpt>
      <trkpt lat="45.63191" lon="6.03374">
        <ele>1793</ele>
        <time>2020-10-25T10:20:01Z</time>
      </trkpt>
      <trkpt lat="45.63172" lon="6.03371">
        <ele>1792.03</ele>
        <time>2020-10-25T10:20:14Z</time>
      </trkpt>
      <trkpt lat="45.63171" lon="6.03371">
        <ele>1792.03</ele>
        <time>2020-10-25T10:20:15Z</time>
      </trkpt>
      <trkpt lat="45.63164" lon="6.0337">
        <ele>1792.03</ele>
        <time>2020-10-25T10:20:19Z</time>
      </trkpt>
      <trkpt lat="45.63155" lon="6.0337">
        <ele>1792.52</ele>
        <time>2020-10-25T10:20:26Z</time>
      </trkpt>
      <trkpt lat="45.63143" lon="6.0337">
        <ele>1792.03</ele>
        <time>2020-10-25T10:20:35Z</time>
      </trkpt>
      <trkpt lat="45.63137" lon="6.0337">
        <ele>1792.52</ele>
        <time>2020-10-25T10:20:40Z</time>
      </trkpt>
      <trkpt lat="45.63127" lon="6.03372">
        <ele>1792.52</ele>
        <time>2020-10-25T10:20:47Z</time>
      </trkpt>
      <trkpt lat="45.63121" lon="6.03375">
        <ele>1792.52</ele>
        <time>2020-10-25T10:20:51Z</time>
      </trkpt>
      <trkpt lat="45.6311" lon="6.03381">
        <ele>1792.52</ele>
        <time>2020-10-25T10:20:59Z</time>
      </trkpt>
      <trkpt lat="45.63099" lon="6.03388">
        <ele>1791.55</ele>
        <time>2020-10-25T10:21:07Z</time>
      </trkpt>
      <trkpt lat="45.63082" lon="6.03397">
        <ele>1793.48</ele>
        <time>2020-10-25T10:21:21Z</time>
      </trkpt>
      <trkpt lat="45.63071" lon="6.03407">
        <ele>1796.36</ele>
        <time>2020-10-25T10:21:31Z</time>
      </trkpt>
      <trkpt lat="45.63069" lon="6.03407">
        <ele>1795.4</ele>
        <time>2020-10-25T10:21:34Z</time>
      </trkpt>
      <trkpt lat="45.63065" lon="6.03408">
        <ele>1796.36</ele>
        <time>2020-10-25T10:21:37Z</time>
      </trkpt>
      <trkpt lat="45.63062" lon="6.03409">
        <ele>1796.84</ele>
        <time>2020-10-25T10:21:40Z</time>
      </trkpt>
      <trkpt lat="45.63058" lon="6.03408">
        <ele>1798.28</ele>
        <time>2020-10-25T10:21:44Z</time>
      </trkpt>
      <trkpt lat="45.63057" lon="6.0341">
        <ele>1799.24</ele>
        <time>2020-10-25T10:21:53Z</time>
      </trkpt>
      <trkpt lat="45.63057" lon="6.0341">
        <ele>1799.24</ele>
        <time>2020-10-25T10:22:09Z</time>
      </trkpt>
      <trkpt lat="45.63055" lon="6.03409">
        <ele>1799.24</ele>
        <time>2020-10-25T10:22:11Z</time>
      </trkpt>
      <trkpt lat="45.63051" lon="6.0341">
        <ele>1798.28</ele>
        <time>2020-10-25T10:22:15Z</time>
      </trkpt>
      <trkpt lat="45.63042" lon="6.0341">
        <ele>1800.69</ele>
        <time>2020-10-25T10:22:23Z</time>
      </trkpt>
      <trkpt lat="45.6304" lon="6.0341">
        <ele>1800.21</ele>
        <time>2020-10-25T10:22:25Z</time>
      </trkpt>
      <trkpt lat="45.63038" lon="6.03409">
        <ele>1802.61</ele>
        <time>2020-10-25T10:22:30Z</time>
      </trkpt>
      <trkpt lat="45.63038" lon="6.03409">
        <ele>1802.61</ele>
        <time>2020-10-25T10:22:31Z</time>
      </trkpt>
      <trkpt lat="45.63029" lon="6.03405">
        <ele>1804.05</ele>
        <time>2020-10-25T10:22:43Z</time>
      </trkpt>
      <trkpt lat="45.63029" lon="6.03405">
        <ele>1804.05</ele>
        <time>2020-10-25T10:22:44Z</time>
      </trkpt>
      <trkpt lat="45.63029" lon="6.03405">
        <ele>1802.61</ele>
        <time>2020-10-25T10:22:47Z</time>
      </trkpt>
      <trkpt lat="45.63029" lon="6.03405">
        <ele>1803.57</ele>
        <time>2020-10-25T10:22:49Z</time>
      </trkpt>
      <trkpt lat="45.6303" lon="6.03404">
        <ele>1803.09</ele>
        <time>2020-10-25T10:23:09Z</time>
      </trkpt>
      <trkpt lat="45.63029" lon="6.03407">
        <ele>1803.57</ele>
        <time>2020-10-25T10:23:20Z</time>
      </trkpt>
      <trkpt lat="45.63024" lon="6.0341">
        <ele>1801.65</ele>
        <time>2020-10-25T10:23:29Z</time>
      </trkpt>
      <trkpt lat="45.63024" lon="6.03408">
        <ele>1801.17</ele>
        <time>2020-10-25T10:23:52Z</time>
      </trkpt>
      <trkpt lat="45.63024" lon="6.03408">
        <ele>1800.21</ele>
        <time>2020-10-25T10:24:05Z</time>
      </trkpt>
      <trkpt lat="45.63024" lon="6.03409">
        <ele>1804.05</ele>
        <time>2020-10-25T10:24:08Z</time>
      </trkpt>
      <trkpt lat="45.63024" lon="6.0341">
        <ele>1804.05</ele>
        <time>2020-10-25T10:24:13Z</time>
      </trkpt>
      <trkpt lat="45.63021" lon="6.03416">
        <ele>1803.57</ele>
        <time>2020-10-25T10:24:18Z</time>
      </trkpt>
      <trkpt lat="45.63019" lon="6.03419">
        <ele>1802.13</ele>
        <time>2020-10-25T10:24:20Z</time>
      </trkpt>
      <trkpt lat="45.63013" lon="6.03428">
        <ele>1801.17</ele>
        <time>2020-10-25T10:24:27Z</time>
      </trkpt>
      <trkpt lat="45.63011" lon="6.03432">
        <ele>1801.17</ele>
        <time>2020-10-25T10:24:30Z</time>
      </trkpt>
      <trkpt lat="45.6301" lon="6.03435">
        <ele>1800.69</ele>
        <time>2020-10-25T10:24:32Z</time>
      </trkpt>
      <trkpt lat="45.63008" lon="6.03439">
        <ele>1799.73</ele>
        <time>2020-10-25T10:24:36Z</time>
      </trkpt>
      <trkpt lat="45.63007" lon="6.03445">
        <ele>1798.76</ele>
        <time>2020-10-25T10:24:42Z</time>
      </trkpt>
      <trkpt lat="45.63009" lon="6.03444">
        <ele>1798.28</ele>
        <time>2020-10-25T10:25:03Z</time>
      </trkpt>
      <trkpt lat="45.63012" lon="6.03446">
        <ele>1798.76</ele>
        <time>2020-10-25T10:25:08Z</time>
      </trkpt>
      <trkpt lat="45.63014" lon="6.03451">
        <ele>1798.28</ele>
        <time>2020-10-25T10:25:13Z</time>
      </trkpt>
      <trkpt lat="45.63013" lon="6.03454">
        <ele>1798.28</ele>
        <time>2020-10-25T10:25:15Z</time>
      </trkpt>
      <trkpt lat="45.63013" lon="6.03459">
        <ele>1796.84</ele>
        <time>2020-10-25T10:25:19Z</time>
      </trkpt>
      <trkpt lat="45.63018" lon="6.03466">
        <ele>1795.88</ele>
        <time>2020-10-25T10:25:26Z</time>
      </trkpt>
      <trkpt lat="45.63021" lon="6.03472">
        <ele>1794.92</ele>
        <time>2020-10-25T10:25:30Z</time>
      </trkpt>
      <trkpt lat="45.63024" lon="6.03488">
        <ele>1792.52</ele>
        <time>2020-10-25T10:25:39Z</time>
      </trkpt>
      <trkpt lat="45.63028" lon="6.03505">
        <ele>1790.11</ele>
        <time>2020-10-25T10:25:48Z</time>
      </trkpt>
      <trkpt lat="45.63033" lon="6.03521">
        <ele>1789.15</ele>
        <time>2020-10-25T10:25:57Z</time>
      </trkpt>
      <trkpt lat="45.63035" lon="6.03529">
        <ele>1788.19</ele>
        <time>2020-10-25T10:26:01Z</time>
      </trkpt>
      <trkpt lat="45.63038" lon="6.0354">
        <ele>1788.19</ele>
        <time>2020-10-25T10:26:07Z</time>
      </trkpt>
      <trkpt lat="45.6304" lon="6.03551">
        <ele>1788.19</ele>
        <time>2020-10-25T10:26:13Z</time>
      </trkpt>
      <trkpt lat="45.63048" lon="6.03574">
        <ele>1787.71</ele>
        <time>2020-10-25T10:26:27Z</time>
      </trkpt>
      <trkpt lat="45.63049" lon="6.03574">
        <ele>1787.23</ele>
        <time>2020-10-25T10:26:28Z</time>
      </trkpt>
      <trkpt lat="45.63051" lon="6.03576">
        <ele>1788.19</ele>
        <time>2020-10-25T10:26:30Z</time>
      </trkpt>
      <trkpt lat="45.63057" lon="6.03586">
        <ele>1788.19</ele>
        <time>2020-10-25T10:26:40Z</time>
      </trkpt>
      <trkpt lat="45.63059" lon="6.03589">
        <ele>1788.67</ele>
        <time>2020-10-25T10:26:50Z</time>
      </trkpt>
      <trkpt lat="45.63059" lon="6.03588">
        <ele>1787.71</ele>
        <time>2020-10-25T10:27:05Z</time>
      </trkpt>
      <trkpt lat="45.63058" lon="6.03588">
        <ele>1787.71</ele>
        <time>2020-10-25T10:27:06Z</time>
      </trkpt>
      <trkpt lat="45.63058" lon="6.03589">
        <ele>1787.23</ele>
        <time>2020-10-25T10:27:16Z</time>
      </trkpt>
      <trkpt lat="45.63058" lon="6.03589">
        <ele>1787.23</ele>
        <time>2020-10-25T10:27:38Z</time>
      </trkpt>
      <trkpt lat="45.63058" lon="6.03588">
        <ele>1787.23</ele>
        <time>2020-10-25T10:28:01Z</time>
      </trkpt>
      <trkpt lat="45.63058" lon="6.03589">
        <ele>1787.23</ele>
        <time>2020-10-25T10:28:30Z</time>
      </trkpt>
      <trkpt lat="45.63059" lon="6.03589">
        <ele>1787.23</ele>
        <time>2020-10-25T10:29:05Z</time>
      </trkpt>
      <trkpt lat="45.63059" lon="6.03589">
        <ele>1787.71</ele>
        <time>2020-10-25T10:29:37Z</time>
      </trkpt>
      <trkpt lat="45.63059" lon="6.03589">
        <ele>1787.71</ele>
        <time>2020-10-25T10:30:16Z</time>
      </trkpt>
      <trkpt lat="45.63059" lon="6.03589">
        <ele>1787.71</ele>
        <time>2020-10-25T10:30:52Z</time>
      </trkpt>
      <trkpt lat="45.63059" lon="6.0359">
        <ele>1787.71</ele>
        <time>2020-10-25T10:31:30Z</time>
      </trkpt>
      <trkpt lat="45.63059" lon="6.0359">
        <ele>1788.19</ele>
        <time>2020-10-25T10:32:05Z</time>
      </trkpt>
      <trkpt lat="45.63059" lon="6.0359">
        <ele>1788.19</ele>
        <time>2020-10-25T10:32:41Z</time>
      </trkpt>
      <trkpt lat="45.63059" lon="6.0359">
        <ele>1788.67</ele>
        <time>2020-10-25T10:33:12Z</time>
      </trkpt>
      <trkpt lat="45.63059" lon="6.03589">
        <ele>1788.67</ele>
        <time>2020-10-25T10:33:49Z</time>
      </trkpt>
      <trkpt lat="45.63059" lon="6.03589">
        <ele>1788.67</ele>
        <time>2020-10-25T10:34:26Z</time>
      </trkpt>
      <trkpt lat="45.63059" lon="6.03589">
        <ele>1788.67</ele>
        <time>2020-10-25T10:35:01Z</time>
      </trkpt>
      <trkpt lat="45.63059" lon="6.03589">
        <ele>1788.67</ele>
        <time>2020-10-25T10:35:34Z</time>
      </trkpt>
      <trkpt lat="45.63059" lon="6.03589">
        <ele>1788.67</ele>
        <time>2020-10-25T10:36:05Z</time>
      </trkpt>
      <trkpt lat="45.63059" lon="6.03589">
        <ele>1789.63</ele>
        <time>2020-10-25T10:36:35Z</time>
      </trkpt>
      <trkpt lat="45.63059" lon="6.03589">
        <ele>1789.15</ele>
        <time>2020-10-25T10:37:09Z</time>
      </trkpt>
      <trkpt lat="45.63059" lon="6.03589">
        <ele>1789.15</ele>
        <time>2020-10-25T10:37:37Z</time>
      </trkpt>
      <trkpt lat="45.63059" lon="6.03589">
        <ele>1789.15</ele>
        <time>2020-10-25T10:38:09Z</time>
      </trkpt>
      <trkpt lat="45.63059" lon="6.03589">
        <ele>1789.63</ele>
        <time>2020-10-25T10:38:43Z</time>
      </trkpt>
      <trkpt lat="45.63059" lon="6.03589">
        <ele>1790.11</ele>
        <time>2020-10-25T10:39:16Z</time>
      </trkpt>
      <trkpt lat="45.63059" lon="6.03589">
        <ele>1790.11</ele>
        <time>2020-10-25T10:39:47Z</time>
      </trkpt>
      <trkpt lat="45.63059" lon="6.03589">
        <ele>1790.11</ele>
        <time>2020-10-25T10:40:20Z</time>
      </trkpt>
      <trkpt lat="45.63059" lon="6.03589">
        <ele>1790.11</ele>
        <time>2020-10-25T10:40:55Z</time>
      </trkpt>
      <trkpt lat="45.63059" lon="6.03589">
        <ele>1790.59</ele>
        <time>2020-10-25T10:41:27Z</time>
      </trkpt>
      <trkpt lat="45.63059" lon="6.03589">
        <ele>1790.11</ele>
        <time>2020-10-25T10:42:03Z</time>
      </trkpt>
      <trkpt lat="45.63059" lon="6.03589">
        <ele>1791.07</ele>
        <time>2020-10-25T10:42:36Z</time>
      </trkpt>
      <trkpt lat="45.63059" lon="6.03589">
        <ele>1790.11</ele>
        <time>2020-10-25T10:43:12Z</time>
      </trkpt>
      <trkpt lat="45.63059" lon="6.03589">
        <ele>1790.59</ele>
        <time>2020-10-25T10:43:44Z</time>
      </trkpt>
      <trkpt lat="45.63059" lon="6.03589">
        <ele>1790.59</ele>
        <time>2020-10-25T10:44:20Z</time>
      </trkpt>
      <trkpt lat="45.6306" lon="6.0359">
        <ele>1790.59</ele>
        <time>2020-10-25T10:44:54Z</time>
      </trkpt>
      <trkpt lat="45.6306" lon="6.0359">
        <ele>1790.59</ele>
        <time>2020-10-25T10:45:28Z</time>
      </trkpt>
      <trkpt lat="45.6306" lon="6.0359">
        <ele>1791.07</ele>
        <time>2020-10-25T10:46:03Z</time>
      </trkpt>
      <trkpt lat="45.6306" lon="6.0359">
        <ele>1790.11</ele>
        <time>2020-10-25T10:46:42Z</time>
      </trkpt>
      <trkpt lat="45.6306" lon="6.0359">
        <ele>1790.59</ele>
        <time>2020-10-25T10:47:15Z</time>
      </trkpt>
      <trkpt lat="45.6306" lon="6.0359">
        <ele>1790.59</ele>
        <time>2020-10-25T10:47:51Z</time>
      </trkpt>
      <trkpt lat="45.6306" lon="6.0359">
        <ele>1790.59</ele>
        <time>2020-10-25T10:48:21Z</time>
      </trkpt>
      <trkpt lat="45.6306" lon="6.03591">
        <ele>1791.07</ele>
        <time>2020-10-25T10:48:59Z</time>
      </trkpt>
      <trkpt lat="45.6306" lon="6.0359">
        <ele>1790.59</ele>
        <time>2020-10-25T10:49:33Z</time>
      </trkpt>
      <trkpt lat="45.6306" lon="6.0359">
        <ele>1790.59</ele>
        <time>2020-10-25T10:50:08Z</time>
      </trkpt>
      <trkpt lat="45.6306" lon="6.0359">
        <ele>1790.59</ele>
        <time>2020-10-25T10:50:44Z</time>
      </trkpt>
      <trkpt lat="45.6306" lon="6.03589">
        <ele>1791.07</ele>
        <time>2020-10-25T10:51:16Z</time>
      </trkpt>
      <trkpt lat="45.6306" lon="6.03589">
        <ele>1791.07</ele>
        <time>2020-10-25T10:51:44Z</time>
      </trkpt>
      <trkpt lat="45.6306" lon="6.03589">
        <ele>1791.55</ele>
        <time>2020-10-25T10:52:05Z</time>
      </trkpt>
      <trkpt lat="45.63061" lon="6.03588">
        <ele>1791.55</ele>
        <time>2020-10-25T10:52:42Z</time>
      </trkpt>
      <trkpt lat="45.63062" lon="6.03588">
        <ele>1791.55</ele>
        <time>2020-10-25T10:53:16Z</time>
      </trkpt>
      <trkpt lat="45.63062" lon="6.03588">
        <ele>1791.55</ele>
        <time>2020-10-25T10:53:51Z</time>
      </trkpt>
      <trkpt lat="45.63062" lon="6.03588">
        <ele>1791.55</ele>
        <time>2020-10-25T10:54:28Z</time>
      </trkpt>
      <trkpt lat="45.63062" lon="6.03588">
        <ele>1791.55</ele>
        <time>2020-10-25T10:55:01Z</time>
      </trkpt>
      <trkpt lat="45.63062" lon="6.03588">
        <ele>1791.55</ele>
        <time>2020-10-25T10:55:39Z</time>
      </trkpt>
      <trkpt lat="45.63062" lon="6.03588">
        <ele>1791.55</ele>
        <time>2020-10-25T10:56:17Z</time>
      </trkpt>
      <trkpt lat="45.63062" lon="6.03588">
        <ele>1792.03</ele>
        <time>2020-10-25T10:56:56Z</time>
      </trkpt>
      <trkpt lat="45.63062" lon="6.03588">
        <ele>1792.03</ele>
        <time>2020-10-25T10:57:38Z</time>
      </trkpt>
      <trkpt lat="45.63062" lon="6.03588">
        <ele>1792.52</ele>
        <time>2020-10-25T10:58:13Z</time>
      </trkpt>
      <trkpt lat="45.63062" lon="6.03588">
        <ele>1792.52</ele>
        <time>2020-10-25T10:58:54Z</time>
      </trkpt>
      <trkpt lat="45.63062" lon="6.03588">
        <ele>1792.52</ele>
        <time>2020-10-25T10:59:31Z</time>
      </trkpt>
      <trkpt lat="45.63063" lon="6.03589">
        <ele>1793.48</ele>
        <time>2020-10-25T10:59:48Z</time>
      </trkpt>
      <trkpt lat="45.63061" lon="6.03589">
        <ele>1793.48</ele>
        <time>2020-10-25T11:00:04Z</time>
      </trkpt>
      <trkpt lat="45.63061" lon="6.03589">
        <ele>1793.48</ele>
        <time>2020-10-25T11:00:12Z</time>
      </trkpt>
      <trkpt lat="45.6306" lon="6.03589">
        <ele>1794.44</ele>
        <time>2020-10-25T11:00:22Z</time>
      </trkpt>
      <trkpt lat="45.6306" lon="6.03589">
        <ele>1793</ele>
        <time>2020-10-25T11:00:34Z</time>
      </trkpt>
      <trkpt lat="45.63062" lon="6.03589">
        <ele>1793.96</ele>
        <time>2020-10-25T11:00:47Z</time>
      </trkpt>
      <trkpt lat="45.63059" lon="6.03589">
        <ele>1793.96</ele>
        <time>2020-10-25T11:00:58Z</time>
      </trkpt>
      <trkpt lat="45.63059" lon="6.03591">
        <ele>1793.96</ele>
        <time>2020-10-25T11:01:09Z</time>
      </trkpt>
      <trkpt lat="45.63058" lon="6.03591">
        <ele>1793.96</ele>
        <time>2020-10-25T11:01:19Z</time>
      </trkpt>
      <trkpt lat="45.63054" lon="6.03588">
        <ele>1793.48</ele>
        <time>2020-10-25T11:01:34Z</time>
      </trkpt>
      <trkpt lat="45.63052" lon="6.03587">
        <ele>1793.48</ele>
        <time>2020-10-25T11:01:45Z</time>
      </trkpt>
      <trkpt lat="45.63052" lon="6.03587">
        <ele>1793.48</ele>
        <time>2020-10-25T11:01:57Z</time>
      </trkpt>
      <trkpt lat="45.6305" lon="6.03586">
        <ele>1792.52</ele>
        <time>2020-10-25T11:01:59Z</time>
      </trkpt>
      <trkpt lat="45.63048" lon="6.03586">
        <ele>1793</ele>
        <time>2020-10-25T11:02:01Z</time>
      </trkpt>
      <trkpt lat="45.63044" lon="6.03588">
        <ele>1792.52</ele>
        <time>2020-10-25T11:02:06Z</time>
      </trkpt>
      <trkpt lat="45.63042" lon="6.03593">
        <ele>1792.52</ele>
        <time>2020-10-25T11:02:10Z</time>
      </trkpt>
      <trkpt lat="45.63036" lon="6.03609">
        <ele>1789.63</ele>
        <time>2020-10-25T11:02:22Z</time>
      </trkpt>
      <trkpt lat="45.63028" lon="6.03624">
        <ele>1788.67</ele>
        <time>2020-10-25T11:02:34Z</time>
      </trkpt>
      <trkpt lat="45.63024" lon="6.03633">
        <ele>1787.71</ele>
        <time>2020-10-25T11:02:41Z</time>
      </trkpt>
      <trkpt lat="45.63021" lon="6.03646">
        <ele>1786.75</ele>
        <time>2020-10-25T11:02:51Z</time>
      </trkpt>
      <trkpt lat="45.63016" lon="6.03665">
        <ele>1784.34</ele>
        <time>2020-10-25T11:03:05Z</time>
      </trkpt>
      <trkpt lat="45.63012" lon="6.03683">
        <ele>1782.42</ele>
        <time>2020-10-25T11:03:18Z</time>
      </trkpt>
      <trkpt lat="45.63011" lon="6.0369">
        <ele>1781.46</ele>
        <time>2020-10-25T11:03:23Z</time>
      </trkpt>
      <trkpt lat="45.63011" lon="6.03697">
        <ele>1780.98</ele>
        <time>2020-10-25T11:03:27Z</time>
      </trkpt>
      <trkpt lat="45.63015" lon="6.03718">
        <ele>1778.1</ele>
        <time>2020-10-25T11:03:41Z</time>
      </trkpt>
      <trkpt lat="45.63023" lon="6.03737">
        <ele>1775.69</ele>
        <time>2020-10-25T11:03:55Z</time>
      </trkpt>
      <trkpt lat="45.63029" lon="6.03749">
        <ele>1775.21</ele>
        <time>2020-10-25T11:04:04Z</time>
      </trkpt>
      <trkpt lat="45.6303" lon="6.03752">
        <ele>1774.73</ele>
        <time>2020-10-25T11:04:06Z</time>
      </trkpt>
      <trkpt lat="45.63037" lon="6.03765">
        <ele>1772.81</ele>
        <time>2020-10-25T11:04:17Z</time>
      </trkpt>
      <trkpt lat="45.63039" lon="6.0377">
        <ele>1772.33</ele>
        <time>2020-10-25T11:04:21Z</time>
      </trkpt>
      <trkpt lat="45.63041" lon="6.03775">
        <ele>1770.89</ele>
        <time>2020-10-25T11:04:25Z</time>
      </trkpt>
      <trkpt lat="45.63052" lon="6.03789">
        <ele>1769.44</ele>
        <time>2020-10-25T11:04:40Z</time>
      </trkpt>
      <trkpt lat="45.63052" lon="6.03791">
        <ele>1768.48</ele>
        <time>2020-10-25T11:04:44Z</time>
      </trkpt>
      <trkpt lat="45.63054" lon="6.03793">
        <ele>1768</ele>
        <time>2020-10-25T11:04:47Z</time>
      </trkpt>
      <trkpt lat="45.6306" lon="6.03803">
        <ele>1767.04</ele>
        <time>2020-10-25T11:04:55Z</time>
      </trkpt>
      <trkpt lat="45.63067" lon="6.03821">
        <ele>1766.08</ele>
        <time>2020-10-25T11:05:09Z</time>
      </trkpt>
      <trkpt lat="45.63067" lon="6.03823">
        <ele>1766.08</ele>
        <time>2020-10-25T11:05:10Z</time>
      </trkpt>
      <trkpt lat="45.63066" lon="6.03844">
        <ele>1765.6</ele>
        <time>2020-10-25T11:05:24Z</time>
      </trkpt>
      <trkpt lat="45.63066" lon="6.03848">
        <ele>1765.12</ele>
        <time>2020-10-25T11:05:27Z</time>
      </trkpt>
      <trkpt lat="45.63065" lon="6.03854">
        <ele>1764.64</ele>
        <time>2020-10-25T11:05:31Z</time>
      </trkpt>
      <trkpt lat="45.63062" lon="6.03878">
        <ele>1762.23</ele>
        <time>2020-10-25T11:05:47Z</time>
      </trkpt>
      <trkpt lat="45.63061" lon="6.03881">
        <ele>1761.75</ele>
        <time>2020-10-25T11:05:49Z</time>
      </trkpt>
      <trkpt lat="45.6306" lon="6.03886">
        <ele>1760.79</ele>
        <time>2020-10-25T11:05:53Z</time>
      </trkpt>
      <trkpt lat="45.63058" lon="6.03889">
        <ele>1760.79</ele>
        <time>2020-10-25T11:05:55Z</time>
      </trkpt>
      <trkpt lat="45.63056" lon="6.03897">
        <ele>1760.79</ele>
        <time>2020-10-25T11:06:00Z</time>
      </trkpt>
      <trkpt lat="45.63053" lon="6.03899">
        <ele>1759.83</ele>
        <time>2020-10-25T11:06:15Z</time>
      </trkpt>
      <trkpt lat="45.63054" lon="6.03898">
        <ele>1759.83</ele>
        <time>2020-10-25T11:06:36Z</time>
      </trkpt>
      <trkpt lat="45.63054" lon="6.03899">
        <ele>1759.35</ele>
        <time>2020-10-25T11:06:57Z</time>
      </trkpt>
      <trkpt lat="45.63054" lon="6.03901">
        <ele>1759.83</ele>
        <time>2020-10-25T11:07:14Z</time>
      </trkpt>
      <trkpt lat="45.63054" lon="6.03904">
        <ele>1758.87</ele>
        <time>2020-10-25T11:07:28Z</time>
      </trkpt>
      <trkpt lat="45.63054" lon="6.03905">
        <ele>1758.39</ele>
        <time>2020-10-25T11:07:48Z</time>
      </trkpt>
      <trkpt lat="45.63053" lon="6.03911">
        <ele>1758.87</ele>
        <time>2020-10-25T11:07:52Z</time>
      </trkpt>
      <trkpt lat="45.63053" lon="6.03915">
        <ele>1758.39</ele>
        <time>2020-10-25T11:07:54Z</time>
      </trkpt>
      <trkpt lat="45.63051" lon="6.03925">
        <ele>1757.43</ele>
        <time>2020-10-25T11:08:01Z</time>
      </trkpt>
      <trkpt lat="45.6305" lon="6.03949">
        <ele>1754.54</ele>
        <time>2020-10-25T11:08:16Z</time>
      </trkpt>
      <trkpt lat="45.63049" lon="6.03953">
        <ele>1754.06</ele>
        <time>2020-10-25T11:08:19Z</time>
      </trkpt>
      <trkpt lat="45.63048" lon="6.03955">
        <ele>1754.06</ele>
        <time>2020-10-25T11:08:21Z</time>
      </trkpt>
      <trkpt lat="45.6304" lon="6.03973">
        <ele>1751.66</ele>
        <time>2020-10-25T11:08:35Z</time>
      </trkpt>
      <trkpt lat="45.63039" lon="6.03978">
        <ele>1749.74</ele>
        <time>2020-10-25T11:08:40Z</time>
      </trkpt>
      <trkpt lat="45.63033" lon="6.0399">
        <ele>1751.18</ele>
        <time>2020-10-25T11:08:51Z</time>
      </trkpt>
      <trkpt lat="45.63025" lon="6.04003">
        <ele>1750.22</ele>
        <time>2020-10-25T11:09:04Z</time>
      </trkpt>
      <trkpt lat="45.63016" lon="6.04017">
        <ele>1749.74</ele>
        <time>2020-10-25T11:09:15Z</time>
      </trkpt>
      <trkpt lat="45.63011" lon="6.04022">
        <ele>1749.74</ele>
        <time>2020-10-25T11:09:21Z</time>
      </trkpt>
      <trkpt lat="45.63008" lon="6.04023">
        <ele>1750.22</ele>
        <time>2020-10-25T11:09:24Z</time>
      </trkpt>
      <trkpt lat="45.63004" lon="6.04028">
        <ele>1750.7</ele>
        <time>2020-10-25T11:09:29Z</time>
      </trkpt>
      <trkpt lat="45.63003" lon="6.04031">
        <ele>1751.18</ele>
        <time>2020-10-25T11:09:31Z</time>
      </trkpt>
      <trkpt lat="45.63001" lon="6.04038">
        <ele>1750.7</ele>
        <time>2020-10-25T11:09:36Z</time>
      </trkpt>
      <trkpt lat="45.62999" lon="6.0405">
        <ele>1749.26</ele>
        <time>2020-10-25T11:09:44Z</time>
      </trkpt>
      <trkpt lat="45.62997" lon="6.04062">
        <ele>1748.78</ele>
        <time>2020-10-25T11:09:52Z</time>
      </trkpt>
      <trkpt lat="45.62998" lon="6.04066">
        <ele>1748.78</ele>
        <time>2020-10-25T11:09:54Z</time>
      </trkpt>
      <trkpt lat="45.62993" lon="6.04084">
        <ele>1749.26</ele>
        <time>2020-10-25T11:10:06Z</time>
      </trkpt>
      <trkpt lat="45.62991" lon="6.04085">
        <ele>1749.26</ele>
        <time>2020-10-25T11:10:08Z</time>
      </trkpt>
      <trkpt lat="45.62986" lon="6.04091">
        <ele>1748.78</ele>
        <time>2020-10-25T11:10:13Z</time>
      </trkpt>
      <trkpt lat="45.62984" lon="6.04093">
        <ele>1749.26</ele>
        <time>2020-10-25T11:10:16Z</time>
      </trkpt>
      <trkpt lat="45.6298" lon="6.04094">
        <ele>1748.78</ele>
        <time>2020-10-25T11:10:19Z</time>
      </trkpt>
      <trkpt lat="45.62972" lon="6.04095">
        <ele>1749.74</ele>
        <time>2020-10-25T11:10:26Z</time>
      </trkpt>
      <trkpt lat="45.62968" lon="6.04094">
        <ele>1750.22</ele>
        <time>2020-10-25T11:10:31Z</time>
      </trkpt>
      <trkpt lat="45.62964" lon="6.04095">
        <ele>1750.7</ele>
        <time>2020-10-25T11:10:36Z</time>
      </trkpt>
      <trkpt lat="45.62952" lon="6.04095">
        <ele>1751.18</ele>
        <time>2020-10-25T11:10:46Z</time>
      </trkpt>
      <trkpt lat="45.62946" lon="6.04097">
        <ele>1752.14</ele>
        <time>2020-10-25T11:10:59Z</time>
      </trkpt>
      <trkpt lat="45.62946" lon="6.04097">
        <ele>1752.14</ele>
        <time>2020-10-25T11:11:01Z</time>
      </trkpt>
      <trkpt lat="45.62943" lon="6.04104">
        <ele>1752.62</ele>
        <time>2020-10-25T11:11:05Z</time>
      </trkpt>
      <trkpt lat="45.62944" lon="6.04113">
        <ele>1752.62</ele>
        <time>2020-10-25T11:11:13Z</time>
      </trkpt>
      <trkpt lat="45.62944" lon="6.04115">
        <ele>1752.62</ele>
        <time>2020-10-25T11:11:15Z</time>
      </trkpt>
      <trkpt lat="45.62948" lon="6.04122">
        <ele>1751.18</ele>
        <time>2020-10-25T11:11:20Z</time>
      </trkpt>
      <trkpt lat="45.62949" lon="6.04126">
        <ele>1751.18</ele>
        <time>2020-10-25T11:11:23Z</time>
      </trkpt>
      <trkpt lat="45.62949" lon="6.04135">
        <ele>1751.18</ele>
        <time>2020-10-25T11:11:35Z</time>
      </trkpt>
      <trkpt lat="45.62949" lon="6.04135">
        <ele>1751.18</ele>
        <time>2020-10-25T11:11:42Z</time>
      </trkpt>
      <trkpt lat="45.62949" lon="6.0414">
        <ele>1751.18</ele>
        <time>2020-10-25T11:11:51Z</time>
      </trkpt>
      <trkpt lat="45.62949" lon="6.04142">
        <ele>1750.7</ele>
        <time>2020-10-25T11:12:06Z</time>
      </trkpt>
      <trkpt lat="45.62946" lon="6.04145">
        <ele>1749.74</ele>
        <time>2020-10-25T11:12:25Z</time>
      </trkpt>
      <trkpt lat="45.62944" lon="6.04146">
        <ele>1749.26</ele>
        <time>2020-10-25T11:12:27Z</time>
      </trkpt>
      <trkpt lat="45.62939" lon="6.04147">
        <ele>1748.78</ele>
        <time>2020-10-25T11:12:31Z</time>
      </trkpt>
      <trkpt lat="45.62936" lon="6.0415">
        <ele>1749.26</ele>
        <time>2020-10-25T11:12:34Z</time>
      </trkpt>
      <trkpt lat="45.62933" lon="6.04154">
        <ele>1748.29</ele>
        <time>2020-10-25T11:12:37Z</time>
      </trkpt>
      <trkpt lat="45.62931" lon="6.04155">
        <ele>1748.78</ele>
        <time>2020-10-25T11:12:39Z</time>
      </trkpt>
      <trkpt lat="45.62929" lon="6.04158">
        <ele>1747.81</ele>
        <time>2020-10-25T11:12:42Z</time>
      </trkpt>
      <trkpt lat="45.62926" lon="6.04166">
        <ele>1748.29</ele>
        <time>2020-10-25T11:12:50Z</time>
      </trkpt>
      <trkpt lat="45.6292" lon="6.04169">
        <ele>1748.29</ele>
        <time>2020-10-25T11:13:00Z</time>
      </trkpt>
      <trkpt lat="45.62918" lon="6.04171">
        <ele>1747.33</ele>
        <time>2020-10-25T11:13:13Z</time>
      </trkpt>
      <trkpt lat="45.62918" lon="6.04173">
        <ele>1746.85</ele>
        <time>2020-10-25T11:13:26Z</time>
      </trkpt>
      <trkpt lat="45.62919" lon="6.04177">
        <ele>1745.89</ele>
        <time>2020-10-25T11:13:29Z</time>
      </trkpt>
      <trkpt lat="45.6292" lon="6.0418">
        <ele>1745.41</ele>
        <time>2020-10-25T11:13:31Z</time>
      </trkpt>
      <trkpt lat="45.6292" lon="6.04191">
        <ele>1743.01</ele>
        <time>2020-10-25T11:13:39Z</time>
      </trkpt>
      <trkpt lat="45.6292" lon="6.04201">
        <ele>1742.05</ele>
        <time>2020-10-25T11:13:52Z</time>
      </trkpt>
      <trkpt lat="45.6292" lon="6.042">
        <ele>1741.57</ele>
        <time>2020-10-25T11:14:14Z</time>
      </trkpt>
      <trkpt lat="45.6292" lon="6.04202">
        <ele>1741.57</ele>
        <time>2020-10-25T11:14:29Z</time>
      </trkpt>
      <trkpt lat="45.62921" lon="6.04202">
        <ele>1741.08</ele>
        <time>2020-10-25T11:14:45Z</time>
      </trkpt>
      <trkpt lat="45.62921" lon="6.04201">
        <ele>1741.08</ele>
        <time>2020-10-25T11:15:17Z</time>
      </trkpt>
      <trkpt lat="45.62922" lon="6.04201">
        <ele>1741.57</ele>
        <time>2020-10-25T11:15:49Z</time>
      </trkpt>
      <trkpt lat="45.62922" lon="6.04202">
        <ele>1742.05</ele>
        <time>2020-10-25T11:16:06Z</time>
      </trkpt>
      <trkpt lat="45.62922" lon="6.04204">
        <ele>1741.08</ele>
        <time>2020-10-25T11:16:23Z</time>
      </trkpt>
      <trkpt lat="45.62923" lon="6.04204">
        <ele>1741.08</ele>
        <time>2020-10-25T11:16:48Z</time>
      </trkpt>
      <trkpt lat="45.62923" lon="6.04206">
        <ele>1741.08</ele>
        <time>2020-10-25T11:17:05Z</time>
      </trkpt>
      <trkpt lat="45.62923" lon="6.04208">
        <ele>1740.6</ele>
        <time>2020-10-25T11:17:07Z</time>
      </trkpt>
      <trkpt lat="45.62924" lon="6.04215">
        <ele>1739.16</ele>
        <time>2020-10-25T11:17:13Z</time>
      </trkpt>
      <trkpt lat="45.62925" lon="6.04223">
        <ele>1737.72</ele>
        <time>2020-10-25T11:17:19Z</time>
      </trkpt>
      <trkpt lat="45.62924" lon="6.04225">
        <ele>1737.24</ele>
        <time>2020-10-25T11:17:21Z</time>
      </trkpt>
      <trkpt lat="45.62924" lon="6.04236">
        <ele>1735.8</ele>
        <time>2020-10-25T11:17:30Z</time>
      </trkpt>
      <trkpt lat="45.62921" lon="6.04247">
        <ele>1736.28</ele>
        <time>2020-10-25T11:17:42Z</time>
      </trkpt>
      <trkpt lat="45.6292" lon="6.04249">
        <ele>1735.8</ele>
        <time>2020-10-25T11:17:44Z</time>
      </trkpt>
      <trkpt lat="45.62919" lon="6.04253">
        <ele>1735.8</ele>
        <time>2020-10-25T11:17:48Z</time>
      </trkpt>
      <trkpt lat="45.62917" lon="6.04261">
        <ele>1734.84</ele>
        <time>2020-10-25T11:17:58Z</time>
      </trkpt>
      <trkpt lat="45.62917" lon="6.04265">
        <ele>1733.88</ele>
        <time>2020-10-25T11:18:07Z</time>
      </trkpt>
      <trkpt lat="45.62914" lon="6.04275">
        <ele>1732.43</ele>
        <time>2020-10-25T11:18:16Z</time>
      </trkpt>
      <trkpt lat="45.62915" lon="6.04286">
        <ele>1730.99</ele>
        <time>2020-10-25T11:18:28Z</time>
      </trkpt>
      <trkpt lat="45.62915" lon="6.04291">
        <ele>1730.03</ele>
        <time>2020-10-25T11:18:31Z</time>
      </trkpt>
      <trkpt lat="45.62916" lon="6.043">
        <ele>1729.07</ele>
        <time>2020-10-25T11:18:37Z</time>
      </trkpt>
      <trkpt lat="45.62917" lon="6.0431">
        <ele>1728.59</ele>
        <time>2020-10-25T11:18:43Z</time>
      </trkpt>
      <trkpt lat="45.62917" lon="6.04313">
        <ele>1728.11</ele>
        <time>2020-10-25T11:18:45Z</time>
      </trkpt>
      <trkpt lat="45.62918" lon="6.04323">
        <ele>1727.15</ele>
        <time>2020-10-25T11:18:50Z</time>
      </trkpt>
      <trkpt lat="45.62918" lon="6.04341">
        <ele>1724.74</ele>
        <time>2020-10-25T11:18:59Z</time>
      </trkpt>
      <trkpt lat="45.62916" lon="6.0435">
        <ele>1722.34</ele>
        <time>2020-10-25T11:19:03Z</time>
      </trkpt>
      <trkpt lat="45.62915" lon="6.04355">
        <ele>1721.38</ele>
        <time>2020-10-25T11:19:06Z</time>
      </trkpt>
      <trkpt lat="45.62912" lon="6.04359">
        <ele>1721.38</ele>
        <time>2020-10-25T11:19:10Z</time>
      </trkpt>
      <trkpt lat="45.6291" lon="6.04365">
        <ele>1720.9</ele>
        <time>2020-10-25T11:19:15Z</time>
      </trkpt>
      <trkpt lat="45.62909" lon="6.04376">
        <ele>1719.94</ele>
        <time>2020-10-25T11:19:26Z</time>
      </trkpt>
      <trkpt lat="45.6291" lon="6.04386">
        <ele>1717.53</ele>
        <time>2020-10-25T11:19:34Z</time>
      </trkpt>
      <trkpt lat="45.62912" lon="6.04391">
        <ele>1716.57</ele>
        <time>2020-10-25T11:19:39Z</time>
      </trkpt>
      <trkpt lat="45.62913" lon="6.04399">
        <ele>1714.65</ele>
        <time>2020-10-25T11:19:46Z</time>
      </trkpt>
      <trkpt lat="45.62914" lon="6.04406">
        <ele>1713.69</ele>
        <time>2020-10-25T11:19:52Z</time>
      </trkpt>
      <trkpt lat="45.6291" lon="6.04422">
        <ele>1713.21</ele>
        <time>2020-10-25T11:20:05Z</time>
      </trkpt>
      <trkpt lat="45.62908" lon="6.04425">
        <ele>1714.17</ele>
        <time>2020-10-25T11:20:09Z</time>
      </trkpt>
      <trkpt lat="45.62906" lon="6.04427">
        <ele>1714.17</ele>
        <time>2020-10-25T11:20:12Z</time>
      </trkpt>
      <trkpt lat="45.62902" lon="6.04432">
        <ele>1715.13</ele>
        <time>2020-10-25T11:20:23Z</time>
      </trkpt>
      <trkpt lat="45.62899" lon="6.04441">
        <ele>1715.13</ele>
        <time>2020-10-25T11:20:35Z</time>
      </trkpt>
      <trkpt lat="45.62897" lon="6.04447">
        <ele>1714.65</ele>
        <time>2020-10-25T11:20:42Z</time>
      </trkpt>
      <trkpt lat="45.62896" lon="6.04453">
        <ele>1713.21</ele>
        <time>2020-10-25T11:20:52Z</time>
      </trkpt>
      <trkpt lat="45.62893" lon="6.04459">
        <ele>1712.73</ele>
        <time>2020-10-25T11:21:00Z</time>
      </trkpt>
      <trkpt lat="45.62889" lon="6.04464">
        <ele>1712.73</ele>
        <time>2020-10-25T11:21:09Z</time>
      </trkpt>
      <trkpt lat="45.62886" lon="6.04466">
        <ele>1712.25</ele>
        <time>2020-10-25T11:21:14Z</time>
      </trkpt>
      <trkpt lat="45.62886" lon="6.04468">
        <ele>1712.73</ele>
        <time>2020-10-25T11:21:16Z</time>
      </trkpt>
      <trkpt lat="45.62886" lon="6.04472">
        <ele>1710.8</ele>
        <time>2020-10-25T11:21:25Z</time>
      </trkpt>
      <trkpt lat="45.62885" lon="6.04475">
        <ele>1710.32</ele>
        <time>2020-10-25T11:21:27Z</time>
      </trkpt>
      <trkpt lat="45.62882" lon="6.04479">
        <ele>1709.84</ele>
        <time>2020-10-25T11:21:32Z</time>
      </trkpt>
      <trkpt lat="45.62881" lon="6.04486">
        <ele>1709.84</ele>
        <time>2020-10-25T11:21:37Z</time>
      </trkpt>
      <trkpt lat="45.62879" lon="6.04487">
        <ele>1710.32</ele>
        <time>2020-10-25T11:21:39Z</time>
      </trkpt>
      <trkpt lat="45.62876" lon="6.04493">
        <ele>1709.36</ele>
        <time>2020-10-25T11:21:50Z</time>
      </trkpt>
      <trkpt lat="45.62874" lon="6.04497">
        <ele>1708.88</ele>
        <time>2020-10-25T11:22:07Z</time>
      </trkpt>
      <trkpt lat="45.62871" lon="6.04502">
        <ele>1707.92</ele>
        <time>2020-10-25T11:22:16Z</time>
      </trkpt>
      <trkpt lat="45.62871" lon="6.04506">
        <ele>1706.48</ele>
        <time>2020-10-25T11:22:19Z</time>
      </trkpt>
      <trkpt lat="45.62868" lon="6.04517">
        <ele>1704.55</ele>
        <time>2020-10-25T11:22:27Z</time>
      </trkpt>
      <trkpt lat="45.62866" lon="6.04521">
        <ele>1703.59</ele>
        <time>2020-10-25T11:22:31Z</time>
      </trkpt>
      <trkpt lat="45.62866" lon="6.04525">
        <ele>1703.59</ele>
        <time>2020-10-25T11:22:34Z</time>
      </trkpt>
      <trkpt lat="45.62864" lon="6.04531">
        <ele>1702.15</ele>
        <time>2020-10-25T11:22:39Z</time>
      </trkpt>
      <trkpt lat="45.62861" lon="6.04532">
        <ele>1702.15</ele>
        <time>2020-10-25T11:22:44Z</time>
      </trkpt>
      <trkpt lat="45.62857" lon="6.04534">
        <ele>1700.71</ele>
        <time>2020-10-25T11:22:50Z</time>
      </trkpt>
      <trkpt lat="45.62855" lon="6.04533">
        <ele>1700.71</ele>
        <time>2020-10-25T11:22:52Z</time>
      </trkpt>
      <trkpt lat="45.62851" lon="6.04535">
        <ele>1700.23</ele>
        <time>2020-10-25T11:22:56Z</time>
      </trkpt>
      <trkpt lat="45.62845" lon="6.04539">
        <ele>1699.75</ele>
        <time>2020-10-25T11:23:02Z</time>
      </trkpt>
      <trkpt lat="45.6284" lon="6.04542">
        <ele>1699.75</ele>
        <time>2020-10-25T11:23:16Z</time>
      </trkpt>
      <trkpt lat="45.62839" lon="6.04545">
        <ele>1699.27</ele>
        <time>2020-10-25T11:23:20Z</time>
      </trkpt>
      <trkpt lat="45.62836" lon="6.04548">
        <ele>1697.83</ele>
        <time>2020-10-25T11:23:30Z</time>
      </trkpt>
      <trkpt lat="45.62836" lon="6.0455">
        <ele>1699.27</ele>
        <time>2020-10-25T11:23:42Z</time>
      </trkpt>
      <trkpt lat="45.62835" lon="6.04551">
        <ele>1698.79</ele>
        <time>2020-10-25T11:23:44Z</time>
      </trkpt>
      <trkpt lat="45.62832" lon="6.04562">
        <ele>1697.34</ele>
        <time>2020-10-25T11:23:56Z</time>
      </trkpt>
      <trkpt lat="45.62828" lon="6.04565">
        <ele>1696.38</ele>
        <time>2020-10-25T11:24:00Z</time>
      </trkpt>
      <trkpt lat="45.62826" lon="6.04571">
        <ele>1694.46</ele>
        <time>2020-10-25T11:24:04Z</time>
      </trkpt>
      <trkpt lat="45.62823" lon="6.04573">
        <ele>1693.5</ele>
        <time>2020-10-25T11:24:07Z</time>
      </trkpt>
      <trkpt lat="45.62822" lon="6.04578">
        <ele>1692.54</ele>
        <time>2020-10-25T11:24:11Z</time>
      </trkpt>
      <trkpt lat="45.6282" lon="6.04579">
        <ele>1692.06</ele>
        <time>2020-10-25T11:24:13Z</time>
      </trkpt>
      <trkpt lat="45.62815" lon="6.04586">
        <ele>1690.62</ele>
        <time>2020-10-25T11:24:20Z</time>
      </trkpt>
      <trkpt lat="45.62812" lon="6.04589">
        <ele>1690.14</ele>
        <time>2020-10-25T11:24:23Z</time>
      </trkpt>
      <trkpt lat="45.62809" lon="6.04597">
        <ele>1688.21</ele>
        <time>2020-10-25T11:24:29Z</time>
      </trkpt>
      <trkpt lat="45.62801" lon="6.04609">
        <ele>1686.29</ele>
        <time>2020-10-25T11:24:40Z</time>
      </trkpt>
      <trkpt lat="45.62798" lon="6.04612">
        <ele>1684.85</ele>
        <time>2020-10-25T11:24:44Z</time>
      </trkpt>
      <trkpt lat="45.62796" lon="6.04615">
        <ele>1683.89</ele>
        <time>2020-10-25T11:24:46Z</time>
      </trkpt>
      <trkpt lat="45.6279" lon="6.04623">
        <ele>1682.44</ele>
        <time>2020-10-25T11:24:54Z</time>
      </trkpt>
      <trkpt lat="45.6279" lon="6.04625">
        <ele>1681.48</ele>
        <time>2020-10-25T11:24:56Z</time>
      </trkpt>
      <trkpt lat="45.62785" lon="6.0463">
        <ele>1680.52</ele>
        <time>2020-10-25T11:25:01Z</time>
      </trkpt>
      <trkpt lat="45.62782" lon="6.04631">
        <ele>1680.52</ele>
        <time>2020-10-25T11:25:03Z</time>
      </trkpt>
      <trkpt lat="45.62778" lon="6.04634">
        <ele>1679.56</ele>
        <time>2020-10-25T11:25:07Z</time>
      </trkpt>
      <trkpt lat="45.62777" lon="6.04636">
        <ele>1679.08</ele>
        <time>2020-10-25T11:25:09Z</time>
      </trkpt>
      <trkpt lat="45.62774" lon="6.04638">
        <ele>1678.6</ele>
        <time>2020-10-25T11:25:14Z</time>
      </trkpt>
      <trkpt lat="45.6277" lon="6.04641">
        <ele>1678.6</ele>
        <time>2020-10-25T11:25:18Z</time>
      </trkpt>
      <trkpt lat="45.62769" lon="6.04644">
        <ele>1677.64</ele>
        <time>2020-10-25T11:25:20Z</time>
      </trkpt>
      <trkpt lat="45.6276" lon="6.04653">
        <ele>1676.2</ele>
        <time>2020-10-25T11:25:30Z</time>
      </trkpt>
      <trkpt lat="45.62756" lon="6.04657">
        <ele>1675.72</ele>
        <time>2020-10-25T11:25:34Z</time>
      </trkpt>
      <trkpt lat="45.62756" lon="6.04664">
        <ele>1673.79</ele>
        <time>2020-10-25T11:25:38Z</time>
      </trkpt>
      <trkpt lat="45.62757" lon="6.04667">
        <ele>1672.83</ele>
        <time>2020-10-25T11:25:40Z</time>
      </trkpt>
      <trkpt lat="45.62753" lon="6.0467">
        <ele>1671.39</ele>
        <time>2020-10-25T11:25:45Z</time>
      </trkpt>
      <trkpt lat="45.62747" lon="6.04676">
        <ele>1669.95</ele>
        <time>2020-10-25T11:25:50Z</time>
      </trkpt>
      <trkpt lat="45.62745" lon="6.0468">
        <ele>1669.47</ele>
        <time>2020-10-25T11:25:53Z</time>
      </trkpt>
      <trkpt lat="45.62743" lon="6.04682">
        <ele>1668.99</ele>
        <time>2020-10-25T11:25:56Z</time>
      </trkpt>
      <trkpt lat="45.62743" lon="6.04686">
        <ele>1668.02</ele>
        <time>2020-10-25T11:25:58Z</time>
      </trkpt>
      <trkpt lat="45.62733" lon="6.04696">
        <ele>1666.58</ele>
        <time>2020-10-25T11:26:07Z</time>
      </trkpt>
      <trkpt lat="45.62729" lon="6.04703">
        <ele>1665.62</ele>
        <time>2020-10-25T11:26:12Z</time>
      </trkpt>
      <trkpt lat="45.62723" lon="6.04707">
        <ele>1664.66</ele>
        <time>2020-10-25T11:26:17Z</time>
      </trkpt>
      <trkpt lat="45.62711" lon="6.04731">
        <ele>1662.26</ele>
        <time>2020-10-25T11:26:32Z</time>
      </trkpt>
      <trkpt lat="45.62703" lon="6.04745">
        <ele>1659.85</ele>
        <time>2020-10-25T11:26:41Z</time>
      </trkpt>
      <trkpt lat="45.62691" lon="6.04758">
        <ele>1658.41</ele>
        <time>2020-10-25T11:26:52Z</time>
      </trkpt>
      <trkpt lat="45.62682" lon="6.04761">
        <ele>1657.93</ele>
        <time>2020-10-25T11:26:59Z</time>
      </trkpt>
      <trkpt lat="45.6267" lon="6.04766">
        <ele>1655.05</ele>
        <time>2020-10-25T11:27:08Z</time>
      </trkpt>
      <trkpt lat="45.62658" lon="6.04771">
        <ele>1653.12</ele>
        <time>2020-10-25T11:27:17Z</time>
      </trkpt>
      <trkpt lat="45.62639" lon="6.04779">
        <ele>1653.12</ele>
        <time>2020-10-25T11:27:31Z</time>
      </trkpt>
      <trkpt lat="45.62637" lon="6.04781">
        <ele>1652.64</ele>
        <time>2020-10-25T11:27:33Z</time>
      </trkpt>
      <trkpt lat="45.62629" lon="6.04788">
        <ele>1652.16</ele>
        <time>2020-10-25T11:27:39Z</time>
      </trkpt>
      <trkpt lat="45.62625" lon="6.0479">
        <ele>1652.16</ele>
        <time>2020-10-25T11:27:42Z</time>
      </trkpt>
      <trkpt lat="45.62615" lon="6.048">
        <ele>1651.68</ele>
        <time>2020-10-25T11:27:50Z</time>
      </trkpt>
      <trkpt lat="45.62612" lon="6.04804">
        <ele>1652.16</ele>
        <time>2020-10-25T11:27:53Z</time>
      </trkpt>
      <trkpt lat="45.62609" lon="6.04806">
        <ele>1650.72</ele>
        <time>2020-10-25T11:27:57Z</time>
      </trkpt>
      <trkpt lat="45.62599" lon="6.04813">
        <ele>1649.76</ele>
        <time>2020-10-25T11:28:05Z</time>
      </trkpt>
      <trkpt lat="45.62592" lon="6.04817">
        <ele>1649.28</ele>
        <time>2020-10-25T11:28:12Z</time>
      </trkpt>
      <trkpt lat="45.6259" lon="6.04817">
        <ele>1649.28</ele>
        <time>2020-10-25T11:28:14Z</time>
      </trkpt>
      <trkpt lat="45.62586" lon="6.04817">
        <ele>1649.28</ele>
        <time>2020-10-25T11:28:18Z</time>
      </trkpt>
      <trkpt lat="45.62584" lon="6.0482">
        <ele>1648.8</ele>
        <time>2020-10-25T11:28:21Z</time>
      </trkpt>
      <trkpt lat="45.62582" lon="6.0482">
        <ele>1647.84</ele>
        <time>2020-10-25T11:28:34Z</time>
      </trkpt>
      <trkpt lat="45.62581" lon="6.04819">
        <ele>1647.36</ele>
        <time>2020-10-25T11:28:51Z</time>
      </trkpt>
      <trkpt lat="45.62581" lon="6.04819">
        <ele>1647.36</ele>
        <time>2020-10-25T11:29:20Z</time>
      </trkpt>
      <trkpt lat="45.62581" lon="6.04818">
        <ele>1646.88</ele>
        <time>2020-10-25T11:29:47Z</time>
      </trkpt>
      <trkpt lat="45.62581" lon="6.04819">
        <ele>1648.32</ele>
        <time>2020-10-25T11:30:11Z</time>
      </trkpt>
      <trkpt lat="45.62581" lon="6.04819">
        <ele>1647.84</ele>
        <time>2020-10-25T11:30:22Z</time>
      </trkpt>
      <trkpt lat="45.62581" lon="6.04818">
        <ele>1648.32</ele>
        <time>2020-10-25T11:30:50Z</time>
      </trkpt>
      <trkpt lat="45.62579" lon="6.04822">
        <ele>1645.43</ele>
        <time>2020-10-25T11:30:59Z</time>
      </trkpt>
      <trkpt lat="45.62579" lon="6.04822">
        <ele>1646.88</ele>
        <time>2020-10-25T11:31:01Z</time>
      </trkpt>
      <trkpt lat="45.6258" lon="6.04822">
        <ele>1647.36</ele>
        <time>2020-10-25T11:31:18Z</time>
      </trkpt>
      <trkpt lat="45.6258" lon="6.04822">
        <ele>1647.84</ele>
        <time>2020-10-25T11:31:33Z</time>
      </trkpt>
      <trkpt lat="45.62579" lon="6.04822">
        <ele>1647.84</ele>
        <time>2020-10-25T11:31:51Z</time>
      </trkpt>
      <trkpt lat="45.6258" lon="6.04823">
        <ele>1646.88</ele>
        <time>2020-10-25T11:32:16Z</time>
      </trkpt>
      <trkpt lat="45.6258" lon="6.04823">
        <ele>1647.36</ele>
        <time>2020-10-25T11:32:34Z</time>
      </trkpt>
      <trkpt lat="45.62579" lon="6.04825">
        <ele>1648.32</ele>
        <time>2020-10-25T11:32:56Z</time>
      </trkpt>
      <trkpt lat="45.62578" lon="6.04826">
        <ele>1647.84</ele>
        <time>2020-10-25T11:32:58Z</time>
      </trkpt>
      <trkpt lat="45.62576" lon="6.04831">
        <ele>1647.36</ele>
        <time>2020-10-25T11:33:02Z</time>
      </trkpt>
      <trkpt lat="45.62575" lon="6.04835">
        <ele>1645.91</ele>
        <time>2020-10-25T11:33:07Z</time>
      </trkpt>
      <trkpt lat="45.62573" lon="6.04839">
        <ele>1645.91</ele>
        <time>2020-10-25T11:33:10Z</time>
      </trkpt>
      <trkpt lat="45.62568" lon="6.04855">
        <ele>1643.51</ele>
        <time>2020-10-25T11:33:23Z</time>
      </trkpt>
      <trkpt lat="45.62564" lon="6.04861">
        <ele>1643.03</ele>
        <time>2020-10-25T11:33:28Z</time>
      </trkpt>
      <trkpt lat="45.62556" lon="6.04876">
        <ele>1641.59</ele>
        <time>2020-10-25T11:33:40Z</time>
      </trkpt>
      <trkpt lat="45.62552" lon="6.04882">
        <ele>1641.11</ele>
        <time>2020-10-25T11:33:45Z</time>
      </trkpt>
      <trkpt lat="45.6255" lon="6.04884">
        <ele>1641.59</ele>
        <time>2020-10-25T11:33:47Z</time>
      </trkpt>
      <trkpt lat="45.62548" lon="6.04889">
        <ele>1641.11</ele>
        <time>2020-10-25T11:33:50Z</time>
      </trkpt>
      <trkpt lat="45.62544" lon="6.04895">
        <ele>1641.11</ele>
        <time>2020-10-25T11:33:55Z</time>
      </trkpt>
      <trkpt lat="45.62542" lon="6.04896">
        <ele>1641.11</ele>
        <time>2020-10-25T11:33:57Z</time>
      </trkpt>
      <trkpt lat="45.62535" lon="6.04911">
        <ele>1640.63</ele>
        <time>2020-10-25T11:34:08Z</time>
      </trkpt>
      <trkpt lat="45.62528" lon="6.0492">
        <ele>1641.11</ele>
        <time>2020-10-25T11:34:17Z</time>
      </trkpt>
      <trkpt lat="45.62522" lon="6.0493">
        <ele>1641.11</ele>
        <time>2020-10-25T11:34:24Z</time>
      </trkpt>
      <trkpt lat="45.62514" lon="6.0494">
        <ele>1640.63</ele>
        <time>2020-10-25T11:34:33Z</time>
      </trkpt>
      <trkpt lat="45.62508" lon="6.04949">
        <ele>1639.67</ele>
        <time>2020-10-25T11:34:40Z</time>
      </trkpt>
      <trkpt lat="45.62507" lon="6.04953">
        <ele>1639.19</ele>
        <time>2020-10-25T11:34:43Z</time>
      </trkpt>
      <trkpt lat="45.62497" lon="6.04966">
        <ele>1637.26</ele>
        <time>2020-10-25T11:34:55Z</time>
      </trkpt>
      <trkpt lat="45.62492" lon="6.04974">
        <ele>1636.3</ele>
        <time>2020-10-25T11:35:02Z</time>
      </trkpt>
      <trkpt lat="45.62489" lon="6.04979">
        <ele>1635.82</ele>
        <time>2020-10-25T11:35:06Z</time>
      </trkpt>
      <trkpt lat="45.62488" lon="6.04984">
        <ele>1635.82</ele>
        <time>2020-10-25T11:35:12Z</time>
      </trkpt>
      <trkpt lat="45.62486" lon="6.04986">
        <ele>1634.86</ele>
        <time>2020-10-25T11:35:15Z</time>
      </trkpt>
      <trkpt lat="45.62484" lon="6.04992">
        <ele>1634.86</ele>
        <time>2020-10-25T11:35:19Z</time>
      </trkpt>
      <trkpt lat="45.62482" lon="6.04995">
        <ele>1634.86</ele>
        <time>2020-10-25T11:35:22Z</time>
      </trkpt>
      <trkpt lat="45.6248" lon="6.04999">
        <ele>1634.86</ele>
        <time>2020-10-25T11:35:25Z</time>
      </trkpt>
      <trkpt lat="45.62471" lon="6.05008">
        <ele>1635.34</ele>
        <time>2020-10-25T11:35:34Z</time>
      </trkpt>
      <trkpt lat="45.62465" lon="6.05015">
        <ele>1635.34</ele>
        <time>2020-10-25T11:35:46Z</time>
      </trkpt>
      <trkpt lat="45.62465" lon="6.05016">
        <ele>1634.86</ele>
        <time>2020-10-25T11:36:09Z</time>
      </trkpt>
      <trkpt lat="45.62462" lon="6.05019">
        <ele>1634.38</ele>
        <time>2020-10-25T11:36:33Z</time>
      </trkpt>
      <trkpt lat="45.62459" lon="6.05022">
        <ele>1632.94</ele>
        <time>2020-10-25T11:36:38Z</time>
      </trkpt>
      <trkpt lat="45.62458" lon="6.05026">
        <ele>1633.9</ele>
        <time>2020-10-25T11:36:41Z</time>
      </trkpt>
      <trkpt lat="45.62451" lon="6.05029">
        <ele>1631.49</ele>
        <time>2020-10-25T11:36:52Z</time>
      </trkpt>
      <trkpt lat="45.62451" lon="6.05029">
        <ele>1631.49</ele>
        <time>2020-10-25T11:36:56Z</time>
      </trkpt>
      <trkpt lat="45.62448" lon="6.05034">
        <ele>1631.01</ele>
        <time>2020-10-25T11:37:00Z</time>
      </trkpt>
      <trkpt lat="45.62441" lon="6.05047">
        <ele>1629.09</ele>
        <time>2020-10-25T11:37:10Z</time>
      </trkpt>
      <trkpt lat="45.62437" lon="6.0505">
        <ele>1629.09</ele>
        <time>2020-10-25T11:37:14Z</time>
      </trkpt>
      <trkpt lat="45.62435" lon="6.05053">
        <ele>1628.13</ele>
        <time>2020-10-25T11:37:17Z</time>
      </trkpt>
      <trkpt lat="45.62428" lon="6.05064">
        <ele>1627.65</ele>
        <time>2020-10-25T11:37:26Z</time>
      </trkpt>
      <trkpt lat="45.62427" lon="6.05067">
        <ele>1627.65</ele>
        <time>2020-10-25T11:37:28Z</time>
      </trkpt>
      <trkpt lat="45.62425" lon="6.05069">
        <ele>1627.65</ele>
        <time>2020-10-25T11:37:31Z</time>
      </trkpt>
      <trkpt lat="45.62423" lon="6.05075">
        <ele>1625.73</ele>
        <time>2020-10-25T11:37:35Z</time>
      </trkpt>
      <trkpt lat="45.62421" lon="6.0508">
        <ele>1625.73</ele>
        <time>2020-10-25T11:37:39Z</time>
      </trkpt>
      <trkpt lat="45.62419" lon="6.0508">
        <ele>1624.77</ele>
        <time>2020-10-25T11:37:41Z</time>
      </trkpt>
      <trkpt lat="45.62415" lon="6.05083">
        <ele>1624.77</ele>
        <time>2020-10-25T11:37:46Z</time>
      </trkpt>
      <trkpt lat="45.62411" lon="6.05086">
        <ele>1623.8</ele>
        <time>2020-10-25T11:37:51Z</time>
      </trkpt>
      <trkpt lat="45.62403" lon="6.05098">
        <ele>1620.44</ele>
        <time>2020-10-25T11:38:02Z</time>
      </trkpt>
      <trkpt lat="45.624" lon="6.05098">
        <ele>1619.96</ele>
        <time>2020-10-25T11:38:06Z</time>
      </trkpt>
      <trkpt lat="45.62398" lon="6.05099">
        <ele>1619.48</ele>
        <time>2020-10-25T11:38:09Z</time>
      </trkpt>
      <trkpt lat="45.62391" lon="6.05104">
        <ele>1616.11</ele>
        <time>2020-10-25T11:38:16Z</time>
      </trkpt>
      <trkpt lat="45.62389" lon="6.05103">
        <ele>1615.63</ele>
        <time>2020-10-25T11:38:18Z</time>
      </trkpt>
      <trkpt lat="45.62388" lon="6.05103">
        <ele>1615.63</ele>
        <time>2020-10-25T11:38:19Z</time>
      </trkpt>
      <trkpt lat="45.62381" lon="6.051">
        <ele>1612.75</ele>
        <time>2020-10-25T11:38:27Z</time>
      </trkpt>
      <trkpt lat="45.62377" lon="6.05101">
        <ele>1612.27</ele>
        <time>2020-10-25T11:38:31Z</time>
      </trkpt>
      <trkpt lat="45.62371" lon="6.051">
        <ele>1609.86</ele>
        <time>2020-10-25T11:38:39Z</time>
      </trkpt>
      <trkpt lat="45.62366" lon="6.05099">
        <ele>1608.9</ele>
        <time>2020-10-25T11:38:43Z</time>
      </trkpt>
      <trkpt lat="45.62359" lon="6.05098">
        <ele>1608.42</ele>
        <time>2020-10-25T11:38:49Z</time>
      </trkpt>
      <trkpt lat="45.62355" lon="6.05098">
        <ele>1607.46</ele>
        <time>2020-10-25T11:38:53Z</time>
      </trkpt>
      <trkpt lat="45.6235" lon="6.05098">
        <ele>1606.5</ele>
        <time>2020-10-25T11:38:58Z</time>
      </trkpt>
      <trkpt lat="45.62343" lon="6.05097">
        <ele>1604.1</ele>
        <time>2020-10-25T11:39:11Z</time>
      </trkpt>
      <trkpt lat="45.62342" lon="6.05098">
        <ele>1604.1</ele>
        <time>2020-10-25T11:39:27Z</time>
      </trkpt>
      <trkpt lat="45.62342" lon="6.05098">
        <ele>1603.62</ele>
        <time>2020-10-25T11:39:53Z</time>
      </trkpt>
      <trkpt lat="45.62342" lon="6.05098">
        <ele>1603.62</ele>
        <time>2020-10-25T11:40:07Z</time>
      </trkpt>
      <trkpt lat="45.62337" lon="6.05097">
        <ele>1602.66</ele>
        <time>2020-10-25T11:40:11Z</time>
      </trkpt>
      <trkpt lat="45.62331" lon="6.05102">
        <ele>1601.69</ele>
        <time>2020-10-25T11:40:18Z</time>
      </trkpt>
      <trkpt lat="45.62329" lon="6.05106">
        <ele>1600.25</ele>
        <time>2020-10-25T11:40:23Z</time>
      </trkpt>
      <trkpt lat="45.62329" lon="6.05109">
        <ele>1599.29</ele>
        <time>2020-10-25T11:40:36Z</time>
      </trkpt>
      <trkpt lat="45.62328" lon="6.05113">
        <ele>1596.89</ele>
        <time>2020-10-25T11:40:47Z</time>
      </trkpt>
      <trkpt lat="45.62326" lon="6.05117">
        <ele>1595.45</ele>
        <time>2020-10-25T11:40:57Z</time>
      </trkpt>
      <trkpt lat="45.62326" lon="6.05117">
        <ele>1594.48</ele>
        <time>2020-10-25T11:40:59Z</time>
      </trkpt>
      <trkpt lat="45.62323" lon="6.05113">
        <ele>1593.52</ele>
        <time>2020-10-25T11:41:03Z</time>
      </trkpt>
      <trkpt lat="45.62316" lon="6.05101">
        <ele>1592.56</ele>
        <time>2020-10-25T11:41:15Z</time>
      </trkpt>
      <trkpt lat="45.62312" lon="6.05091">
        <ele>1590.16</ele>
        <time>2020-10-25T11:41:26Z</time>
      </trkpt>
      <trkpt lat="45.62312" lon="6.0509">
        <ele>1589.2</ele>
        <time>2020-10-25T11:41:27Z</time>
      </trkpt>
      <trkpt lat="45.62308" lon="6.05082">
        <ele>1586.79</ele>
        <time>2020-10-25T11:41:38Z</time>
      </trkpt>
      <trkpt lat="45.62309" lon="6.05083">
        <ele>1586.79</ele>
        <time>2020-10-25T11:41:39Z</time>
      </trkpt>
      <trkpt lat="45.62312" lon="6.05084">
        <ele>1588.72</ele>
        <time>2020-10-25T11:41:52Z</time>
      </trkpt>
      <trkpt lat="45.6231" lon="6.05084">
        <ele>1588.24</ele>
        <time>2020-10-25T11:41:54Z</time>
      </trkpt>
      <trkpt lat="45.62306" lon="6.05078">
        <ele>1587.75</ele>
        <time>2020-10-25T11:41:58Z</time>
      </trkpt>
      <trkpt lat="45.62303" lon="6.05074">
        <ele>1587.27</ele>
        <time>2020-10-25T11:42:01Z</time>
      </trkpt>
      <trkpt lat="45.62299" lon="6.05069">
        <ele>1586.31</ele>
        <time>2020-10-25T11:42:05Z</time>
      </trkpt>
      <trkpt lat="45.62296" lon="6.05067">
        <ele>1585.83</ele>
        <time>2020-10-25T11:42:07Z</time>
      </trkpt>
      <trkpt lat="45.62291" lon="6.05061">
        <ele>1585.35</ele>
        <time>2020-10-25T11:42:12Z</time>
      </trkpt>
      <trkpt lat="45.62284" lon="6.05053">
        <ele>1583.91</ele>
        <time>2020-10-25T11:42:18Z</time>
      </trkpt>
      <trkpt lat="45.62283" lon="6.05051">
        <ele>1583.91</ele>
        <time>2020-10-25T11:42:20Z</time>
      </trkpt>
      <trkpt lat="45.62279" lon="6.0505">
        <ele>1584.39</ele>
        <time>2020-10-25T11:42:23Z</time>
      </trkpt>
      <trkpt lat="45.62266" lon="6.05051">
        <ele>1581.51</ele>
        <time>2020-10-25T11:42:32Z</time>
      </trkpt>
      <trkpt lat="45.62263" lon="6.05054">
        <ele>1580.06</ele>
        <time>2020-10-25T11:42:35Z</time>
      </trkpt>
      <trkpt lat="45.62259" lon="6.05057">
        <ele>1579.58</ele>
        <time>2020-10-25T11:42:39Z</time>
      </trkpt>
      <trkpt lat="45.62252" lon="6.05064">
        <ele>1577.66</ele>
        <time>2020-10-25T11:42:47Z</time>
      </trkpt>
      <trkpt lat="45.62248" lon="6.05065">
        <ele>1576.7</ele>
        <time>2020-10-25T11:42:50Z</time>
      </trkpt>
      <trkpt lat="45.62237" lon="6.05078">
        <ele>1575.26</ele>
        <time>2020-10-25T11:43:02Z</time>
      </trkpt>
      <trkpt lat="45.6223" lon="6.05084">
        <ele>1574.3</ele>
        <time>2020-10-25T11:43:14Z</time>
      </trkpt>
      <trkpt lat="45.62228" lon="6.05085">
        <ele>1573.33</ele>
        <time>2020-10-25T11:43:17Z</time>
      </trkpt>
      <trkpt lat="45.62222" lon="6.05097">
        <ele>1569.97</ele>
        <time>2020-10-25T11:43:28Z</time>
      </trkpt>
      <trkpt lat="45.62221" lon="6.051">
        <ele>1570.45</ele>
        <time>2020-10-25T11:43:31Z</time>
      </trkpt>
      <trkpt lat="45.62213" lon="6.05112">
        <ele>1567.09</ele>
        <time>2020-10-25T11:43:43Z</time>
      </trkpt>
      <trkpt lat="45.62212" lon="6.05113">
        <ele>1565.64</ele>
        <time>2020-10-25T11:43:55Z</time>
      </trkpt>
      <trkpt lat="45.6221" lon="6.05118">
        <ele>1563.24</ele>
        <time>2020-10-25T11:44:09Z</time>
      </trkpt>
      <trkpt lat="45.62206" lon="6.0512">
        <ele>1560.84</ele>
        <time>2020-10-25T11:44:20Z</time>
      </trkpt>
      <trkpt lat="45.62205" lon="6.05121">
        <ele>1560.84</ele>
        <time>2020-10-25T11:44:21Z</time>
      </trkpt>
      <trkpt lat="45.622" lon="6.05125">
        <ele>1557.47</ele>
        <time>2020-10-25T11:44:31Z</time>
      </trkpt>
      <trkpt lat="45.62197" lon="6.05126">
        <ele>1556.51</ele>
        <time>2020-10-25T11:44:35Z</time>
      </trkpt>
      <trkpt lat="45.62196" lon="6.05126">
        <ele>1556.51</ele>
        <time>2020-10-25T11:44:36Z</time>
      </trkpt>
      <trkpt lat="45.62196" lon="6.05124">
        <ele>1556.03</ele>
        <time>2020-10-25T11:44:48Z</time>
      </trkpt>
      <trkpt lat="45.62194" lon="6.05129">
        <ele>1555.07</ele>
        <time>2020-10-25T11:44:54Z</time>
      </trkpt>
      <trkpt lat="45.62189" lon="6.0513">
        <ele>1554.11</ele>
        <time>2020-10-25T11:45:07Z</time>
      </trkpt>
      <trkpt lat="45.62189" lon="6.05135">
        <ele>1553.63</ele>
        <time>2020-10-25T11:45:18Z</time>
      </trkpt>
      <trkpt lat="45.62189" lon="6.05135">
        <ele>1553.63</ele>
        <time>2020-10-25T11:45:45Z</time>
      </trkpt>
      <trkpt lat="45.62191" lon="6.05136">
        <ele>1552.19</ele>
        <time>2020-10-25T11:45:49Z</time>
      </trkpt>
      <trkpt lat="45.6219" lon="6.05136">
        <ele>1551.71</ele>
        <time>2020-10-25T11:46:19Z</time>
      </trkpt>
      <trkpt lat="45.6219" lon="6.05136">
        <ele>1551.71</ele>
        <time>2020-10-25T11:46:51Z</time>
      </trkpt>
      <trkpt lat="45.62189" lon="6.05138">
        <ele>1552.19</ele>
        <time>2020-10-25T11:46:59Z</time>
      </trkpt>
      <trkpt lat="45.62183" lon="6.05145">
        <ele>1552.19</ele>
        <time>2020-10-25T11:47:10Z</time>
      </trkpt>
      <trkpt lat="45.62176" lon="6.05149">
        <ele>1552.19</ele>
        <time>2020-10-25T11:47:22Z</time>
      </trkpt>
      <trkpt lat="45.62171" lon="6.05154">
        <ele>1548.82</ele>
        <time>2020-10-25T11:47:32Z</time>
      </trkpt>
      <trkpt lat="45.62171" lon="6.05163">
        <ele>1547.86</ele>
        <time>2020-10-25T11:47:42Z</time>
      </trkpt>
      <trkpt lat="45.6217" lon="6.05173">
        <ele>1544.98</ele>
        <time>2020-10-25T11:47:54Z</time>
      </trkpt>
      <trkpt lat="45.62163" lon="6.0518">
        <ele>1541.61</ele>
        <time>2020-10-25T11:48:07Z</time>
      </trkpt>
      <trkpt lat="45.62152" lon="6.0518">
        <ele>1540.65</ele>
        <time>2020-10-25T11:48:19Z</time>
      </trkpt>
      <trkpt lat="45.6215" lon="6.05188">
        <ele>1538.73</ele>
        <time>2020-10-25T11:48:31Z</time>
      </trkpt>
      <trkpt lat="45.62151" lon="6.05199">
        <ele>1537.77</ele>
        <time>2020-10-25T11:48:43Z</time>
      </trkpt>
      <trkpt lat="45.62149" lon="6.05205">
        <ele>1534.4</ele>
        <time>2020-10-25T11:48:53Z</time>
      </trkpt>
      <trkpt lat="45.62149" lon="6.05206">
        <ele>1533.92</ele>
        <time>2020-10-25T11:48:55Z</time>
      </trkpt>
      <trkpt lat="45.62144" lon="6.05214">
        <ele>1531.04</ele>
        <time>2020-10-25T11:49:07Z</time>
      </trkpt>
      <trkpt lat="45.62139" lon="6.05214">
        <ele>1527.67</ele>
        <time>2020-10-25T11:49:15Z</time>
      </trkpt>
      <trkpt lat="45.62133" lon="6.05211">
        <ele>1525.75</ele>
        <time>2020-10-25T11:49:23Z</time>
      </trkpt>
      <trkpt lat="45.62129" lon="6.0521">
        <ele>1524.31</ele>
        <time>2020-10-25T11:49:27Z</time>
      </trkpt>
      <trkpt lat="45.62127" lon="6.0521">
        <ele>1523.83</ele>
        <time>2020-10-25T11:49:32Z</time>
      </trkpt>
      <trkpt lat="45.62122" lon="6.05215">
        <ele>1521.42</ele>
        <time>2020-10-25T11:49:44Z</time>
      </trkpt>
      <trkpt lat="45.62111" lon="6.05226">
        <ele>1518.54</ele>
        <time>2020-10-25T11:49:57Z</time>
      </trkpt>
      <trkpt lat="45.62111" lon="6.05226">
        <ele>1518.54</ele>
        <time>2020-10-25T11:49:58Z</time>
      </trkpt>
      <trkpt lat="45.62107" lon="6.05231">
        <ele>1516.14</ele>
        <time>2020-10-25T11:50:10Z</time>
      </trkpt>
      <trkpt lat="45.62098" lon="6.05228">
        <ele>1513.25</ele>
        <time>2020-10-25T11:50:24Z</time>
      </trkpt>
      <trkpt lat="45.62094" lon="6.05223">
        <ele>1512.29</ele>
        <time>2020-10-25T11:50:32Z</time>
      </trkpt>
      <trkpt lat="45.62095" lon="6.05225">
        <ele>1510.37</ele>
        <time>2020-10-25T11:50:44Z</time>
      </trkpt>
      <trkpt lat="45.62094" lon="6.05225">
        <ele>1511.81</ele>
        <time>2020-10-25T11:50:53Z</time>
      </trkpt>
      <trkpt lat="45.62094" lon="6.05225">
        <ele>1511.81</ele>
        <time>2020-10-25T11:51:09Z</time>
      </trkpt>
      <trkpt lat="45.62094" lon="6.05225">
        <ele>1511.81</ele>
        <time>2020-10-25T11:51:31Z</time>
      </trkpt>
      <trkpt lat="45.62094" lon="6.05223">
        <ele>1511.33</ele>
        <time>2020-10-25T11:51:54Z</time>
      </trkpt>
      <trkpt lat="45.62096" lon="6.05221">
        <ele>1509.41</ele>
        <time>2020-10-25T11:52:00Z</time>
      </trkpt>
      <trkpt lat="45.62097" lon="6.05217">
        <ele>1508.45</ele>
        <time>2020-10-25T11:52:02Z</time>
      </trkpt>
      <trkpt lat="45.621" lon="6.05207">
        <ele>1504.6</ele>
        <time>2020-10-25T11:52:13Z</time>
      </trkpt>
      <trkpt lat="45.62098" lon="6.05202">
        <ele>1502.2</ele>
        <time>2020-10-25T11:52:23Z</time>
      </trkpt>
      <trkpt lat="45.62095" lon="6.052">
        <ele>1500.76</ele>
        <time>2020-10-25T11:52:26Z</time>
      </trkpt>
      <trkpt lat="45.62088" lon="6.052">
        <ele>1497.87</ele>
        <time>2020-10-25T11:52:36Z</time>
      </trkpt>
      <trkpt lat="45.62087" lon="6.05199">
        <ele>1497.39</ele>
        <time>2020-10-25T11:52:37Z</time>
      </trkpt>
      <trkpt lat="45.62089" lon="6.05194">
        <ele>1496.43</ele>
        <time>2020-10-25T11:52:48Z</time>
      </trkpt>
      <trkpt lat="45.62089" lon="6.05196">
        <ele>1496.43</ele>
        <time>2020-10-25T11:53:09Z</time>
      </trkpt>
      <trkpt lat="45.62081" lon="6.05194">
        <ele>1492.58</ele>
        <time>2020-10-25T11:53:21Z</time>
      </trkpt>
      <trkpt lat="45.62079" lon="6.05192">
        <ele>1492.1</ele>
        <time>2020-10-25T11:53:23Z</time>
      </trkpt>
      <trkpt lat="45.62075" lon="6.05185">
        <ele>1489.22</ele>
        <time>2020-10-25T11:53:30Z</time>
      </trkpt>
      <trkpt lat="45.62075" lon="6.05181">
        <ele>1487.78</ele>
        <time>2020-10-25T11:53:39Z</time>
      </trkpt>
      <trkpt lat="45.62074" lon="6.05182">
        <ele>1486.34</ele>
        <time>2020-10-25T11:53:55Z</time>
      </trkpt>
      <trkpt lat="45.62067" lon="6.0519">
        <ele>1482.97</ele>
        <time>2020-10-25T11:54:06Z</time>
      </trkpt>
      <trkpt lat="45.62062" lon="6.05189">
        <ele>1480.09</ele>
        <time>2020-10-25T11:54:16Z</time>
      </trkpt>
      <trkpt lat="45.62062" lon="6.05187">
        <ele>1477.68</ele>
        <time>2020-10-25T11:54:27Z</time>
      </trkpt>
      <trkpt lat="45.62056" lon="6.05191">
        <ele>1474.8</ele>
        <time>2020-10-25T11:54:39Z</time>
      </trkpt>
      <trkpt lat="45.62047" lon="6.0519">
        <ele>1471.92</ele>
        <time>2020-10-25T11:54:46Z</time>
      </trkpt>
      <trkpt lat="45.62036" lon="6.05194">
        <ele>1469.51</ele>
        <time>2020-10-25T11:54:57Z</time>
      </trkpt>
      <trkpt lat="45.62027" lon="6.05194">
        <ele>1467.59</ele>
        <time>2020-10-25T11:55:03Z</time>
      </trkpt>
      <trkpt lat="45.62018" lon="6.05197">
        <ele>1466.15</ele>
        <time>2020-10-25T11:55:09Z</time>
      </trkpt>
      <trkpt lat="45.61996" lon="6.05206">
        <ele>1463.74</ele>
        <time>2020-10-25T11:55:24Z</time>
      </trkpt>
      <trkpt lat="45.61981" lon="6.05206">
        <ele>1461.34</ele>
        <time>2020-10-25T11:55:38Z</time>
      </trkpt>
      <trkpt lat="45.61974" lon="6.05212">
        <ele>1458.46</ele>
        <time>2020-10-25T11:55:51Z</time>
      </trkpt>
      <trkpt lat="45.61964" lon="6.05216">
        <ele>1456.05</ele>
        <time>2020-10-25T11:56:02Z</time>
      </trkpt>
      <trkpt lat="45.61958" lon="6.05216">
        <ele>1452.21</ele>
        <time>2020-10-25T11:56:13Z</time>
      </trkpt>
      <trkpt lat="45.61943" lon="6.05215">
        <ele>1449.32</ele>
        <time>2020-10-25T11:56:27Z</time>
      </trkpt>
      <trkpt lat="45.61934" lon="6.05219">
        <ele>1446.44</ele>
        <time>2020-10-25T11:56:36Z</time>
      </trkpt>
      <trkpt lat="45.61926" lon="6.05217">
        <ele>1443.08</ele>
        <time>2020-10-25T11:56:45Z</time>
      </trkpt>
      <trkpt lat="45.61917" lon="6.05219">
        <ele>1439.71</ele>
        <time>2020-10-25T11:56:57Z</time>
      </trkpt>
      <trkpt lat="45.61907" lon="6.05218">
        <ele>1436.83</ele>
        <time>2020-10-25T11:57:05Z</time>
      </trkpt>
      <trkpt lat="45.61899" lon="6.05214">
        <ele>1433.46</ele>
        <time>2020-10-25T11:57:15Z</time>
      </trkpt>
      <trkpt lat="45.61895" lon="6.05212">
        <ele>1430.1</ele>
        <time>2020-10-25T11:57:25Z</time>
      </trkpt>
      <trkpt lat="45.61889" lon="6.05208">
        <ele>1427.21</ele>
        <time>2020-10-25T11:57:34Z</time>
      </trkpt>
      <trkpt lat="45.61887" lon="6.05207">
        <ele>1426.25</ele>
        <time>2020-10-25T11:57:36Z</time>
      </trkpt>
      <trkpt lat="45.61879" lon="6.05204">
        <ele>1423.37</ele>
        <time>2020-10-25T11:57:46Z</time>
      </trkpt>
      <trkpt lat="45.61871" lon="6.05207">
        <ele>1420.49</ele>
        <time>2020-10-25T11:57:55Z</time>
      </trkpt>
      <trkpt lat="45.61868" lon="6.05206">
        <ele>1417.6</ele>
        <time>2020-10-25T11:58:05Z</time>
      </trkpt>
      <trkpt lat="45.61862" lon="6.05207">
        <ele>1414.24</ele>
        <time>2020-10-25T11:58:16Z</time>
      </trkpt>
      <trkpt lat="45.61859" lon="6.05213">
        <ele>1410.87</ele>
        <time>2020-10-25T11:58:27Z</time>
      </trkpt>
      <trkpt lat="45.61848" lon="6.05212">
        <ele>1407.99</ele>
        <time>2020-10-25T11:58:37Z</time>
      </trkpt>
      <trkpt lat="45.61839" lon="6.0521">
        <ele>1405.1</ele>
        <time>2020-10-25T11:58:51Z</time>
      </trkpt>
      <trkpt lat="45.61825" lon="6.05205">
        <ele>1402.7</ele>
        <time>2020-10-25T11:59:01Z</time>
      </trkpt>
      <trkpt lat="45.61821" lon="6.052">
        <ele>1400.78</ele>
        <time>2020-10-25T11:59:06Z</time>
      </trkpt>
      <trkpt lat="45.6182" lon="6.052">
        <ele>1399.34</ele>
        <time>2020-10-25T11:59:09Z</time>
      </trkpt>
      <trkpt lat="45.61818" lon="6.05193">
        <ele>1396.45</ele>
        <time>2020-10-25T11:59:19Z</time>
      </trkpt>
      <trkpt lat="45.6181" lon="6.05182">
        <ele>1393.57</ele>
        <time>2020-10-25T11:59:29Z</time>
      </trkpt>
      <trkpt lat="45.61804" lon="6.05173">
        <ele>1390.2</ele>
        <time>2020-10-25T11:59:40Z</time>
      </trkpt>
      <trkpt lat="45.61797" lon="6.05169">
        <ele>1387.32</ele>
        <time>2020-10-25T11:59:52Z</time>
      </trkpt>
      <trkpt lat="45.61794" lon="6.05164">
        <ele>1384.44</ele>
        <time>2020-10-25T12:00:09Z</time>
      </trkpt>
      <trkpt lat="45.61791" lon="6.05159">
        <ele>1381.07</ele>
        <time>2020-10-25T12:00:19Z</time>
      </trkpt>
      <trkpt lat="45.61791" lon="6.05159">
        <ele>1380.59</ele>
        <time>2020-10-25T12:00:20Z</time>
      </trkpt>
      <trkpt lat="45.61783" lon="6.05152">
        <ele>1377.23</ele>
        <time>2020-10-25T12:00:32Z</time>
      </trkpt>
      <trkpt lat="45.61769" lon="6.05144">
        <ele>1374.34</ele>
        <time>2020-10-25T12:00:46Z</time>
      </trkpt>
      <trkpt lat="45.61758" lon="6.05146">
        <ele>1370.98</ele>
        <time>2020-10-25T12:00:59Z</time>
      </trkpt>
      <trkpt lat="45.61755" lon="6.05148">
        <ele>1370.02</ele>
        <time>2020-10-25T12:01:02Z</time>
      </trkpt>
      <trkpt lat="45.61752" lon="6.0515">
        <ele>1369.05</ele>
        <time>2020-10-25T12:01:04Z</time>
      </trkpt>
      <trkpt lat="45.61747" lon="6.05149">
        <ele>1367.13</ele>
        <time>2020-10-25T12:01:08Z</time>
      </trkpt>
      <trkpt lat="45.61738" lon="6.05139">
        <ele>1363.77</ele>
        <time>2020-10-25T12:01:17Z</time>
      </trkpt>
      <trkpt lat="45.61733" lon="6.05133">
        <ele>1361.84</ele>
        <time>2020-10-25T12:01:22Z</time>
      </trkpt>
      <trkpt lat="45.61732" lon="6.05119">
        <ele>1358</ele>
        <time>2020-10-25T12:01:31Z</time>
      </trkpt>
      <trkpt lat="45.61732" lon="6.05118">
        <ele>1358</ele>
        <time>2020-10-25T12:01:39Z</time>
      </trkpt>
      <trkpt lat="45.61733" lon="6.05114">
        <ele>1357.04</ele>
        <time>2020-10-25T12:01:42Z</time>
      </trkpt>
      <trkpt lat="45.61733" lon="6.05107">
        <ele>1356.08</ele>
        <time>2020-10-25T12:01:58Z</time>
      </trkpt>
      <trkpt lat="45.61732" lon="6.05106">
        <ele>1355.12</ele>
        <time>2020-10-25T12:02:03Z</time>
      </trkpt>
      <trkpt lat="45.6173" lon="6.05108">
        <ele>1354.63</ele>
        <time>2020-10-25T12:02:05Z</time>
      </trkpt>
      <trkpt lat="45.61724" lon="6.05117">
        <ele>1352.23</ele>
        <time>2020-10-25T12:02:13Z</time>
      </trkpt>
      <trkpt lat="45.61721" lon="6.05126">
        <ele>1350.31</ele>
        <time>2020-10-25T12:02:19Z</time>
      </trkpt>
      <trkpt lat="45.61711" lon="6.05133">
        <ele>1346.94</ele>
        <time>2020-10-25T12:02:28Z</time>
      </trkpt>
      <trkpt lat="45.61708" lon="6.0513">
        <ele>1345.98</ele>
        <time>2020-10-25T12:02:32Z</time>
      </trkpt>
      <trkpt lat="45.61702" lon="6.05136">
        <ele>1343.58</ele>
        <time>2020-10-25T12:02:40Z</time>
      </trkpt>
      <trkpt lat="45.61701" lon="6.05138">
        <ele>1343.1</ele>
        <time>2020-10-25T12:02:42Z</time>
      </trkpt>
      <trkpt lat="45.61698" lon="6.05142">
        <ele>1342.62</ele>
        <time>2020-10-25T12:02:46Z</time>
      </trkpt>
      <trkpt lat="45.61685" lon="6.05136">
        <ele>1342.62</ele>
        <time>2020-10-25T12:02:58Z</time>
      </trkpt>
      <trkpt lat="45.61672" lon="6.05136">
        <ele>1341.18</ele>
        <time>2020-10-25T12:03:10Z</time>
      </trkpt>
      <trkpt lat="45.61671" lon="6.05136">
        <ele>1341.18</ele>
        <time>2020-10-25T12:03:11Z</time>
      </trkpt>
      <trkpt lat="45.61666" lon="6.05139">
        <ele>1341.18</ele>
        <time>2020-10-25T12:03:16Z</time>
      </trkpt>
      <trkpt lat="45.61663" lon="6.05143">
        <ele>1339.25</ele>
        <time>2020-10-25T12:03:19Z</time>
      </trkpt>
      <trkpt lat="45.6166" lon="6.05143">
        <ele>1340.22</ele>
        <time>2020-10-25T12:03:22Z</time>
      </trkpt>
      <trkpt lat="45.61657" lon="6.05145">
        <ele>1340.22</ele>
        <time>2020-10-25T12:03:26Z</time>
      </trkpt>
      <trkpt lat="45.61653" lon="6.05139">
        <ele>1338.77</ele>
        <time>2020-10-25T12:03:35Z</time>
      </trkpt>
      <trkpt lat="45.61651" lon="6.05137">
        <ele>1337.81</ele>
        <time>2020-10-25T12:03:44Z</time>
      </trkpt>
      <trkpt lat="45.61649" lon="6.05135">
        <ele>1336.37</ele>
        <time>2020-10-25T12:03:50Z</time>
      </trkpt>
      <trkpt lat="45.61647" lon="6.05131">
        <ele>1335.41</ele>
        <time>2020-10-25T12:03:53Z</time>
      </trkpt>
      <trkpt lat="45.61641" lon="6.05129">
        <ele>1334.45</ele>
        <time>2020-10-25T12:04:05Z</time>
      </trkpt>
      <trkpt lat="45.61641" lon="6.05129">
        <ele>1333.97</ele>
        <time>2020-10-25T12:04:11Z</time>
      </trkpt>
      <trkpt lat="45.61631" lon="6.05122">
        <ele>1332.04</ele>
        <time>2020-10-25T12:04:24Z</time>
      </trkpt>
      <trkpt lat="45.61628" lon="6.05118">
        <ele>1329.64</ele>
        <time>2020-10-25T12:04:36Z</time>
      </trkpt>
      <trkpt lat="45.61625" lon="6.05115">
        <ele>1328.2</ele>
        <time>2020-10-25T12:04:46Z</time>
      </trkpt>
      <trkpt lat="45.61623" lon="6.05111">
        <ele>1326.76</ele>
        <time>2020-10-25T12:04:53Z</time>
      </trkpt>
      <trkpt lat="45.61621" lon="6.05106">
        <ele>1325.8</ele>
        <time>2020-10-25T12:04:56Z</time>
      </trkpt>
      <trkpt lat="45.61607" lon="6.05097">
        <ele>1323.87</ele>
        <time>2020-10-25T12:05:08Z</time>
      </trkpt>
      <trkpt lat="45.61598" lon="6.05087">
        <ele>1320.51</ele>
        <time>2020-10-25T12:05:19Z</time>
      </trkpt>
      <trkpt lat="45.61591" lon="6.05084">
        <ele>1318.59</ele>
        <time>2020-10-25T12:05:32Z</time>
      </trkpt>
      <trkpt lat="45.61584" lon="6.05079">
        <ele>1315.7</ele>
        <time>2020-10-25T12:05:46Z</time>
      </trkpt>
      <trkpt lat="45.61574" lon="6.05069">
        <ele>1313.3</ele>
        <time>2020-10-25T12:05:56Z</time>
      </trkpt>
      <trkpt lat="45.61568" lon="6.05067">
        <ele>1310.41</ele>
        <time>2020-10-25T12:06:10Z</time>
      </trkpt>
      <trkpt lat="45.61562" lon="6.0506">
        <ele>1308.01</ele>
        <time>2020-10-25T12:06:21Z</time>
      </trkpt>
      <trkpt lat="45.61559" lon="6.05059">
        <ele>1307.53</ele>
        <time>2020-10-25T12:06:23Z</time>
      </trkpt>
      <trkpt lat="45.61549" lon="6.05059">
        <ele>1303.69</ele>
        <time>2020-10-25T12:06:36Z</time>
      </trkpt>
      <trkpt lat="45.61555" lon="6.05046">
        <ele>1300.8</ele>
        <time>2020-10-25T12:06:49Z</time>
      </trkpt>
      <trkpt lat="45.61554" lon="6.05042">
        <ele>1298.4</ele>
        <time>2020-10-25T12:07:00Z</time>
      </trkpt>
      <trkpt lat="45.61542" lon="6.0505">
        <ele>1295.03</ele>
        <time>2020-10-25T12:07:12Z</time>
      </trkpt>
      <trkpt lat="45.61537" lon="6.05053">
        <ele>1294.07</ele>
        <time>2020-10-25T12:07:17Z</time>
      </trkpt>
      <trkpt lat="45.61532" lon="6.05056">
        <ele>1291.67</ele>
        <time>2020-10-25T12:07:31Z</time>
      </trkpt>
      <trkpt lat="45.61528" lon="6.05055">
        <ele>1289.75</ele>
        <time>2020-10-25T12:07:41Z</time>
      </trkpt>
      <trkpt lat="45.61522" lon="6.05045">
        <ele>1287.34</ele>
        <time>2020-10-25T12:07:50Z</time>
      </trkpt>
      <trkpt lat="45.61524" lon="6.05033">
        <ele>1283.98</ele>
        <time>2020-10-25T12:08:03Z</time>
      </trkpt>
      <trkpt lat="45.61518" lon="6.0503">
        <ele>1281.09</ele>
        <time>2020-10-25T12:08:15Z</time>
      </trkpt>
      <trkpt lat="45.61514" lon="6.05035">
        <ele>1279.65</ele>
        <time>2020-10-25T12:08:31Z</time>
      </trkpt>
      <trkpt lat="45.61509" lon="6.05031">
        <ele>1276.29</ele>
        <time>2020-10-25T12:08:42Z</time>
      </trkpt>
      <trkpt lat="45.61508" lon="6.0503">
        <ele>1276.29</ele>
        <time>2020-10-25T12:08:43Z</time>
      </trkpt>
      <trkpt lat="45.61505" lon="6.05021">
        <ele>1274.85</ele>
        <time>2020-10-25T12:08:51Z</time>
      </trkpt>
      <trkpt lat="45.615" lon="6.05012">
        <ele>1271</ele>
        <time>2020-10-25T12:09:03Z</time>
      </trkpt>
      <trkpt lat="45.61493" lon="6.05004">
        <ele>1268.12</ele>
        <time>2020-10-25T12:09:16Z</time>
      </trkpt>
      <trkpt lat="45.61489" lon="6.04998">
        <ele>1265.23</ele>
        <time>2020-10-25T12:09:27Z</time>
      </trkpt>
      <trkpt lat="45.61478" lon="6.04983">
        <ele>1262.83</ele>
        <time>2020-10-25T12:09:41Z</time>
      </trkpt>
      <trkpt lat="45.61469" lon="6.04976">
        <ele>1259.46</ele>
        <time>2020-10-25T12:09:53Z</time>
      </trkpt>
      <trkpt lat="45.61455" lon="6.04965">
        <ele>1256.1</ele>
        <time>2020-10-25T12:10:06Z</time>
      </trkpt>
      <trkpt lat="45.61448" lon="6.04958">
        <ele>1254.18</ele>
        <time>2020-10-25T12:10:18Z</time>
      </trkpt>
      <trkpt lat="45.61449" lon="6.04952">
        <ele>1252.25</ele>
        <time>2020-10-25T12:10:33Z</time>
      </trkpt>
      <trkpt lat="45.61453" lon="6.04949">
        <ele>1250.33</ele>
        <time>2020-10-25T12:10:39Z</time>
      </trkpt>
      <trkpt lat="45.61452" lon="6.04945">
        <ele>1247.45</ele>
        <time>2020-10-25T12:10:50Z</time>
      </trkpt>
      <trkpt lat="45.61451" lon="6.04944">
        <ele>1246.49</ele>
        <time>2020-10-25T12:10:52Z</time>
      </trkpt>
      <trkpt lat="45.61444" lon="6.04938">
        <ele>1243.12</ele>
        <time>2020-10-25T12:11:02Z</time>
      </trkpt>
      <trkpt lat="45.61437" lon="6.04931">
        <ele>1241.2</ele>
        <time>2020-10-25T12:11:09Z</time>
      </trkpt>
      <trkpt lat="45.61429" lon="6.04926">
        <ele>1237.83</ele>
        <time>2020-10-25T12:11:20Z</time>
      </trkpt>
      <trkpt lat="45.61434" lon="6.04918">
        <ele>1235.91</ele>
        <time>2020-10-25T12:11:33Z</time>
      </trkpt>
      <trkpt lat="45.61441" lon="6.04914">
        <ele>1233.51</ele>
        <time>2020-10-25T12:11:41Z</time>
      </trkpt>
      <trkpt lat="45.6145" lon="6.04903">
        <ele>1230.14</ele>
        <time>2020-10-25T12:11:53Z</time>
      </trkpt>
      <trkpt lat="45.61448" lon="6.04902">
        <ele>1228.22</ele>
        <time>2020-10-25T12:12:08Z</time>
      </trkpt>
      <trkpt lat="45.61441" lon="6.04897">
        <ele>1225.34</ele>
        <time>2020-10-25T12:12:17Z</time>
      </trkpt>
      <trkpt lat="45.6144" lon="6.04896">
        <ele>1224.86</ele>
        <time>2020-10-25T12:12:18Z</time>
      </trkpt>
      <trkpt lat="45.61435" lon="6.04883">
        <ele>1221.49</ele>
        <time>2020-10-25T12:12:27Z</time>
      </trkpt>
      <trkpt lat="45.6144" lon="6.04877">
        <ele>1218.13</ele>
        <time>2020-10-25T12:12:38Z</time>
      </trkpt>
      <trkpt lat="45.61444" lon="6.04874">
        <ele>1216.69</ele>
        <time>2020-10-25T12:12:43Z</time>
      </trkpt>
      <trkpt lat="45.61447" lon="6.04871">
        <ele>1215.72</ele>
        <time>2020-10-25T12:12:46Z</time>
      </trkpt>
      <trkpt lat="45.61442" lon="6.04863">
        <ele>1212.36</ele>
        <time>2020-10-25T12:12:57Z</time>
      </trkpt>
      <trkpt lat="45.61438" lon="6.04858">
        <ele>1210.92</ele>
        <time>2020-10-25T12:13:02Z</time>
      </trkpt>
      <trkpt lat="45.61431" lon="6.04851">
        <ele>1208.03</ele>
        <time>2020-10-25T12:13:12Z</time>
      </trkpt>
      <trkpt lat="45.61437" lon="6.04836">
        <ele>1205.15</ele>
        <time>2020-10-25T12:13:21Z</time>
      </trkpt>
      <trkpt lat="45.61438" lon="6.04833">
        <ele>1204.67</ele>
        <time>2020-10-25T12:13:23Z</time>
      </trkpt>
      <trkpt lat="45.61438" lon="6.04825">
        <ele>1201.3</ele>
        <time>2020-10-25T12:13:35Z</time>
      </trkpt>
      <trkpt lat="45.61439" lon="6.04824">
        <ele>1200.82</ele>
        <time>2020-10-25T12:13:38Z</time>
      </trkpt>
      <trkpt lat="45.61441" lon="6.04819">
        <ele>1199.86</ele>
        <time>2020-10-25T12:13:41Z</time>
      </trkpt>
      <trkpt lat="45.61449" lon="6.04813">
        <ele>1196.98</ele>
        <time>2020-10-25T12:13:53Z</time>
      </trkpt>
      <trkpt lat="45.61457" lon="6.04813">
        <ele>1193.61</ele>
        <time>2020-10-25T12:14:03Z</time>
      </trkpt>
      <trkpt lat="45.61448" lon="6.04805">
        <ele>1192.17</ele>
        <time>2020-10-25T12:14:17Z</time>
      </trkpt>
      <trkpt lat="45.61446" lon="6.04806">
        <ele>1192.17</ele>
        <time>2020-10-25T12:14:23Z</time>
      </trkpt>
      <trkpt lat="45.61427" lon="6.04805">
        <ele>1189.29</ele>
        <time>2020-10-25T12:14:37Z</time>
      </trkpt>
      <trkpt lat="45.6141" lon="6.04809">
        <ele>1185.92</ele>
        <time>2020-10-25T12:14:51Z</time>
      </trkpt>
      <trkpt lat="45.61395" lon="6.04818">
        <ele>1184.48</ele>
        <time>2020-10-25T12:15:02Z</time>
      </trkpt>
      <trkpt lat="45.6139" lon="6.04823">
        <ele>1184</ele>
        <time>2020-10-25T12:15:06Z</time>
      </trkpt>
      <trkpt lat="45.61373" lon="6.04815">
        <ele>1181.6</ele>
        <time>2020-10-25T12:15:20Z</time>
      </trkpt>
      <trkpt lat="45.61372" lon="6.04814">
        <ele>1181.6</ele>
        <time>2020-10-25T12:15:21Z</time>
      </trkpt>
      <trkpt lat="45.6136" lon="6.04803">
        <ele>1178.23</ele>
        <time>2020-10-25T12:15:35Z</time>
      </trkpt>
      <trkpt lat="45.61347" lon="6.04801">
        <ele>1174.87</ele>
        <time>2020-10-25T12:15:48Z</time>
      </trkpt>
      <trkpt lat="45.61338" lon="6.04799">
        <ele>1171.98</ele>
        <time>2020-10-25T12:16:00Z</time>
      </trkpt>
      <trkpt lat="45.61334" lon="6.04795">
        <ele>1169.1</ele>
        <time>2020-10-25T12:16:12Z</time>
      </trkpt>
      <trkpt lat="45.61324" lon="6.04794">
        <ele>1167.66</ele>
        <time>2020-10-25T12:16:21Z</time>
      </trkpt>
      <trkpt lat="45.6132" lon="6.0479">
        <ele>1167.18</ele>
        <time>2020-10-25T12:16:24Z</time>
      </trkpt>
      <trkpt lat="45.6131" lon="6.04771">
        <ele>1165.74</ele>
        <time>2020-10-25T12:16:33Z</time>
      </trkpt>
      <trkpt lat="45.61286" lon="6.04757">
        <ele>1163.33</ele>
        <time>2020-10-25T12:16:47Z</time>
      </trkpt>
      <trkpt lat="45.61287" lon="6.04751">
        <ele>1163.33</ele>
        <time>2020-10-25T12:17:06Z</time>
      </trkpt>
      <trkpt lat="45.61284" lon="6.04747">
        <ele>1163.33</ele>
        <time>2020-10-25T12:17:21Z</time>
      </trkpt>
      <trkpt lat="45.61282" lon="6.04745">
        <ele>1162.85</ele>
        <time>2020-10-25T12:17:23Z</time>
      </trkpt>
      <trkpt lat="45.61282" lon="6.04742">
        <ele>1162.37</ele>
        <time>2020-10-25T12:17:26Z</time>
      </trkpt>
      <trkpt lat="45.61275" lon="6.04731">
        <ele>1160.93</ele>
        <time>2020-10-25T12:17:37Z</time>
      </trkpt>
      <trkpt lat="45.61273" lon="6.04727">
        <ele>1160.45</ele>
        <time>2020-10-25T12:17:41Z</time>
      </trkpt>
      <trkpt lat="45.61262" lon="6.04715">
        <ele>1158.53</ele>
        <time>2020-10-25T12:17:54Z</time>
      </trkpt>
      <trkpt lat="45.61255" lon="6.04708">
        <ele>1157.08</ele>
        <time>2020-10-25T12:18:02Z</time>
      </trkpt>
      <trkpt lat="45.61249" lon="6.04702">
        <ele>1156.6</ele>
        <time>2020-10-25T12:18:07Z</time>
      </trkpt>
      <trkpt lat="45.61243" lon="6.04698">
        <ele>1155.64</ele>
        <time>2020-10-25T12:18:11Z</time>
      </trkpt>
      <trkpt lat="45.61239" lon="6.04699">
        <ele>1155.16</ele>
        <time>2020-10-25T12:18:14Z</time>
      </trkpt>
      <trkpt lat="45.61235" lon="6.04701">
        <ele>1154.2</ele>
        <time>2020-10-25T12:18:17Z</time>
      </trkpt>
      <trkpt lat="45.61232" lon="6.04703">
        <ele>1153.72</ele>
        <time>2020-10-25T12:18:21Z</time>
      </trkpt>
      <trkpt lat="45.61219" lon="6.04702">
        <ele>1152.28</ele>
        <time>2020-10-25T12:18:32Z</time>
      </trkpt>
      <trkpt lat="45.61205" lon="6.04689">
        <ele>1150.35</ele>
        <time>2020-10-25T12:18:45Z</time>
      </trkpt>
      <trkpt lat="45.61203" lon="6.04685">
        <ele>1149.87</ele>
        <time>2020-10-25T12:18:48Z</time>
      </trkpt>
      <trkpt lat="45.61197" lon="6.04679">
        <ele>1148.91</ele>
        <time>2020-10-25T12:18:53Z</time>
      </trkpt>
      <trkpt lat="45.61184" lon="6.04668">
        <ele>1147.47</ele>
        <time>2020-10-25T12:19:05Z</time>
      </trkpt>
      <trkpt lat="45.61174" lon="6.04657">
        <ele>1144.59</ele>
        <time>2020-10-25T12:19:17Z</time>
      </trkpt>
      <trkpt lat="45.61166" lon="6.04656">
        <ele>1141.22</ele>
        <time>2020-10-25T12:19:29Z</time>
      </trkpt>
      <trkpt lat="45.61161" lon="6.04657">
        <ele>1138.34</ele>
        <time>2020-10-25T12:19:39Z</time>
      </trkpt>
      <trkpt lat="45.61154" lon="6.04651">
        <ele>1135.94</ele>
        <time>2020-10-25T12:19:49Z</time>
      </trkpt>
      <trkpt lat="45.61142" lon="6.04635">
        <ele>1133.05</ele>
        <time>2020-10-25T12:20:00Z</time>
      </trkpt>
      <trkpt lat="45.61124" lon="6.0462">
        <ele>1129.21</ele>
        <time>2020-10-25T12:20:12Z</time>
      </trkpt>
      <trkpt lat="45.61116" lon="6.04616">
        <ele>1127.76</ele>
        <time>2020-10-25T12:20:18Z</time>
      </trkpt>
      <trkpt lat="45.61108" lon="6.04611">
        <ele>1125.36</ele>
        <time>2020-10-25T12:20:28Z</time>
      </trkpt>
      <trkpt lat="45.61105" lon="6.04609">
        <ele>1124.4</ele>
        <time>2020-10-25T12:20:31Z</time>
      </trkpt>
      <trkpt lat="45.61102" lon="6.04607">
        <ele>1123.92</ele>
        <time>2020-10-25T12:20:33Z</time>
      </trkpt>
      <trkpt lat="45.61097" lon="6.04604">
        <ele>1122.96</ele>
        <time>2020-10-25T12:20:37Z</time>
      </trkpt>
      <trkpt lat="45.61085" lon="6.04608">
        <ele>1119.59</ele>
        <time>2020-10-25T12:20:49Z</time>
      </trkpt>
      <trkpt lat="45.61079" lon="6.04605">
        <ele>1118.63</ele>
        <time>2020-10-25T12:20:52Z</time>
      </trkpt>
      <trkpt lat="45.61068" lon="6.04601">
        <ele>1115.75</ele>
        <time>2020-10-25T12:21:04Z</time>
      </trkpt>
      <trkpt lat="45.61068" lon="6.046">
        <ele>1115.27</ele>
        <time>2020-10-25T12:21:06Z</time>
      </trkpt>
      <trkpt lat="45.61051" lon="6.04584">
        <ele>1112.38</ele>
        <time>2020-10-25T12:21:18Z</time>
      </trkpt>
      <trkpt lat="45.61043" lon="6.04578">
        <ele>1110.94</ele>
        <time>2020-10-25T12:21:25Z</time>
      </trkpt>
      <trkpt lat="45.6103" lon="6.04564">
        <ele>1107.58</ele>
        <time>2020-10-25T12:21:38Z</time>
      </trkpt>
      <trkpt lat="45.61025" lon="6.04557">
        <ele>1106.13</ele>
        <time>2020-10-25T12:21:44Z</time>
      </trkpt>
      <trkpt lat="45.61014" lon="6.04543">
        <ele>1102.29</ele>
        <time>2020-10-25T12:21:58Z</time>
      </trkpt>
      <trkpt lat="45.61003" lon="6.04533">
        <ele>1099.4</ele>
        <time>2020-10-25T12:22:11Z</time>
      </trkpt>
      <trkpt lat="45.60999" lon="6.04529">
        <ele>1097</ele>
        <time>2020-10-25T12:22:20Z</time>
      </trkpt>
      <trkpt lat="45.60989" lon="6.0452">
        <ele>1093.64</ele>
        <time>2020-10-25T12:22:32Z</time>
      </trkpt>
      <trkpt lat="45.60984" lon="6.04518">
        <ele>1090.75</ele>
        <time>2020-10-25T12:22:43Z</time>
      </trkpt>
      <trkpt lat="45.60977" lon="6.04518">
        <ele>1087.39</ele>
        <time>2020-10-25T12:22:54Z</time>
      </trkpt>
      <trkpt lat="45.60972" lon="6.04517">
        <ele>1084.5</ele>
        <time>2020-10-25T12:23:05Z</time>
      </trkpt>
      <trkpt lat="45.60963" lon="6.04511">
        <ele>1082.58</ele>
        <time>2020-10-25T12:23:13Z</time>
      </trkpt>
      <trkpt lat="45.60962" lon="6.0451">
        <ele>1082.1</ele>
        <time>2020-10-25T12:23:14Z</time>
      </trkpt>
      <trkpt lat="45.60956" lon="6.04508">
        <ele>1080.66</ele>
        <time>2020-10-25T12:23:18Z</time>
      </trkpt>
      <trkpt lat="45.60947" lon="6.04499">
        <ele>1077.29</ele>
        <time>2020-10-25T12:23:29Z</time>
      </trkpt>
      <trkpt lat="45.60944" lon="6.04494">
        <ele>1076.81</ele>
        <time>2020-10-25T12:23:32Z</time>
      </trkpt>
      <trkpt lat="45.60925" lon="6.04471">
        <ele>1073.45</ele>
        <time>2020-10-25T12:23:43Z</time>
      </trkpt>
      <trkpt lat="45.60921" lon="6.04467">
        <ele>1072.01</ele>
        <time>2020-10-25T12:23:46Z</time>
      </trkpt>
      <trkpt lat="45.60915" lon="6.04459">
        <ele>1070.57</ele>
        <time>2020-10-25T12:23:51Z</time>
      </trkpt>
      <trkpt lat="45.60906" lon="6.04448">
        <ele>1067.2</ele>
        <time>2020-10-25T12:24:03Z</time>
      </trkpt>
      <trkpt lat="45.60903" lon="6.0444">
        <ele>1065.28</ele>
        <time>2020-10-25T12:24:09Z</time>
      </trkpt>
      <trkpt lat="45.60892" lon="6.04427">
        <ele>1061.91</ele>
        <time>2020-10-25T12:24:20Z</time>
      </trkpt>
      <trkpt lat="45.60886" lon="6.04419">
        <ele>1058.55</ele>
        <time>2020-10-25T12:24:30Z</time>
      </trkpt>
      <trkpt lat="45.60885" lon="6.04418">
        <ele>1058.07</ele>
        <time>2020-10-25T12:24:31Z</time>
      </trkpt>
      <trkpt lat="45.60883" lon="6.04417">
        <ele>1057.59</ele>
        <time>2020-10-25T12:24:33Z</time>
      </trkpt>
      <trkpt lat="45.60879" lon="6.04417">
        <ele>1055.67</ele>
        <time>2020-10-25T12:24:39Z</time>
      </trkpt>
      <trkpt lat="45.60869" lon="6.04411">
        <ele>1053.26</ele>
        <time>2020-10-25T12:24:50Z</time>
      </trkpt>
      <trkpt lat="45.60868" lon="6.04405">
        <ele>1052.78</ele>
        <time>2020-10-25T12:25:11Z</time>
      </trkpt>
      <trkpt lat="45.60866" lon="6.04405">
        <ele>1052.78</ele>
        <time>2020-10-25T12:25:28Z</time>
      </trkpt>
      <trkpt lat="45.60863" lon="6.04401">
        <ele>1050.86</ele>
        <time>2020-10-25T12:25:39Z</time>
      </trkpt>
      <trkpt lat="45.6086" lon="6.04387">
        <ele>1047.49</ele>
        <time>2020-10-25T12:25:49Z</time>
      </trkpt>
      <trkpt lat="45.6086" lon="6.04378">
        <ele>1045.57</ele>
        <time>2020-10-25T12:26:00Z</time>
      </trkpt>
      <trkpt lat="45.60861" lon="6.04367">
        <ele>1042.69</ele>
        <time>2020-10-25T12:26:10Z</time>
      </trkpt>
      <trkpt lat="45.60861" lon="6.04365">
        <ele>1041.73</ele>
        <time>2020-10-25T12:26:14Z</time>
      </trkpt>
      <trkpt lat="45.60861" lon="6.04349">
        <ele>1037.88</ele>
        <time>2020-10-25T12:26:27Z</time>
      </trkpt>
      <trkpt lat="45.60863" lon="6.0434">
        <ele>1035</ele>
        <time>2020-10-25T12:26:36Z</time>
      </trkpt>
      <trkpt lat="45.60864" lon="6.04335">
        <ele>1032.59</ele>
        <time>2020-10-25T12:26:43Z</time>
      </trkpt>
      <trkpt lat="45.60862" lon="6.04318">
        <ele>1029.23</ele>
        <time>2020-10-25T12:26:54Z</time>
      </trkpt>
      <trkpt lat="45.60858" lon="6.0431">
        <ele>1027.79</ele>
        <time>2020-10-25T12:27:00Z</time>
      </trkpt>
      <trkpt lat="45.60857" lon="6.04307">
        <ele>1027.31</ele>
        <time>2020-10-25T12:27:02Z</time>
      </trkpt>
      <trkpt lat="45.60854" lon="6.04296">
        <ele>1024.42</ele>
        <time>2020-10-25T12:27:13Z</time>
      </trkpt>
      <trkpt lat="45.60853" lon="6.04295">
        <ele>1024.42</ele>
        <time>2020-10-25T12:27:14Z</time>
      </trkpt>
      <trkpt lat="45.60848" lon="6.04284">
        <ele>1021.54</ele>
        <time>2020-10-25T12:27:23Z</time>
      </trkpt>
      <trkpt lat="45.6084" lon="6.04274">
        <ele>1018.17</ele>
        <time>2020-10-25T12:27:34Z</time>
      </trkpt>
      <trkpt lat="45.60839" lon="6.04273">
        <ele>1017.69</ele>
        <time>2020-10-25T12:27:35Z</time>
      </trkpt>
      <trkpt lat="45.60832" lon="6.04264">
        <ele>1015.77</ele>
        <time>2020-10-25T12:27:41Z</time>
      </trkpt>
      <trkpt lat="45.60828" lon="6.04255">
        <ele>1014.33</ele>
        <time>2020-10-25T12:27:46Z</time>
      </trkpt>
      <trkpt lat="45.60826" lon="6.04246">
        <ele>1011.93</ele>
        <time>2020-10-25T12:27:53Z</time>
      </trkpt>
      <trkpt lat="45.60824" lon="6.04228">
        <ele>1008.56</ele>
        <time>2020-10-25T12:28:05Z</time>
      </trkpt>
      <trkpt lat="45.60826" lon="6.04216">
        <ele>1006.16</ele>
        <time>2020-10-25T12:28:14Z</time>
      </trkpt>
      <trkpt lat="45.60831" lon="6.04207">
        <ele>1004.23</ele>
        <time>2020-10-25T12:28:20Z</time>
      </trkpt>
      <trkpt lat="45.60841" lon="6.04195">
        <ele>1001.35</ele>
        <time>2020-10-25T12:28:32Z</time>
      </trkpt>
      <trkpt lat="45.60843" lon="6.04192">
        <ele>1000.39</ele>
        <time>2020-10-25T12:28:35Z</time>
      </trkpt>
      <trkpt lat="45.6085" lon="6.04166">
        <ele>997.02</ele>
        <time>2020-10-25T12:28:47Z</time>
      </trkpt>
      <trkpt lat="45.60851" lon="6.04159">
        <ele>996.06</ele>
        <time>2020-10-25T12:28:51Z</time>
      </trkpt>
      <trkpt lat="45.60854" lon="6.04135">
        <ele>993.18</ele>
        <time>2020-10-25T12:29:02Z</time>
      </trkpt>
      <trkpt lat="45.60853" lon="6.04128">
        <ele>991.74</ele>
        <time>2020-10-25T12:29:05Z</time>
      </trkpt>
      <trkpt lat="45.60853" lon="6.04116">
        <ele>989.33</ele>
        <time>2020-10-25T12:29:10Z</time>
      </trkpt>
      <trkpt lat="45.60852" lon="6.04112">
        <ele>988.85</ele>
        <time>2020-10-25T12:29:12Z</time>
      </trkpt>
      <trkpt lat="45.60852" lon="6.04104">
        <ele>986.93</ele>
        <time>2020-10-25T12:29:17Z</time>
      </trkpt>
      <trkpt lat="45.60856" lon="6.04082">
        <ele>984.53</ele>
        <time>2020-10-25T12:29:28Z</time>
      </trkpt>
      <trkpt lat="45.60851" lon="6.04081">
        <ele>982.12</ele>
        <time>2020-10-25T12:29:33Z</time>
      </trkpt>
      <trkpt lat="45.60844" lon="6.04074">
        <ele>980.2</ele>
        <time>2020-10-25T12:29:40Z</time>
      </trkpt>
      <trkpt lat="45.60843" lon="6.0407">
        <ele>979.72</ele>
        <time>2020-10-25T12:29:43Z</time>
      </trkpt>
      <trkpt lat="45.60843" lon="6.04066">
        <ele>979.24</ele>
        <time>2020-10-25T12:29:46Z</time>
      </trkpt>
      <trkpt lat="45.6085" lon="6.04053">
        <ele>977.8</ele>
        <time>2020-10-25T12:29:57Z</time>
      </trkpt>
      <trkpt lat="45.60853" lon="6.04049">
        <ele>977.8</ele>
        <time>2020-10-25T12:30:02Z</time>
      </trkpt>
      <trkpt lat="45.60858" lon="6.04045">
        <ele>978.28</ele>
        <time>2020-10-25T12:30:14Z</time>
      </trkpt>
      <trkpt lat="45.60859" lon="6.04045">
        <ele>978.76</ele>
        <time>2020-10-25T12:30:27Z</time>
      </trkpt>
      <trkpt lat="45.60859" lon="6.04046">
        <ele>978.76</ele>
        <time>2020-10-25T12:30:45Z</time>
      </trkpt>
      <trkpt lat="45.6086" lon="6.04047">
        <ele>978.28</ele>
        <time>2020-10-25T12:30:58Z</time>
      </trkpt>
      <trkpt lat="45.6086" lon="6.04045">
        <ele>978.28</ele>
        <time>2020-10-25T12:31:11Z</time>
      </trkpt>
      <trkpt lat="45.60862" lon="6.04045">
        <ele>978.76</ele>
        <time>2020-10-25T12:31:22Z</time>
      </trkpt>
      <trkpt lat="45.60863" lon="6.04042">
        <ele>978.28</ele>
        <time>2020-10-25T12:31:38Z</time>
      </trkpt>
      <trkpt lat="45.60863" lon="6.04038">
        <ele>977.8</ele>
        <time>2020-10-25T12:31:59Z</time>
      </trkpt>
      <trkpt lat="45.60863" lon="6.04037">
        <ele>977.32</ele>
        <time>2020-10-25T12:32:17Z</time>
      </trkpt>
      <trkpt lat="45.60864" lon="6.04036">
        <ele>977.32</ele>
        <time>2020-10-25T12:32:39Z</time>
      </trkpt>
      <trkpt lat="45.60865" lon="6.04037">
        <ele>977.32</ele>
        <time>2020-10-25T12:33:00Z</time>
      </trkpt>
      <trkpt lat="45.60864" lon="6.04037">
        <ele>974.43</ele>
        <time>2020-10-25T12:33:15Z</time>
      </trkpt>
      <trkpt lat="45.60864" lon="6.04037">
        <ele>984.05</ele>
        <time>2020-10-25T12:33:16Z</time>
      </trkpt>
      <trkpt lat="45.60864" lon="6.04037">
        <ele>977.8</ele>
        <time>2020-10-25T12:33:17Z</time>
      </trkpt>
      <trkpt lat="45.60864" lon="6.04037">
        <ele>976.84</ele>
        <time>2020-10-25T12:33:20Z</time>
      </trkpt>
      <trkpt lat="45.60863" lon="6.04034">
        <ele>976.36</ele>
        <time>2020-10-25T12:33:22Z</time>
      </trkpt>
      <trkpt lat="45.60863" lon="6.04016">
        <ele>974.91</ele>
        <time>2020-10-25T12:33:33Z</time>
      </trkpt>
      <trkpt lat="45.60866" lon="6.0401">
        <ele>973.95</ele>
        <time>2020-10-25T12:33:37Z</time>
      </trkpt>
      <trkpt lat="45.60868" lon="6.04007">
        <ele>973.47</ele>
        <time>2020-10-25T12:33:40Z</time>
      </trkpt>
      <trkpt lat="45.60879" lon="6.04">
        <ele>972.03</ele>
        <time>2020-10-25T12:33:49Z</time>
      </trkpt>
      <trkpt lat="45.60893" lon="6.03994">
        <ele>970.59</ele>
        <time>2020-10-25T12:34:03Z</time>
      </trkpt>
      <trkpt lat="45.60896" lon="6.03995">
        <ele>971.07</ele>
        <time>2020-10-25T12:34:09Z</time>
      </trkpt>
      <trkpt lat="45.609" lon="6.03996">
        <ele>971.07</ele>
        <time>2020-10-25T12:34:14Z</time>
      </trkpt>
      <trkpt lat="45.60902" lon="6.03997">
        <ele>971.07</ele>
        <time>2020-10-25T12:34:16Z</time>
      </trkpt>
      <trkpt lat="45.60913" lon="6.03997">
        <ele>972.03</ele>
        <time>2020-10-25T12:34:27Z</time>
      </trkpt>
      <trkpt lat="45.6092" lon="6.03995">
        <ele>971.55</ele>
        <time>2020-10-25T12:34:35Z</time>
      </trkpt>
      <trkpt lat="45.60929" lon="6.03999">
        <ele>970.59</ele>
        <time>2020-10-25T12:34:46Z</time>
      </trkpt>
      <trkpt lat="45.60937" lon="6.04007">
        <ele>969.63</ele>
        <time>2020-10-25T12:34:58Z</time>
      </trkpt>
      <trkpt lat="45.60937" lon="6.04007">
        <ele>969.63</ele>
        <time>2020-10-25T12:34:59Z</time>
      </trkpt>
      <trkpt lat="45.60957" lon="6.04027">
        <ele>969.63</ele>
        <time>2020-10-25T12:35:13Z</time>
      </trkpt>
      <trkpt lat="45.60969" lon="6.04039">
        <ele>969.15</ele>
        <time>2020-10-25T12:35:22Z</time>
      </trkpt>
      <trkpt lat="45.60979" lon="6.04044">
        <ele>969.15</ele>
        <time>2020-10-25T12:35:35Z</time>
      </trkpt>
      <trkpt lat="45.60979" lon="6.04041">
        <ele>969.63</ele>
        <time>2020-10-25T12:35:46Z</time>
      </trkpt>
      <trkpt lat="45.6098" lon="6.04041">
        <ele>969.63</ele>
        <time>2020-10-25T12:35:47Z</time>
      </trkpt>
      <trkpt lat="45.60986" lon="6.04037">
        <ele>970.59</ele>
        <time>2020-10-25T12:35:53Z</time>
      </trkpt>
      <trkpt lat="45.60998" lon="6.04021">
        <ele>972.99</ele>
        <time>2020-10-25T12:36:05Z</time>
      </trkpt>
      <trkpt lat="45.61001" lon="6.04013">
        <ele>973.47</ele>
        <time>2020-10-25T12:36:10Z</time>
      </trkpt>
      <trkpt lat="45.61005" lon="6.04008">
        <ele>974.43</ele>
        <time>2020-10-25T12:36:15Z</time>
      </trkpt>
      <trkpt lat="45.61008" lon="6.04006">
        <ele>974.91</ele>
        <time>2020-10-25T12:36:17Z</time>
      </trkpt>
      <trkpt lat="45.61016" lon="6.03997">
        <ele>975.88</ele>
        <time>2020-10-25T12:36:27Z</time>
      </trkpt>
      <trkpt lat="45.61019" lon="6.03994">
        <ele>975.88</ele>
        <time>2020-10-25T12:36:30Z</time>
      </trkpt>
      <trkpt lat="45.61022" lon="6.03992">
        <ele>975.88</ele>
        <time>2020-10-25T12:36:32Z</time>
      </trkpt>
      <trkpt lat="45.61031" lon="6.03987">
        <ele>975.88</ele>
        <time>2020-10-25T12:36:42Z</time>
      </trkpt>
      <trkpt lat="45.61034" lon="6.03986">
        <ele>975.88</ele>
        <time>2020-10-25T12:36:45Z</time>
      </trkpt>
      <trkpt lat="45.61045" lon="6.03984">
        <ele>973.95</ele>
        <time>2020-10-25T12:36:58Z</time>
      </trkpt>
      <trkpt lat="45.61057" lon="6.03979">
        <ele>971.55</ele>
        <time>2020-10-25T12:37:09Z</time>
      </trkpt>
      <trkpt lat="45.61063" lon="6.03984">
        <ele>970.59</ele>
        <time>2020-10-25T12:37:14Z</time>
      </trkpt>
      <trkpt lat="45.61074" lon="6.0399">
        <ele>969.63</ele>
        <time>2020-10-25T12:37:21Z</time>
      </trkpt>
      <trkpt lat="45.61086" lon="6.03996">
        <ele>969.15</ele>
        <time>2020-10-25T12:37:32Z</time>
      </trkpt>
      <trkpt lat="45.61088" lon="6.03994">
        <ele>969.15</ele>
        <time>2020-10-25T12:37:34Z</time>
      </trkpt>
      <trkpt lat="45.61093" lon="6.03991">
        <ele>969.15</ele>
        <time>2020-10-25T12:37:37Z</time>
      </trkpt>
      <trkpt lat="45.61101" lon="6.03983">
        <ele>969.15</ele>
        <time>2020-10-25T12:37:47Z</time>
      </trkpt>
      <trkpt lat="45.61103" lon="6.03981">
        <ele>969.15</ele>
        <time>2020-10-25T12:37:49Z</time>
      </trkpt>
      <trkpt lat="45.61111" lon="6.03966">
        <ele>969.15</ele>
        <time>2020-10-25T12:37:59Z</time>
      </trkpt>
      <trkpt lat="45.61115" lon="6.03956">
        <ele>969.63</ele>
        <time>2020-10-25T12:38:06Z</time>
      </trkpt>
      <trkpt lat="45.61118" lon="6.0395">
        <ele>970.11</ele>
        <time>2020-10-25T12:38:10Z</time>
      </trkpt>
      <trkpt lat="45.61123" lon="6.03946">
        <ele>970.59</ele>
        <time>2020-10-25T12:38:14Z</time>
      </trkpt>
      <trkpt lat="45.61128" lon="6.03942">
        <ele>970.59</ele>
        <time>2020-10-25T12:38:18Z</time>
      </trkpt>
      <trkpt lat="45.61136" lon="6.0394">
        <ele>970.59</ele>
        <time>2020-10-25T12:38:25Z</time>
      </trkpt>
      <trkpt lat="45.61146" lon="6.03942">
        <ele>972.03</ele>
        <time>2020-10-25T12:38:34Z</time>
      </trkpt>
      <trkpt lat="45.61152" lon="6.0394">
        <ele>972.03</ele>
        <time>2020-10-25T12:38:38Z</time>
      </trkpt>
      <trkpt lat="45.61157" lon="6.0394">
        <ele>972.03</ele>
        <time>2020-10-25T12:38:42Z</time>
      </trkpt>
      <trkpt lat="45.61164" lon="6.0394">
        <ele>972.03</ele>
        <time>2020-10-25T12:38:47Z</time>
      </trkpt>
      <trkpt lat="45.61178" lon="6.03939">
        <ele>973.47</ele>
        <time>2020-10-25T12:38:59Z</time>
      </trkpt>
      <trkpt lat="45.61179" lon="6.03939">
        <ele>973.47</ele>
        <time>2020-10-25T12:39:00Z</time>
      </trkpt>
      <trkpt lat="45.61182" lon="6.03938">
        <ele>973.47</ele>
        <time>2020-10-25T12:39:02Z</time>
      </trkpt>
      <trkpt lat="45.61195" lon="6.03938">
        <ele>973.47</ele>
        <time>2020-10-25T12:39:12Z</time>
      </trkpt>
      <trkpt lat="45.61202" lon="6.03939">
        <ele>973.95</ele>
        <time>2020-10-25T12:39:17Z</time>
      </trkpt>
      <trkpt lat="45.61218" lon="6.03942">
        <ele>973.47</ele>
        <time>2020-10-25T12:39:27Z</time>
      </trkpt>
      <trkpt lat="45.61222" lon="6.03942">
        <ele>972.99</ele>
        <time>2020-10-25T12:39:29Z</time>
      </trkpt>
      <trkpt lat="45.61239" lon="6.03942">
        <ele>972.51</ele>
        <time>2020-10-25T12:39:39Z</time>
      </trkpt>
      <trkpt lat="45.61244" lon="6.03946">
        <ele>972.03</ele>
        <time>2020-10-25T12:39:43Z</time>
      </trkpt>
      <trkpt lat="45.61246" lon="6.03949">
        <ele>972.03</ele>
        <time>2020-10-25T12:39:45Z</time>
      </trkpt>
      <trkpt lat="45.61261" lon="6.03962">
        <ele>970.59</ele>
        <time>2020-10-25T12:39:57Z</time>
      </trkpt>
      <trkpt lat="45.61276" lon="6.0397">
        <ele>970.11</ele>
        <time>2020-10-25T12:40:07Z</time>
      </trkpt>
      <trkpt lat="45.61278" lon="6.03971">
        <ele>970.11</ele>
        <time>2020-10-25T12:40:09Z</time>
      </trkpt>
      <trkpt lat="45.61289" lon="6.03978">
        <ele>970.11</ele>
        <time>2020-10-25T12:40:19Z</time>
      </trkpt>
      <trkpt lat="45.61291" lon="6.03978">
        <ele>970.11</ele>
        <time>2020-10-25T12:40:20Z</time>
      </trkpt>
      <trkpt lat="45.61303" lon="6.03984">
        <ele>970.11</ele>
        <time>2020-10-25T12:40:28Z</time>
      </trkpt>
      <trkpt lat="45.61309" lon="6.03991">
        <ele>969.63</ele>
        <time>2020-10-25T12:40:33Z</time>
      </trkpt>
      <trkpt lat="45.61314" lon="6.03996">
        <ele>969.63</ele>
        <time>2020-10-25T12:40:37Z</time>
      </trkpt>
      <trkpt lat="45.61317" lon="6.04002">
        <ele>969.63</ele>
        <time>2020-10-25T12:40:40Z</time>
      </trkpt>
      <trkpt lat="45.61331" lon="6.04016">
        <ele>970.59</ele>
        <time>2020-10-25T12:40:50Z</time>
      </trkpt>
      <trkpt lat="45.61336" lon="6.04021">
        <ele>970.59</ele>
        <time>2020-10-25T12:40:54Z</time>
      </trkpt>
      <trkpt lat="45.61339" lon="6.04029">
        <ele>970.11</ele>
        <time>2020-10-25T12:40:57Z</time>
      </trkpt>
      <trkpt lat="45.61345" lon="6.04045">
        <ele>970.11</ele>
        <time>2020-10-25T12:41:07Z</time>
      </trkpt>
      <trkpt lat="45.61349" lon="6.04054">
        <ele>970.11</ele>
        <time>2020-10-25T12:41:12Z</time>
      </trkpt>
      <trkpt lat="45.61351" lon="6.04063">
        <ele>969.63</ele>
        <time>2020-10-25T12:41:19Z</time>
      </trkpt>
      <trkpt lat="45.61356" lon="6.0407">
        <ele>968.67</ele>
        <time>2020-10-25T12:41:26Z</time>
      </trkpt>
      <trkpt lat="45.61365" lon="6.04081">
        <ele>964.34</ele>
        <time>2020-10-25T12:41:35Z</time>
      </trkpt>
      <trkpt lat="45.61366" lon="6.04081">
        <ele>970.59</ele>
        <time>2020-10-25T12:41:36Z</time>
      </trkpt>
      <trkpt lat="45.61367" lon="6.04082">
        <ele>960.01</ele>
        <time>2020-10-25T12:41:37Z</time>
      </trkpt>
      <trkpt lat="45.61369" lon="6.04083">
        <ele>973.95</ele>
        <time>2020-10-25T12:41:38Z</time>
      </trkpt>
      <trkpt lat="45.6137" lon="6.04084">
        <ele>967.22</ele>
        <time>2020-10-25T12:41:39Z</time>
      </trkpt>
      <trkpt lat="45.61372" lon="6.04085">
        <ele>971.07</ele>
        <time>2020-10-25T12:41:40Z</time>
      </trkpt>
      <trkpt lat="45.61378" lon="6.04092">
        <ele>968.67</ele>
        <time>2020-10-25T12:41:44Z</time>
      </trkpt>
      <trkpt lat="45.61387" lon="6.04105">
        <ele>969.15</ele>
        <time>2020-10-25T12:41:52Z</time>
      </trkpt>
      <trkpt lat="45.61392" lon="6.04125">
        <ele>971.07</ele>
        <time>2020-10-25T12:42:04Z</time>
      </trkpt>
      <trkpt lat="45.61393" lon="6.04128">
        <ele>968.67</ele>
        <time>2020-10-25T12:42:06Z</time>
      </trkpt>
      <trkpt lat="45.614" lon="6.04146">
        <ele>966.26</ele>
        <time>2020-10-25T12:42:18Z</time>
      </trkpt>
      <trkpt lat="45.61406" lon="6.04151">
        <ele>966.26</ele>
        <time>2020-10-25T12:42:22Z</time>
      </trkpt>
      <trkpt lat="45.6141" lon="6.04147">
        <ele>965.78</ele>
        <time>2020-10-25T12:42:28Z</time>
      </trkpt>
      <trkpt lat="45.61417" lon="6.0414">
        <ele>965.3</ele>
        <time>2020-10-25T12:42:37Z</time>
      </trkpt>
      <trkpt lat="45.61419" lon="6.04133">
        <ele>965.3</ele>
        <time>2020-10-25T12:42:43Z</time>
      </trkpt>
      <trkpt lat="45.6142" lon="6.04127">
        <ele>964.82</ele>
        <time>2020-10-25T12:42:47Z</time>
      </trkpt>
      <trkpt lat="45.61425" lon="6.04115">
        <ele>963.86</ele>
        <time>2020-10-25T12:42:59Z</time>
      </trkpt>
      <trkpt lat="45.61426" lon="6.04111">
        <ele>963.38</ele>
        <time>2020-10-25T12:43:01Z</time>
      </trkpt>
      <trkpt lat="45.61429" lon="6.04108">
        <ele>964.34</ele>
        <time>2020-10-25T12:43:03Z</time>
      </trkpt>
      <trkpt lat="45.61434" lon="6.04096">
        <ele>962.42</ele>
        <time>2020-10-25T12:43:11Z</time>
      </trkpt>
      <trkpt lat="45.61435" lon="6.04092">
        <ele>962.42</ele>
        <time>2020-10-25T12:43:13Z</time>
      </trkpt>
      <trkpt lat="45.61437" lon="6.04086">
        <ele>962.42</ele>
        <time>2020-10-25T12:43:16Z</time>
      </trkpt>
      <trkpt lat="45.61442" lon="6.04065">
        <ele>963.38</ele>
        <time>2020-10-25T12:43:26Z</time>
      </trkpt>
      <trkpt lat="45.61456" lon="6.04056">
        <ele>965.3</ele>
        <time>2020-10-25T12:43:38Z</time>
      </trkpt>
      <trkpt lat="45.61467" lon="6.04059">
        <ele>966.26</ele>
        <time>2020-10-25T12:43:50Z</time>
      </trkpt>
      <trkpt lat="45.61473" lon="6.04066">
        <ele>966.74</ele>
        <time>2020-10-25T12:43:58Z</time>
      </trkpt>
      <trkpt lat="45.61481" lon="6.04078">
        <ele>966.74</ele>
        <time>2020-10-25T12:44:09Z</time>
      </trkpt>
      <trkpt lat="45.61491" lon="6.04088">
        <ele>967.7</ele>
        <time>2020-10-25T12:44:19Z</time>
      </trkpt>
      <trkpt lat="45.61496" lon="6.04095">
        <ele>967.7</ele>
        <time>2020-10-25T12:44:22Z</time>
      </trkpt>
      <trkpt lat="45.61506" lon="6.04104">
        <ele>968.67</ele>
        <time>2020-10-25T12:44:32Z</time>
      </trkpt>
      <trkpt lat="45.61511" lon="6.04109">
        <ele>968.67</ele>
        <time>2020-10-25T12:44:36Z</time>
      </trkpt>
      <trkpt lat="45.61517" lon="6.04114">
        <ele>968.67</ele>
        <time>2020-10-25T12:44:40Z</time>
      </trkpt>
      <trkpt lat="45.6153" lon="6.04131">
        <ele>970.11</ele>
        <time>2020-10-25T12:44:52Z</time>
      </trkpt>
      <trkpt lat="45.61544" lon="6.04146">
        <ele>971.07</ele>
        <time>2020-10-25T12:45:03Z</time>
      </trkpt>
      <trkpt lat="45.61554" lon="6.04158">
        <ele>970.59</ele>
        <time>2020-10-25T12:45:12Z</time>
      </trkpt>
      <trkpt lat="45.61565" lon="6.04176">
        <ele>971.55</ele>
        <time>2020-10-25T12:45:23Z</time>
      </trkpt>
      <trkpt lat="45.61567" lon="6.04187">
        <ele>972.51</ele>
        <time>2020-10-25T12:45:31Z</time>
      </trkpt>
      <trkpt lat="45.61567" lon="6.04193">
        <ele>972.99</ele>
        <time>2020-10-25T12:45:34Z</time>
      </trkpt>
      <trkpt lat="45.6157" lon="6.04209">
        <ele>973.47</ele>
        <time>2020-10-25T12:45:47Z</time>
      </trkpt>
      <trkpt lat="45.61572" lon="6.0421">
        <ele>973.95</ele>
        <time>2020-10-25T12:45:48Z</time>
      </trkpt>
      <trkpt lat="45.61578" lon="6.04212">
        <ele>973.95</ele>
        <time>2020-10-25T12:45:52Z</time>
      </trkpt>
      <trkpt lat="45.61588" lon="6.04216">
        <ele>974.91</ele>
        <time>2020-10-25T12:46:03Z</time>
      </trkpt>
      <trkpt lat="45.61594" lon="6.04222">
        <ele>976.36</ele>
        <time>2020-10-25T12:46:15Z</time>
      </trkpt>
      <trkpt lat="45.61598" lon="6.04221">
        <ele>976.84</ele>
        <time>2020-10-25T12:46:26Z</time>
      </trkpt>
      <trkpt lat="45.61598" lon="6.04219">
        <ele>976.36</ele>
        <time>2020-10-25T12:46:29Z</time>
      </trkpt>
      <trkpt lat="45.616" lon="6.04206">
        <ele>976.84</ele>
        <time>2020-10-25T12:46:39Z</time>
      </trkpt>
      <trkpt lat="45.616" lon="6.04205">
        <ele>977.32</ele>
        <time>2020-10-25T12:46:40Z</time>
      </trkpt>
      <trkpt lat="45.61601" lon="6.04201">
        <ele>977.32</ele>
        <time>2020-10-25T12:46:42Z</time>
      </trkpt>
      <trkpt lat="45.61605" lon="6.04188">
        <ele>978.28</ele>
        <time>2020-10-25T12:46:51Z</time>
      </trkpt>
      <trkpt lat="45.61612" lon="6.04168">
        <ele>979.24</ele>
        <time>2020-10-25T12:47:02Z</time>
      </trkpt>
      <trkpt lat="45.61613" lon="6.04162">
        <ele>979.72</ele>
        <time>2020-10-25T12:47:05Z</time>
      </trkpt>
      <trkpt lat="45.61616" lon="6.04149">
        <ele>981.16</ele>
        <time>2020-10-25T12:47:14Z</time>
      </trkpt>
      <trkpt lat="45.61618" lon="6.04146">
        <ele>981.64</ele>
        <time>2020-10-25T12:47:17Z</time>
      </trkpt>
      <trkpt lat="45.61625" lon="6.04138">
        <ele>982.6</ele>
        <time>2020-10-25T12:47:24Z</time>
      </trkpt>
      <trkpt lat="45.61627" lon="6.04134">
        <ele>983.09</ele>
        <time>2020-10-25T12:47:27Z</time>
      </trkpt>
      <trkpt lat="45.61635" lon="6.04123">
        <ele>983.57</ele>
        <time>2020-10-25T12:47:36Z</time>
      </trkpt>
      <trkpt lat="45.61637" lon="6.04119">
        <ele>984.05</ele>
        <time>2020-10-25T12:47:39Z</time>
      </trkpt>
      <trkpt lat="45.61638" lon="6.04116">
        <ele>984.05</ele>
        <time>2020-10-25T12:47:41Z</time>
      </trkpt>
      <trkpt lat="45.61639" lon="6.04113">
        <ele>984.53</ele>
        <time>2020-10-25T12:47:43Z</time>
      </trkpt>
      <trkpt lat="45.61647" lon="6.04108">
        <ele>985.01</ele>
        <time>2020-10-25T12:47:53Z</time>
      </trkpt>
      <trkpt lat="45.61654" lon="6.04109">
        <ele>985.49</ele>
        <time>2020-10-25T12:48:03Z</time>
      </trkpt>
      <trkpt lat="45.61655" lon="6.0411">
        <ele>985.97</ele>
        <time>2020-10-25T12:48:07Z</time>
      </trkpt>
      <trkpt lat="45.61667" lon="6.04114">
        <ele>986.45</ele>
        <time>2020-10-25T12:48:17Z</time>
      </trkpt>
      <trkpt lat="45.61678" lon="6.0412">
        <ele>987.41</ele>
        <time>2020-10-25T12:48:25Z</time>
      </trkpt>
      <trkpt lat="45.61683" lon="6.04122">
        <ele>987.89</ele>
        <time>2020-10-25T12:48:29Z</time>
      </trkpt>
      <trkpt lat="45.61692" lon="6.04126">
        <ele>988.85</ele>
        <time>2020-10-25T12:48:35Z</time>
      </trkpt>
      <trkpt lat="45.617" lon="6.04129">
        <ele>989.81</ele>
        <time>2020-10-25T12:48:44Z</time>
      </trkpt>
      <trkpt lat="45.61704" lon="6.04131">
        <ele>989.81</ele>
        <time>2020-10-25T12:48:48Z</time>
      </trkpt>
      <trkpt lat="45.61712" lon="6.04137">
        <ele>991.74</ele>
        <time>2020-10-25T12:49:00Z</time>
      </trkpt>
      <trkpt lat="45.61717" lon="6.04143">
        <ele>992.22</ele>
        <time>2020-10-25T12:49:08Z</time>
      </trkpt>
      <trkpt lat="45.61723" lon="6.04148">
        <ele>993.66</ele>
        <time>2020-10-25T12:49:15Z</time>
      </trkpt>
      <trkpt lat="45.61737" lon="6.04139">
        <ele>993.66</ele>
        <time>2020-10-25T12:49:27Z</time>
      </trkpt>
      <trkpt lat="45.6174" lon="6.04133">
        <ele>994.14</ele>
        <time>2020-10-25T12:49:29Z</time>
      </trkpt>
      <trkpt lat="45.61747" lon="6.04113">
        <ele>994.62</ele>
        <time>2020-10-25T12:49:38Z</time>
      </trkpt>
      <trkpt lat="45.61747" lon="6.04108">
        <ele>994.62</ele>
        <time>2020-10-25T12:49:40Z</time>
      </trkpt>
      <trkpt lat="45.61747" lon="6.04104">
        <ele>994.62</ele>
        <time>2020-10-25T12:49:42Z</time>
      </trkpt>
      <trkpt lat="45.61746" lon="6.04099">
        <ele>995.1</ele>
        <time>2020-10-25T12:49:46Z</time>
      </trkpt>
      <trkpt lat="45.61745" lon="6.04088">
        <ele>995.1</ele>
        <time>2020-10-25T12:49:54Z</time>
      </trkpt>
      <trkpt lat="45.61742" lon="6.04082">
        <ele>995.58</ele>
        <time>2020-10-25T12:49:58Z</time>
      </trkpt>
      <trkpt lat="45.61737" lon="6.04076">
        <ele>996.54</ele>
        <time>2020-10-25T12:50:04Z</time>
      </trkpt>
      <trkpt lat="45.6173" lon="6.0406">
        <ele>997.51</ele>
        <time>2020-10-25T12:50:14Z</time>
      </trkpt>
      <trkpt lat="45.61728" lon="6.04055">
        <ele>997.51</ele>
        <time>2020-10-25T12:50:18Z</time>
      </trkpt>
      <trkpt lat="45.61723" lon="6.04036">
        <ele>998.95</ele>
        <time>2020-10-25T12:50:29Z</time>
      </trkpt>
      <trkpt lat="45.61721" lon="6.04015">
        <ele>999.91</ele>
        <time>2020-10-25T12:50:39Z</time>
      </trkpt>
      <trkpt lat="45.61726" lon="6.04009">
        <ele>1000.39</ele>
        <time>2020-10-25T12:50:44Z</time>
      </trkpt>
      <trkpt lat="45.61732" lon="6.04005">
        <ele>1000.87</ele>
        <time>2020-10-25T12:50:50Z</time>
      </trkpt>
      <trkpt lat="45.61736" lon="6.04003">
        <ele>1001.35</ele>
        <time>2020-10-25T12:50:55Z</time>
      </trkpt>
      <trkpt lat="45.61744" lon="6.03999">
        <ele>1002.79</ele>
        <time>2020-10-25T12:51:02Z</time>
      </trkpt>
      <trkpt lat="45.61754" lon="6.03999">
        <ele>1003.27</ele>
        <time>2020-10-25T12:51:08Z</time>
      </trkpt>
      <trkpt lat="45.61771" lon="6.04001">
        <ele>1004.72</ele>
        <time>2020-10-25T12:51:19Z</time>
      </trkpt>
      <trkpt lat="45.61772" lon="6.04002">
        <ele>1005.2</ele>
        <time>2020-10-25T12:51:21Z</time>
      </trkpt>
      <trkpt lat="45.61786" lon="6.04004">
        <ele>1006.16</ele>
        <time>2020-10-25T12:51:29Z</time>
      </trkpt>
      <trkpt lat="45.61795" lon="6.04001">
        <ele>1007.12</ele>
        <time>2020-10-25T12:51:34Z</time>
      </trkpt>
      <trkpt lat="45.61797" lon="6.03998">
        <ele>1007.6</ele>
        <time>2020-10-25T12:51:36Z</time>
      </trkpt>
      <trkpt lat="45.61804" lon="6.03992">
        <ele>1008.08</ele>
        <time>2020-10-25T12:51:42Z</time>
      </trkpt>
      <trkpt lat="45.61806" lon="6.03988">
        <ele>1008.08</ele>
        <time>2020-10-25T12:51:45Z</time>
      </trkpt>
      <trkpt lat="45.61807" lon="6.03981">
        <ele>1008.56</ele>
        <time>2020-10-25T12:51:48Z</time>
      </trkpt>
      <trkpt lat="45.61809" lon="6.03972">
        <ele>1008.56</ele>
        <time>2020-10-25T12:51:51Z</time>
      </trkpt>
      <trkpt lat="45.61814" lon="6.03967">
        <ele>1009.04</ele>
        <time>2020-10-25T12:51:56Z</time>
      </trkpt>
      <trkpt lat="45.61816" lon="6.03964">
        <ele>1009.52</ele>
        <time>2020-10-25T12:51:58Z</time>
      </trkpt>
      <trkpt lat="45.61819" lon="6.03955">
        <ele>1010.48</ele>
        <time>2020-10-25T12:52:03Z</time>
      </trkpt>
      <trkpt lat="45.61824" lon="6.0395">
        <ele>1010.96</ele>
        <time>2020-10-25T12:52:07Z</time>
      </trkpt>
      <trkpt lat="45.61831" lon="6.0394">
        <ele>1010.96</ele>
        <time>2020-10-25T12:52:16Z</time>
      </trkpt>
      <trkpt lat="45.61834" lon="6.03936">
        <ele>1011.44</ele>
        <time>2020-10-25T12:52:18Z</time>
      </trkpt>
      <trkpt lat="45.61843" lon="6.03936">
        <ele>1011.93</ele>
        <time>2020-10-25T12:52:26Z</time>
      </trkpt>
      <trkpt lat="45.61854" lon="6.03943">
        <ele>1012.89</ele>
        <time>2020-10-25T12:52:34Z</time>
      </trkpt>
      <trkpt lat="45.61858" lon="6.03945">
        <ele>1013.37</ele>
        <time>2020-10-25T12:52:37Z</time>
      </trkpt>
      <trkpt lat="45.61868" lon="6.03956">
        <ele>1013.37</ele>
        <time>2020-10-25T12:52:45Z</time>
      </trkpt>
      <trkpt lat="45.61879" lon="6.03964">
        <ele>1014.33</ele>
        <time>2020-10-25T12:52:56Z</time>
      </trkpt>
      <trkpt lat="45.61901" lon="6.0397">
        <ele>1014.81</ele>
        <time>2020-10-25T12:53:06Z</time>
      </trkpt>
      <trkpt lat="45.61916" lon="6.03971">
        <ele>1013.85</ele>
        <time>2020-10-25T12:53:16Z</time>
      </trkpt>
      <trkpt lat="45.61917" lon="6.0397">
        <ele>1013.85</ele>
        <time>2020-10-25T12:53:17Z</time>
      </trkpt>
      <trkpt lat="45.6192" lon="6.03954">
        <ele>1012.89</ele>
        <time>2020-10-25T12:53:30Z</time>
      </trkpt>
      <trkpt lat="45.61919" lon="6.0395">
        <ele>1012.89</ele>
        <time>2020-10-25T12:53:34Z</time>
      </trkpt>
      <trkpt lat="45.61918" lon="6.03943">
        <ele>1013.37</ele>
        <time>2020-10-25T12:53:48Z</time>
      </trkpt>
      <trkpt lat="45.61917" lon="6.03941">
        <ele>1013.37</ele>
        <time>2020-10-25T12:54:11Z</time>
      </trkpt>
      <trkpt lat="45.61917" lon="6.03942">
        <ele>1012.41</ele>
        <time>2020-10-25T12:54:36Z</time>
      </trkpt>
      <trkpt lat="45.61914" lon="6.03941">
        <ele>1013.37</ele>
        <time>2020-10-25T12:54:54Z</time>
      </trkpt>
      <trkpt lat="45.6191" lon="6.03938">
        <ele>1013.85</ele>
        <time>2020-10-25T12:54:58Z</time>
      </trkpt>
      <trkpt lat="45.61907" lon="6.03919">
        <ele>1015.77</ele>
        <time>2020-10-25T12:55:09Z</time>
      </trkpt>
      <trkpt lat="45.61911" lon="6.03908">
        <ele>1016.25</ele>
        <time>2020-10-25T12:55:15Z</time>
      </trkpt>
      <trkpt lat="45.61914" lon="6.03902">
        <ele>1017.21</ele>
        <time>2020-10-25T12:55:19Z</time>
      </trkpt>
      <trkpt lat="45.61916" lon="6.03898">
        <ele>1017.21</ele>
        <time>2020-10-25T12:55:21Z</time>
      </trkpt>
      <trkpt lat="45.61918" lon="6.03894">
        <ele>1017.21</ele>
        <time>2020-10-25T12:55:23Z</time>
      </trkpt>
      <trkpt lat="45.61922" lon="6.03888">
        <ele>1018.17</ele>
        <time>2020-10-25T12:55:28Z</time>
      </trkpt>
      <trkpt lat="45.61925" lon="6.03874">
        <ele>1019.13</ele>
        <time>2020-10-25T12:55:37Z</time>
      </trkpt>
      <trkpt lat="45.61925" lon="6.03869">
        <ele>1019.62</ele>
        <time>2020-10-25T12:55:39Z</time>
      </trkpt>
      <trkpt lat="45.61925" lon="6.03863">
        <ele>1020.58</ele>
        <time>2020-10-25T12:55:45Z</time>
      </trkpt>
      <trkpt lat="45.61926" lon="6.03855">
        <ele>1021.06</ele>
        <time>2020-10-25T12:55:50Z</time>
      </trkpt>
      <trkpt lat="45.61927" lon="6.03844">
        <ele>1022.02</ele>
        <time>2020-10-25T12:55:56Z</time>
      </trkpt>
      <trkpt lat="45.61928" lon="6.03838">
        <ele>1022.5</ele>
        <time>2020-10-25T12:56:00Z</time>
      </trkpt>
      <trkpt lat="45.61928" lon="6.03825">
        <ele>1023.94</ele>
        <time>2020-10-25T12:56:07Z</time>
      </trkpt>
      <trkpt lat="45.61934" lon="6.03814">
        <ele>1025.38</ele>
        <time>2020-10-25T12:56:15Z</time>
      </trkpt>
      <trkpt lat="45.61936" lon="6.03808">
        <ele>1025.86</ele>
        <time>2020-10-25T12:56:19Z</time>
      </trkpt>
      <trkpt lat="45.61945" lon="6.03796">
        <ele>1027.79</ele>
        <time>2020-10-25T12:56:30Z</time>
      </trkpt>
      <trkpt lat="45.61959" lon="6.03782">
        <ele>1029.71</ele>
        <time>2020-10-25T12:56:43Z</time>
      </trkpt>
      <trkpt lat="45.61967" lon="6.03772">
        <ele>1030.67</ele>
        <time>2020-10-25T12:56:52Z</time>
      </trkpt>
      <trkpt lat="45.61967" lon="6.0376">
        <ele>1031.15</ele>
        <time>2020-10-25T12:57:00Z</time>
      </trkpt>
      <trkpt lat="45.61965" lon="6.03757">
        <ele>1031.15</ele>
        <time>2020-10-25T12:57:03Z</time>
      </trkpt>
      <trkpt lat="45.61962" lon="6.03755">
        <ele>1032.11</ele>
        <time>2020-10-25T12:57:05Z</time>
      </trkpt>
      <trkpt lat="45.61956" lon="6.03747">
        <ele>1032.11</ele>
        <time>2020-10-25T12:57:10Z</time>
      </trkpt>
      <trkpt lat="45.61954" lon="6.03733">
        <ele>1033.07</ele>
        <time>2020-10-25T12:57:18Z</time>
      </trkpt>
      <trkpt lat="45.61948" lon="6.03717">
        <ele>1035</ele>
        <time>2020-10-25T12:57:30Z</time>
      </trkpt>
      <trkpt lat="45.61946" lon="6.03704">
        <ele>1036.44</ele>
        <time>2020-10-25T12:57:37Z</time>
      </trkpt>
      <trkpt lat="45.61935" lon="6.03691">
        <ele>1037.88</ele>
        <time>2020-10-25T12:57:49Z</time>
      </trkpt>
      <trkpt lat="45.61932" lon="6.0369">
        <ele>1038.36</ele>
        <time>2020-10-25T12:57:53Z</time>
      </trkpt>
      <trkpt lat="45.61922" lon="6.0368">
        <ele>1039.8</ele>
        <time>2020-10-25T12:58:03Z</time>
      </trkpt>
      <trkpt lat="45.61921" lon="6.03678">
        <ele>1040.28</ele>
        <time>2020-10-25T12:58:05Z</time>
      </trkpt>
      <trkpt lat="45.61918" lon="6.03667">
        <ele>1041.25</ele>
        <time>2020-10-25T12:58:11Z</time>
      </trkpt>
      <trkpt lat="45.61915" lon="6.03663">
        <ele>1041.73</ele>
        <time>2020-10-25T12:58:14Z</time>
      </trkpt>
      <trkpt lat="45.61912" lon="6.03658">
        <ele>1041.73</ele>
        <time>2020-10-25T12:58:17Z</time>
      </trkpt>
      <trkpt lat="45.61911" lon="6.03652">
        <ele>1042.21</ele>
        <time>2020-10-25T12:58:20Z</time>
      </trkpt>
      <trkpt lat="45.61913" lon="6.03647">
        <ele>1042.69</ele>
        <time>2020-10-25T12:58:23Z</time>
      </trkpt>
      <trkpt lat="45.61912" lon="6.03641">
        <ele>1043.17</ele>
        <time>2020-10-25T12:58:25Z</time>
      </trkpt>
      <trkpt lat="45.61912" lon="6.03635">
        <ele>1043.65</ele>
        <time>2020-10-25T12:58:28Z</time>
      </trkpt>
      <trkpt lat="45.61912" lon="6.0363">
        <ele>1044.13</ele>
        <time>2020-10-25T12:58:33Z</time>
      </trkpt>
      <trkpt lat="45.61909" lon="6.03618">
        <ele>1044.61</ele>
        <time>2020-10-25T12:58:41Z</time>
      </trkpt>
      <trkpt lat="45.61908" lon="6.03611">
        <ele>1045.09</ele>
        <time>2020-10-25T12:58:45Z</time>
      </trkpt>
      <trkpt lat="45.61907" lon="6.03603">
        <ele>1044.61</ele>
        <time>2020-10-25T12:58:49Z</time>
      </trkpt>
      <trkpt lat="45.61901" lon="6.03588">
        <ele>1044.61</ele>
        <time>2020-10-25T12:58:57Z</time>
      </trkpt>
      <trkpt lat="45.61894" lon="6.03577">
        <ele>1044.61</ele>
        <time>2020-10-25T12:59:03Z</time>
      </trkpt>
      <trkpt lat="45.61894" lon="6.03574">
        <ele>1045.09</ele>
        <time>2020-10-25T12:59:04Z</time>
      </trkpt>
      <trkpt lat="45.61885" lon="6.03556">
        <ele>1043.65</ele>
        <time>2020-10-25T12:59:14Z</time>
      </trkpt>
      <trkpt lat="45.61883" lon="6.0355">
        <ele>1044.13</ele>
        <time>2020-10-25T12:59:17Z</time>
      </trkpt>
      <trkpt lat="45.61879" lon="6.03543">
        <ele>1044.13</ele>
        <time>2020-10-25T12:59:21Z</time>
      </trkpt>
      <trkpt lat="45.61875" lon="6.03534">
        <ele>1044.13</ele>
        <time>2020-10-25T12:59:27Z</time>
      </trkpt>
      <trkpt lat="45.61874" lon="6.03531">
        <ele>1044.13</ele>
        <time>2020-10-25T12:59:29Z</time>
      </trkpt>
      <trkpt lat="45.6187" lon="6.03524">
        <ele>1044.61</ele>
        <time>2020-10-25T12:59:34Z</time>
      </trkpt>
      <trkpt lat="45.61865" lon="6.03513">
        <ele>1044.61</ele>
        <time>2020-10-25T12:59:41Z</time>
      </trkpt>
      <trkpt lat="45.61863" lon="6.03509">
        <ele>1044.61</ele>
        <time>2020-10-25T12:59:44Z</time>
      </trkpt>
      <trkpt lat="45.6186" lon="6.03492">
        <ele>1044.13</ele>
        <time>2020-10-25T12:59:55Z</time>
      </trkpt>
      <trkpt lat="45.61855" lon="6.03473">
        <ele>1043.17</ele>
        <time>2020-10-25T13:00:06Z</time>
      </trkpt>
      <trkpt lat="45.61849" lon="6.03455">
        <ele>1043.17</ele>
        <time>2020-10-25T13:00:17Z</time>
      </trkpt>
      <trkpt lat="45.61848" lon="6.03453">
        <ele>1043.17</ele>
        <time>2020-10-25T13:00:18Z</time>
      </trkpt>
      <trkpt lat="45.61842" lon="6.03444">
        <ele>1043.65</ele>
        <time>2020-10-25T13:00:26Z</time>
      </trkpt>
      <trkpt lat="45.6184" lon="6.03438">
        <ele>1044.61</ele>
        <time>2020-10-25T13:00:31Z</time>
      </trkpt>
      <trkpt lat="45.61834" lon="6.0342">
        <ele>1044.61</ele>
        <time>2020-10-25T13:00:43Z</time>
      </trkpt>
      <trkpt lat="45.61828" lon="6.03411">
        <ele>1046.05</ele>
        <time>2020-10-25T13:00:51Z</time>
      </trkpt>
      <trkpt lat="45.61826" lon="6.03406">
        <ele>1045.57</ele>
        <time>2020-10-25T13:00:54Z</time>
      </trkpt>
      <trkpt lat="45.6182" lon="6.0339">
        <ele>1047.97</ele>
        <time>2020-10-25T13:01:05Z</time>
      </trkpt>
      <trkpt lat="45.61812" lon="6.03376">
        <ele>1048.94</ele>
        <time>2020-10-25T13:01:15Z</time>
      </trkpt>
      <trkpt lat="45.61809" lon="6.03371">
        <ele>1049.9</ele>
        <time>2020-10-25T13:01:24Z</time>
      </trkpt>
      <trkpt lat="45.61807" lon="6.03366">
        <ele>1050.38</ele>
        <time>2020-10-25T13:01:37Z</time>
      </trkpt>
      <trkpt lat="45.61807" lon="6.03366">
        <ele>1050.38</ele>
        <time>2020-10-25T13:01:57Z</time>
      </trkpt>
      <trkpt lat="45.61806" lon="6.03366">
        <ele>1050.38</ele>
        <time>2020-10-25T13:02:04Z</time>
      </trkpt>
      <trkpt lat="45.61805" lon="6.03348">
        <ele>1052.3</ele>
        <time>2020-10-25T13:02:16Z</time>
      </trkpt>
      <trkpt lat="45.61805" lon="6.03345">
        <ele>1053.26</ele>
        <time>2020-10-25T13:02:19Z</time>
      </trkpt>
      <trkpt lat="45.61807" lon="6.03338">
        <ele>1054.22</ele>
        <time>2020-10-25T13:02:24Z</time>
      </trkpt>
      <trkpt lat="45.61809" lon="6.03323">
        <ele>1056.15</ele>
        <time>2020-10-25T13:02:35Z</time>
      </trkpt>
      <trkpt lat="45.61808" lon="6.03317">
        <ele>1057.11</ele>
        <time>2020-10-25T13:02:40Z</time>
      </trkpt>
      <trkpt lat="45.61806" lon="6.03311">
        <ele>1058.07</ele>
        <time>2020-10-25T13:02:45Z</time>
      </trkpt>
      <trkpt lat="45.61805" lon="6.03308">
        <ele>1058.55</ele>
        <time>2020-10-25T13:02:47Z</time>
      </trkpt>
      <trkpt lat="45.61804" lon="6.03298">
        <ele>1059.03</ele>
        <time>2020-10-25T13:02:52Z</time>
      </trkpt>
      <trkpt lat="45.61802" lon="6.03281">
        <ele>1061.91</ele>
        <time>2020-10-25T13:03:04Z</time>
      </trkpt>
      <trkpt lat="45.61801" lon="6.03279">
        <ele>1062.39</ele>
        <time>2020-10-25T13:03:06Z</time>
      </trkpt>
      <trkpt lat="45.618" lon="6.03265">
        <ele>1063.84</ele>
        <time>2020-10-25T13:03:15Z</time>
      </trkpt>
      <trkpt lat="45.618" lon="6.03255">
        <ele>1065.28</ele>
        <time>2020-10-25T13:03:22Z</time>
      </trkpt>
      <trkpt lat="45.61801" lon="6.03249">
        <ele>1065.76</ele>
        <time>2020-10-25T13:03:25Z</time>
      </trkpt>
      <trkpt lat="45.61802" lon="6.03244">
        <ele>1066.72</ele>
        <time>2020-10-25T13:03:29Z</time>
      </trkpt>
      <trkpt lat="45.61804" lon="6.03239">
        <ele>1068.16</ele>
        <time>2020-10-25T13:03:35Z</time>
      </trkpt>
      <trkpt lat="45.61807" lon="6.03227">
        <ele>1070.08</ele>
        <time>2020-10-25T13:03:45Z</time>
      </trkpt>
      <trkpt lat="45.61807" lon="6.03219">
        <ele>1071.53</ele>
        <time>2020-10-25T13:03:51Z</time>
      </trkpt>
      <trkpt lat="45.61808" lon="6.03207">
        <ele>1073.45</ele>
        <time>2020-10-25T13:04:00Z</time>
      </trkpt>
      <trkpt lat="45.61808" lon="6.03206">
        <ele>1073.45</ele>
        <time>2020-10-25T13:04:01Z</time>
      </trkpt>
      <trkpt lat="45.61811" lon="6.0319">
        <ele>1075.37</ele>
        <time>2020-10-25T13:04:12Z</time>
      </trkpt>
      <trkpt lat="45.61812" lon="6.03182">
        <ele>1076.81</ele>
        <time>2020-10-25T13:04:17Z</time>
      </trkpt>
      <trkpt lat="45.61817" lon="6.03172">
        <ele>1078.26</ele>
        <time>2020-10-25T13:04:27Z</time>
      </trkpt>
      <trkpt lat="45.61819" lon="6.03168">
        <ele>1078.74</ele>
        <time>2020-10-25T13:04:29Z</time>
      </trkpt>
      <trkpt lat="45.61821" lon="6.03161">
        <ele>1079.7</ele>
        <time>2020-10-25T13:04:33Z</time>
      </trkpt>
      <trkpt lat="45.61824" lon="6.0315">
        <ele>1081.14</ele>
        <time>2020-10-25T13:04:40Z</time>
      </trkpt>
      <trkpt lat="45.61832" lon="6.03142">
        <ele>1083.06</ele>
        <time>2020-10-25T13:04:50Z</time>
      </trkpt>
      <trkpt lat="45.61836" lon="6.03139">
        <ele>1084.02</ele>
        <time>2020-10-25T13:04:57Z</time>
      </trkpt>
      <trkpt lat="45.61837" lon="6.03137">
        <ele>1084.99</ele>
        <time>2020-10-25T13:04:59Z</time>
      </trkpt>
      <trkpt lat="45.61837" lon="6.0312">
        <ele>1087.39</ele>
        <time>2020-10-25T13:05:10Z</time>
      </trkpt>
      <trkpt lat="45.61838" lon="6.03108">
        <ele>1088.83</ele>
        <time>2020-10-25T13:05:18Z</time>
      </trkpt>
      <trkpt lat="45.61839" lon="6.03101">
        <ele>1089.79</ele>
        <time>2020-10-25T13:05:22Z</time>
      </trkpt>
      <trkpt lat="45.61844" lon="6.03091">
        <ele>1092.2</ele>
        <time>2020-10-25T13:05:33Z</time>
      </trkpt>
      <trkpt lat="45.61844" lon="6.03089">
        <ele>1092.68</ele>
        <time>2020-10-25T13:05:34Z</time>
      </trkpt>
      <trkpt lat="45.61846" lon="6.03075">
        <ele>1093.64</ele>
        <time>2020-10-25T13:05:42Z</time>
      </trkpt>
      <trkpt lat="45.61848" lon="6.03061">
        <ele>1096.04</ele>
        <time>2020-10-25T13:05:54Z</time>
      </trkpt>
      <trkpt lat="45.6185" lon="6.03038">
        <ele>1097.96</ele>
        <time>2020-10-25T13:06:06Z</time>
      </trkpt>
      <trkpt lat="45.61858" lon="6.03019">
        <ele>1099.4</ele>
        <time>2020-10-25T13:06:19Z</time>
      </trkpt>
      <trkpt lat="45.61858" lon="6.03018">
        <ele>1098.44</ele>
        <time>2020-10-25T13:06:36Z</time>
      </trkpt>
      <trkpt lat="45.61858" lon="6.03018">
        <ele>1099.4</ele>
        <time>2020-10-25T13:07:01Z</time>
      </trkpt>
      <trkpt lat="45.61863" lon="6.03011">
        <ele>1099.89</ele>
        <time>2020-10-25T13:07:14Z</time>
      </trkpt>
      <trkpt lat="45.61865" lon="6.03011">
        <ele>1099.89</ele>
        <time>2020-10-25T13:07:19Z</time>
      </trkpt>
      <trkpt lat="45.61868" lon="6.03003">
        <ele>1099.89</ele>
        <time>2020-10-25T13:07:26Z</time>
      </trkpt>
      <trkpt lat="45.61871" lon="6.02995">
        <ele>1100.37</ele>
        <time>2020-10-25T13:07:34Z</time>
      </trkpt>
      <trkpt lat="45.61876" lon="6.02991">
        <ele>1100.85</ele>
        <time>2020-10-25T13:07:38Z</time>
      </trkpt>
      <trkpt lat="45.6188" lon="6.02981">
        <ele>1102.29</ele>
        <time>2020-10-25T13:07:45Z</time>
      </trkpt>
      <trkpt lat="45.6188" lon="6.02977">
        <ele>1102.77</ele>
        <time>2020-10-25T13:07:48Z</time>
      </trkpt>
      <trkpt lat="45.6188" lon="6.02974">
        <ele>1103.25</ele>
        <time>2020-10-25T13:07:50Z</time>
      </trkpt>
      <trkpt lat="45.61879" lon="6.02966">
        <ele>1103.73</ele>
        <time>2020-10-25T13:07:54Z</time>
      </trkpt>
      <trkpt lat="45.61873" lon="6.02951">
        <ele>1104.21</ele>
        <time>2020-10-25T13:08:04Z</time>
      </trkpt>
      <trkpt lat="45.6187" lon="6.02938">
        <ele>1105.17</ele>
        <time>2020-10-25T13:08:11Z</time>
      </trkpt>
      <trkpt lat="45.61869" lon="6.02936">
        <ele>1105.17</ele>
        <time>2020-10-25T13:08:12Z</time>
      </trkpt>
      <trkpt lat="45.61867" lon="6.02929">
        <ele>1105.17</ele>
        <time>2020-10-25T13:08:16Z</time>
      </trkpt>
      <trkpt lat="45.61864" lon="6.02924">
        <ele>1105.65</ele>
        <time>2020-10-25T13:08:19Z</time>
      </trkpt>
      <trkpt lat="45.61862" lon="6.0292">
        <ele>1105.65</ele>
        <time>2020-10-25T13:08:22Z</time>
      </trkpt>
      <trkpt lat="45.61861" lon="6.02915">
        <ele>1105.65</ele>
        <time>2020-10-25T13:08:25Z</time>
      </trkpt>
      <trkpt lat="45.61862" lon="6.02908">
        <ele>1105.65</ele>
        <time>2020-10-25T13:08:28Z</time>
      </trkpt>
      <trkpt lat="45.61863" lon="6.02899">
        <ele>1105.17</ele>
        <time>2020-10-25T13:08:33Z</time>
      </trkpt>
      <trkpt lat="45.61866" lon="6.0288">
        <ele>1104.69</ele>
        <time>2020-10-25T13:08:44Z</time>
      </trkpt>
      <trkpt lat="45.61865" lon="6.02877">
        <ele>1104.69</ele>
        <time>2020-10-25T13:08:45Z</time>
      </trkpt>
      <trkpt lat="45.61865" lon="6.02873">
        <ele>1104.21</ele>
        <time>2020-10-25T13:08:47Z</time>
      </trkpt>
      <trkpt lat="45.61858" lon="6.0285">
        <ele>1103.73</ele>
        <time>2020-10-25T13:08:56Z</time>
      </trkpt>
      <trkpt lat="45.61858" lon="6.02841">
        <ele>1104.21</ele>
        <time>2020-10-25T13:09:00Z</time>
      </trkpt>
      <trkpt lat="45.61856" lon="6.0282">
        <ele>1104.21</ele>
        <time>2020-10-25T13:09:11Z</time>
      </trkpt>
      <trkpt lat="45.61855" lon="6.0281">
        <ele>1104.21</ele>
        <time>2020-10-25T13:09:17Z</time>
      </trkpt>
      <trkpt lat="45.61855" lon="6.02791">
        <ele>1105.17</ele>
        <time>2020-10-25T13:09:29Z</time>
      </trkpt>
      <trkpt lat="45.61855" lon="6.02787">
        <ele>1105.65</ele>
        <time>2020-10-25T13:09:31Z</time>
      </trkpt>
      <trkpt lat="45.61855" lon="6.02779">
        <ele>1105.65</ele>
        <time>2020-10-25T13:09:35Z</time>
      </trkpt>
      <trkpt lat="45.61855" lon="6.02777">
        <ele>1106.13</ele>
        <time>2020-10-25T13:09:36Z</time>
      </trkpt>
      <trkpt lat="45.61852" lon="6.02758">
        <ele>1106.61</ele>
        <time>2020-10-25T13:09:43Z</time>
      </trkpt>
      <trkpt lat="45.61852" lon="6.02753">
        <ele>1106.61</ele>
        <time>2020-10-25T13:09:45Z</time>
      </trkpt>
      <trkpt lat="45.61853" lon="6.02745">
        <ele>1106.61</ele>
        <time>2020-10-25T13:09:49Z</time>
      </trkpt>
      <trkpt lat="45.61852" lon="6.02734">
        <ele>1107.1</ele>
        <time>2020-10-25T13:09:54Z</time>
      </trkpt>
      <trkpt lat="45.61853" lon="6.02731">
        <ele>1107.1</ele>
        <time>2020-10-25T13:09:55Z</time>
      </trkpt>
      <trkpt lat="45.61854" lon="6.02717">
        <ele>1107.1</ele>
        <time>2020-10-25T13:10:05Z</time>
      </trkpt>
      <trkpt lat="45.61854" lon="6.02717">
        <ele>1107.58</ele>
        <time>2020-10-25T13:10:07Z</time>
      </trkpt>
      <trkpt lat="45.61857" lon="6.02711">
        <ele>1107.1</ele>
        <time>2020-10-25T13:10:12Z</time>
      </trkpt>
      <trkpt lat="45.61858" lon="6.02708">
        <ele>1106.61</ele>
        <time>2020-10-25T13:10:28Z</time>
      </trkpt>
      <trkpt lat="45.61858" lon="6.02711">
        <ele>1106.61</ele>
        <time>2020-10-25T13:10:38Z</time>
      </trkpt>
      <trkpt lat="45.61859" lon="6.02712">
        <ele>1106.61</ele>
        <time>2020-10-25T13:10:41Z</time>
      </trkpt>
      <trkpt lat="45.6186" lon="6.02701">
        <ele>1105.65</ele>
        <time>2020-10-25T13:10:47Z</time>
      </trkpt>
      <trkpt lat="45.6186" lon="6.02695">
        <ele>1105.65</ele>
        <time>2020-10-25T13:10:50Z</time>
      </trkpt>
      <trkpt lat="45.61867" lon="6.0268">
        <ele>1103.73</ele>
        <time>2020-10-25T13:11:00Z</time>
      </trkpt>
      <trkpt lat="45.61869" lon="6.0267">
        <ele>1102.77</ele>
        <time>2020-10-25T13:11:05Z</time>
      </trkpt>
      <trkpt lat="45.61875" lon="6.02653">
        <ele>1101.33</ele>
        <time>2020-10-25T13:11:15Z</time>
      </trkpt>
      <trkpt lat="45.61884" lon="6.02638">
        <ele>1098.92</ele>
        <time>2020-10-25T13:11:26Z</time>
      </trkpt>
      <trkpt lat="45.61887" lon="6.02633">
        <ele>1098.44</ele>
        <time>2020-10-25T13:11:29Z</time>
      </trkpt>
      <trkpt lat="45.61889" lon="6.0263">
        <ele>1097.96</ele>
        <time>2020-10-25T13:11:31Z</time>
      </trkpt>
      <trkpt lat="45.6189" lon="6.02625">
        <ele>1097.48</ele>
        <time>2020-10-25T13:11:33Z</time>
      </trkpt>
      <trkpt lat="45.61893" lon="6.02619">
        <ele>1097</ele>
        <time>2020-10-25T13:11:37Z</time>
      </trkpt>
      <trkpt lat="45.61899" lon="6.02602">
        <ele>1095.08</ele>
        <time>2020-10-25T13:11:47Z</time>
      </trkpt>
      <trkpt lat="45.61905" lon="6.02592">
        <ele>1094.12</ele>
        <time>2020-10-25T13:11:54Z</time>
      </trkpt>
      <trkpt lat="45.61907" lon="6.02584">
        <ele>1093.16</ele>
        <time>2020-10-25T13:11:58Z</time>
      </trkpt>
      <trkpt lat="45.61906" lon="6.02576">
        <ele>1092.2</ele>
        <time>2020-10-25T13:12:02Z</time>
      </trkpt>
      <trkpt lat="45.61909" lon="6.02573">
        <ele>1091.23</ele>
        <time>2020-10-25T13:12:05Z</time>
      </trkpt>
      <trkpt lat="45.61914" lon="6.02559">
        <ele>1088.83</ele>
        <time>2020-10-25T13:12:12Z</time>
      </trkpt>
      <trkpt lat="45.61915" lon="6.02551">
        <ele>1088.83</ele>
        <time>2020-10-25T13:12:15Z</time>
      </trkpt>
      <trkpt lat="45.61925" lon="6.02531">
        <ele>1087.87</ele>
        <time>2020-10-25T13:12:28Z</time>
      </trkpt>
      <trkpt lat="45.61925" lon="6.02529">
        <ele>1087.87</ele>
        <time>2020-10-25T13:12:29Z</time>
      </trkpt>
      <trkpt lat="45.61931" lon="6.02518">
        <ele>1086.43</ele>
        <time>2020-10-25T13:12:36Z</time>
      </trkpt>
      <trkpt lat="45.61937" lon="6.02513">
        <ele>1084.99</ele>
        <time>2020-10-25T13:12:41Z</time>
      </trkpt>
      <trkpt lat="45.61941" lon="6.02508">
        <ele>1084.5</ele>
        <time>2020-10-25T13:12:45Z</time>
      </trkpt>
      <trkpt lat="45.61948" lon="6.02498">
        <ele>1083.06</ele>
        <time>2020-10-25T13:12:51Z</time>
      </trkpt>
      <trkpt lat="45.61952" lon="6.02485">
        <ele>1082.1</ele>
        <time>2020-10-25T13:12:58Z</time>
      </trkpt>
      <trkpt lat="45.61956" lon="6.02475">
        <ele>1081.14</ele>
        <time>2020-10-25T13:13:03Z</time>
      </trkpt>
      <trkpt lat="45.61959" lon="6.02463">
        <ele>1080.18</ele>
        <time>2020-10-25T13:13:09Z</time>
      </trkpt>
      <trkpt lat="45.61965" lon="6.02454">
        <ele>1079.22</ele>
        <time>2020-10-25T13:13:15Z</time>
      </trkpt>
      <trkpt lat="45.61974" lon="6.02438">
        <ele>1077.29</ele>
        <time>2020-10-25T13:13:26Z</time>
      </trkpt>
      <trkpt lat="45.61982" lon="6.02427">
        <ele>1076.33</ele>
        <time>2020-10-25T13:13:35Z</time>
      </trkpt>
      <trkpt lat="45.61985" lon="6.02423">
        <ele>1075.37</ele>
        <time>2020-10-25T13:13:39Z</time>
      </trkpt>
      <trkpt lat="45.61995" lon="6.02413">
        <ele>1074.41</ele>
        <time>2020-10-25T13:13:48Z</time>
      </trkpt>
      <trkpt lat="45.61998" lon="6.02409">
        <ele>1073.93</ele>
        <time>2020-10-25T13:13:51Z</time>
      </trkpt>
      <trkpt lat="45.62003" lon="6.02409">
        <ele>1072.97</ele>
        <time>2020-10-25T13:13:54Z</time>
      </trkpt>
      <trkpt lat="45.62012" lon="6.02396">
        <ele>1071.53</ele>
        <time>2020-10-25T13:14:03Z</time>
      </trkpt>
      <trkpt lat="45.6202" lon="6.02392">
        <ele>1071.05</ele>
        <time>2020-10-25T13:14:09Z</time>
      </trkpt>
      <trkpt lat="45.62029" lon="6.02384">
        <ele>1070.08</ele>
        <time>2020-10-25T13:14:17Z</time>
      </trkpt>
      <trkpt lat="45.62033" lon="6.02372">
        <ele>1069.6</ele>
        <time>2020-10-25T13:14:25Z</time>
      </trkpt>
      <trkpt lat="45.62044" lon="6.02358">
        <ele>1067.68</ele>
        <time>2020-10-25T13:14:36Z</time>
      </trkpt>
      <trkpt lat="45.62051" lon="6.02351">
        <ele>1067.2</ele>
        <time>2020-10-25T13:14:43Z</time>
      </trkpt>
      <trkpt lat="45.62064" lon="6.02342">
        <ele>1064.8</ele>
        <time>2020-10-25T13:14:54Z</time>
      </trkpt>
      <trkpt lat="45.62074" lon="6.02332">
        <ele>1063.84</ele>
        <time>2020-10-25T13:15:04Z</time>
      </trkpt>
      <trkpt lat="45.62084" lon="6.02335">
        <ele>1062.87</ele>
        <time>2020-10-25T13:15:11Z</time>
      </trkpt>
      <trkpt lat="45.62088" lon="6.02338">
        <ele>1062.87</ele>
        <time>2020-10-25T13:15:26Z</time>
      </trkpt>
      <trkpt lat="45.62096" lon="6.02352">
        <ele>1061.91</ele>
        <time>2020-10-25T13:15:40Z</time>
      </trkpt>
      <trkpt lat="45.62101" lon="6.02359">
        <ele>1061.43</ele>
        <time>2020-10-25T13:15:45Z</time>
      </trkpt>
      <trkpt lat="45.62111" lon="6.02367">
        <ele>1062.39</ele>
        <time>2020-10-25T13:15:54Z</time>
      </trkpt>
      <trkpt lat="45.62118" lon="6.02365">
        <ele>1062.39</ele>
        <time>2020-10-25T13:15:59Z</time>
      </trkpt>
      <trkpt lat="45.62127" lon="6.02361">
        <ele>1062.87</ele>
        <time>2020-10-25T13:16:07Z</time>
      </trkpt>
      <trkpt lat="45.62131" lon="6.02356">
        <ele>1061.91</ele>
        <time>2020-10-25T13:16:11Z</time>
      </trkpt>
      <trkpt lat="45.62137" lon="6.02339">
        <ele>1059.99</ele>
        <time>2020-10-25T13:16:21Z</time>
      </trkpt>
      <trkpt lat="45.62137" lon="6.02329">
        <ele>1059.51</ele>
        <time>2020-10-25T13:16:26Z</time>
      </trkpt>
      <trkpt lat="45.6214" lon="6.02312">
        <ele>1057.59</ele>
        <time>2020-10-25T13:16:37Z</time>
      </trkpt>
      <trkpt lat="45.62139" lon="6.02294">
        <ele>1055.67</ele>
        <time>2020-10-25T13:16:51Z</time>
      </trkpt>
      <trkpt lat="45.62129" lon="6.02281">
        <ele>1054.22</ele>
        <time>2020-10-25T13:17:03Z</time>
      </trkpt>
      <trkpt lat="45.62126" lon="6.02279">
        <ele>1053.74</ele>
        <time>2020-10-25T13:17:06Z</time>
      </trkpt>
      <trkpt lat="45.62112" lon="6.02281">
        <ele>1052.78</ele>
        <time>2020-10-25T13:17:18Z</time>
      </trkpt>
      <trkpt lat="45.62106" lon="6.02277">
        <ele>1051.82</ele>
        <time>2020-10-25T13:17:23Z</time>
      </trkpt>
      <trkpt lat="45.62097" lon="6.02273">
        <ele>1050.38</ele>
        <time>2020-10-25T13:17:31Z</time>
      </trkpt>
      <trkpt lat="45.62092" lon="6.02268">
        <ele>1049.9</ele>
        <time>2020-10-25T13:17:35Z</time>
      </trkpt>
      <trkpt lat="45.62083" lon="6.02245">
        <ele>1048.94</ele>
        <time>2020-10-25T13:17:47Z</time>
      </trkpt>
      <trkpt lat="45.62081" lon="6.02239">
        <ele>1048.45</ele>
        <time>2020-10-25T13:17:51Z</time>
      </trkpt>
      <trkpt lat="45.62077" lon="6.0223">
        <ele>1047.97</ele>
        <time>2020-10-25T13:17:56Z</time>
      </trkpt>
      <trkpt lat="45.62071" lon="6.02222">
        <ele>1047.49</ele>
        <time>2020-10-25T13:18:02Z</time>
      </trkpt>
      <trkpt lat="45.6207" lon="6.02218">
        <ele>1047.49</ele>
        <time>2020-10-25T13:18:04Z</time>
      </trkpt>
      <trkpt lat="45.62066" lon="6.02212">
        <ele>1046.53</ele>
        <time>2020-10-25T13:18:09Z</time>
      </trkpt>
      <trkpt lat="45.62063" lon="6.02207">
        <ele>1046.05</ele>
        <time>2020-10-25T13:18:13Z</time>
      </trkpt>
      <trkpt lat="45.62057" lon="6.02203">
        <ele>1045.09</ele>
        <time>2020-10-25T13:18:18Z</time>
      </trkpt>
      <trkpt lat="45.62052" lon="6.02199">
        <ele>1044.61</ele>
        <time>2020-10-25T13:18:23Z</time>
      </trkpt>
      <trkpt lat="45.62046" lon="6.02194">
        <ele>1044.13</ele>
        <time>2020-10-25T13:18:29Z</time>
      </trkpt>
      <trkpt lat="45.62041" lon="6.02192">
        <ele>1043.65</ele>
        <time>2020-10-25T13:18:33Z</time>
      </trkpt>
      <trkpt lat="45.62035" lon="6.02188">
        <ele>1043.17</ele>
        <time>2020-10-25T13:18:38Z</time>
      </trkpt>
      <trkpt lat="45.62029" lon="6.02186">
        <ele>1042.69</ele>
        <time>2020-10-25T13:18:43Z</time>
      </trkpt>
      <trkpt lat="45.62014" lon="6.02186">
        <ele>1041.25</ele>
        <time>2020-10-25T13:18:54Z</time>
      </trkpt>
      <trkpt lat="45.62006" lon="6.02183">
        <ele>1040.28</ele>
        <time>2020-10-25T13:19:00Z</time>
      </trkpt>
      <trkpt lat="45.62001" lon="6.02183">
        <ele>1039.8</ele>
        <time>2020-10-25T13:19:04Z</time>
      </trkpt>
      <trkpt lat="45.61985" lon="6.02178">
        <ele>1037.88</ele>
        <time>2020-10-25T13:19:15Z</time>
      </trkpt>
      <trkpt lat="45.61969" lon="6.02169">
        <ele>1035.96</ele>
        <time>2020-10-25T13:19:27Z</time>
      </trkpt>
      <trkpt lat="45.6196" lon="6.0217">
        <ele>1035</ele>
        <time>2020-10-25T13:19:33Z</time>
      </trkpt>
      <trkpt lat="45.61951" lon="6.0217">
        <ele>1034.04</ele>
        <time>2020-10-25T13:19:40Z</time>
      </trkpt>
      <trkpt lat="45.61945" lon="6.0217">
        <ele>1033.07</ele>
        <time>2020-10-25T13:19:48Z</time>
      </trkpt>
      <trkpt lat="45.61927" lon="6.02182">
        <ele>1031.63</ele>
        <time>2020-10-25T13:20:00Z</time>
      </trkpt>
      <trkpt lat="45.61924" lon="6.02183">
        <ele>1031.15</ele>
        <time>2020-10-25T13:20:03Z</time>
      </trkpt>
      <trkpt lat="45.61918" lon="6.02186">
        <ele>1030.67</ele>
        <time>2020-10-25T13:20:09Z</time>
      </trkpt>
      <trkpt lat="45.61902" lon="6.02195">
        <ele>1028.75</ele>
        <time>2020-10-25T13:20:20Z</time>
      </trkpt>
      <trkpt lat="45.61901" lon="6.02195">
        <ele>1028.75</ele>
        <time>2020-10-25T13:20:21Z</time>
      </trkpt>
      <trkpt lat="45.6189" lon="6.02191">
        <ele>1027.31</ele>
        <time>2020-10-25T13:20:30Z</time>
      </trkpt>
      <trkpt lat="45.61884" lon="6.02171">
        <ele>1025.86</ele>
        <time>2020-10-25T13:20:41Z</time>
      </trkpt>
      <trkpt lat="45.61896" lon="6.02158">
        <ele>1024.9</ele>
        <time>2020-10-25T13:20:51Z</time>
      </trkpt>
      <trkpt lat="45.61902" lon="6.02153">
        <ele>1024.9</ele>
        <time>2020-10-25T13:20:56Z</time>
      </trkpt>
      <trkpt lat="45.61905" lon="6.0215">
        <ele>1024.9</ele>
        <time>2020-10-25T13:20:58Z</time>
      </trkpt>
      <trkpt lat="45.61912" lon="6.02147">
        <ele>1024.42</ele>
        <time>2020-10-25T13:21:04Z</time>
      </trkpt>
      <trkpt lat="45.61918" lon="6.02145">
        <ele>1024.42</ele>
        <time>2020-10-25T13:21:09Z</time>
      </trkpt>
      <trkpt lat="45.61926" lon="6.02142">
        <ele>1024.42</ele>
        <time>2020-10-25T13:21:16Z</time>
      </trkpt>
      <trkpt lat="45.61929" lon="6.0214">
        <ele>1024.42</ele>
        <time>2020-10-25T13:21:19Z</time>
      </trkpt>
      <trkpt lat="45.61939" lon="6.02134">
        <ele>1023.94</ele>
        <time>2020-10-25T13:21:27Z</time>
      </trkpt>
      <trkpt lat="45.61952" lon="6.02129">
        <ele>1023.46</ele>
        <time>2020-10-25T13:21:37Z</time>
      </trkpt>
      <trkpt lat="45.61956" lon="6.02124">
        <ele>1022.98</ele>
        <time>2020-10-25T13:21:51Z</time>
      </trkpt>
      <trkpt lat="45.61957" lon="6.02125">
        <ele>1022.98</ele>
        <time>2020-10-25T13:22:05Z</time>
      </trkpt>
      <trkpt lat="45.61956" lon="6.02125">
        <ele>1022.98</ele>
        <time>2020-10-25T13:22:11Z</time>
      </trkpt>
      <trkpt lat="45.61958" lon="6.02128">
        <ele>1023.46</ele>
        <time>2020-10-25T13:22:17Z</time>
      </trkpt>
      <trkpt lat="45.61958" lon="6.02125">
        <ele>1022.02</ele>
        <time>2020-10-25T13:22:24Z</time>
      </trkpt>
      <trkpt lat="45.61958" lon="6.02123">
        <ele>1022.5</ele>
        <time>2020-10-25T13:22:39Z</time>
      </trkpt>
      <trkpt lat="45.61957" lon="6.02124">
        <ele>1022.02</ele>
        <time>2020-10-25T13:22:45Z</time>
      </trkpt>
      <trkpt lat="45.61958" lon="6.02125">
        <ele>1022.5</ele>
        <time>2020-10-25T13:23:10Z</time>
      </trkpt>
      <trkpt lat="45.61958" lon="6.02125">
        <ele>1022.5</ele>
        <time>2020-10-25T13:23:27Z</time>
      </trkpt>
      <trkpt lat="45.61958" lon="6.02124">
        <ele>1022.98</ele>
        <time>2020-10-25T13:23:45Z</time>
      </trkpt>
      <trkpt lat="45.61957" lon="6.02124">
        <ele>1022.02</ele>
        <time>2020-10-25T13:23:59Z</time>
      </trkpt>
      <trkpt lat="45.61956" lon="6.02124">
        <ele>1022.02</ele>
        <time>2020-10-25T13:24:27Z</time>
      </trkpt>
      <trkpt lat="45.61957" lon="6.02124">
        <ele>1022.5</ele>
        <time>2020-10-25T13:24:54Z</time>
      </trkpt>
      <trkpt lat="45.61957" lon="6.02124">
        <ele>1022.5</ele>
        <time>2020-10-25T13:25:06Z</time>
      </trkpt>
    </trkseg>
  </trk>
</gpx>